[[{"header":{"parameterUnit":"m.s-1","parameterCategory":1,"la1":30.6,"la2":29.2853,"lo1":-89.7004,"lo2":-87.6739,"dx":0.0162,"dy":0.0183,"nx":112,"ny":82,"refTime":"2023-02-12T06:00:00:Z","depth":0,"parameterNumber":2,"parameterNumberName":"U-component_of_WINDS"},"data":[0.0,0.0,0.0,0.0,0.0,0.0,0.0,0.0,0.0,0.0,0.0,0.0,0.0,0.0,0.0,0.0,0.0,0.0,0.0,0.0,0.0,0.0,0.0,0.0,0.0,0.0,0.0,0.0,0.0,0.0,0.0,0.0,0.0,0.0,0.0,0.0,0.0,0.0,0.0,0.0,0.0,0.0,0.0,0.0,0.0,0.0,0.0,0.0,0.0,0.0,0.0,0.0,0.0,0.0,0.0,0.0,0.0,0.0,0.0,0.0,0.0,0.0,0.0,0.0,0.0,0.0,0.0,0.0,0.0,0.0,0.0,0.0,0.0,0.0,0.0,0.0,0.0,0.0,0.0,0.0,0.0,0.0,0.0,0.0,0.0,0.0,0.0,0.0,0.0,0.0,0.0,1.8223,2.1264,2.3667,2.4734,2.582,2.576,2.4249,0.0,0.0,0.0,0.0,0.0,0.0,0.0,0.0,0.0,0.0,0.0,0.0,0.0,0.0,0.0,0.0,0.0,0.0,0.0,0.0,0.0,0.0,0.0,0.0,0.0,0.0,0.0,0.0,0.0,0.0,0.0,0.0,0.0,0.0,0.0,0.0,0.0,0.0,0.0,0.0,0.0,0.0,0.0,0.0,0.0,0.0,0.0,0.0,0.0,0.0,0.0,0.0,0.0,0.0,0.0,0.0,0.0,0.0,0.0,0.0,0.0,0.0,0.0,0.0,0.0,0.0,0.0,0.0,0.0,0.0,0.0,0.0,0.0,0.0,0.0,0.0,0.0,0.0,0.0,0.0,0.0,0.0,0.0,0.0,0.0,0.0,0.0,0.0,0.0,0.0,0.0,0.0,0.0,0.0,0.0,0.0,0.0,0.0,0.0,0.0,0.0,0.0,0.0,0.0,1.8604,2.1242,2.2547,2.406,2.6185,2.5691,2.5244,2.5262,0.0,0.0,0.0,0.0,0.0,0.0,0.0,0.0,0.0,0.0,0.0,0.0,0.0,0.0,0.0,0.0,0.0,0.0,0.0,0.0,0.0,0.0,0.0,0.0,0.0,0.0,0.0,0.0,0.0,0.0,0.0,0.0,0.0,0.0,0.0,0.0,0.0,0.0,0.0,0.0,0.0,0.0,0.0,0.0,0.0,0.0,0.0,0.0,0.0,0.0,0.0,0.0,0.0,0.0,0.0,0.0,0.0,0.0,0.0,0.0,0.0,0.0,0.0,0.0,0.0,0.0,0.0,0.0,0.0,0.0,0.0,0.0,0.0,0.0,0.0,0.0,0.0,0.0,0.0,0.0,0.0,0.0,0.0,0.0,0.0,0.0,0.0,0.0,0.0,0.0,0.0,0.0,0.0,0.0,0.0,0.0,0.0,0.0,0.0,0.0,0.0,0.0,0.0,1.7712,1.8748,2.1278,2.2195,2.3226,2.4768,2.4614,2.4372,2.4344,2.3798,0.0,0.0,0.0,0.0,0.0,0.0,0.0,0.0,0.0,0.0,0.0,0.0,0.0,0.0,0.0,0.0,0.0,0.0,0.0,0.0,0.0,0.0,0.0,0.0,0.0,0.0,0.0,0.0,0.0,0.0,0.0,0.0,0.0,0.0,0.0,0.0,0.0,0.0,0.0,0.0,0.0,0.0,0.0,0.0,0.0,0.0,0.0,0.0,0.0,0.0,0.0,0.0,0.0,0.0,0.0,0.0,0.0,0.0,0.0,0.0,0.0,0.0,0.0,0.0,0.0,0.0,0.0,0.0,0.0,0.0,0.0,0.0,0.0,0.0,0.0,0.0,0.0,0.0,0.0,0.0,0.0,0.0,0.0,0.0,0.0,0.0,0.0,0.0,0.0,0.0,0.0,0.0,0.0,0.0,0.0,0.0,0.0,0.0,0.0,0.0,0.0,0.0,1.8071,1.886,2.1245,2.1873,2.259,2.3823,2.3688,2.3543,2.3602,2.2946,0.0,0.0,0.0,0.0,0.0,0.0,0.0,0.0,0.0,0.0,0.0,0.0,0.0,0.0,0.0,0.0,0.0,0.0,0.0,0.0,0.0,0.0,0.0,0.0,0.0,0.0,0.0,0.0,0.0,0.0,0.0,0.0,0.0,0.0,0.0,0.0,0.0,0.0,0.0,0.0,0.0,0.0,0.0,0.0,0.0,0.0,0.0,0.0,0.0,0.0,0.0,0.0,0.0,0.0,0.0,0.0,0.0,0.0,0.0,0.0,0.0,0.0,0.0,0.0,0.0,0.0,0.0,0.0,0.0,0.0,0.0,0.0,0.0,0.0,0.0,0.0,0.0,0.0,0.0,0.0,0.0,0.0,0.0,0.0,0.0,0.0,0.0,0.0,0.0,0.0,0.0,0.0,0.0,0.0,0.0,0.0,0.0,0.0,0.0,0.0,0.0,0.0,1.8729,1.9749,2.2719,2.2485,2.2997,2.5257,2.3562,2.2939,2.4146,2.2912,0.0,0.0,0.0,0.0,0.0,0.0,0.0,0.0,0.0,0.0,0.0,0.0,0.0,0.0,0.0,0.0,0.0,0.0,0.0,0.0,0.0,0.0,0.0,0.0,0.0,0.0,0.0,0.0,0.0,0.0,0.0,0.0,0.0,0.0,0.0,0.0,0.0,0.0,0.0,0.0,0.0,0.0,0.0,0.0,0.0,0.0,0.0,0.0,0.0,0.0,0.0,0.0,0.0,0.0,0.0,0.0,0.0,0.0,0.0,0.0,0.0,0.0,0.0,0.0,0.0,0.0,0.0,0.0,0.0,0.0,0.0,0.0,0.0,0.0,0.0,0.0,0.0,0.0,0.0,0.0,0.0,0.0,0.0,0.0,0.0,0.0,0.0,0.0,0.0,0.0,0.0,0.0,0.0,0.0,0.0,0.0,0.0,0.0,0.0,0.0,0.0,0.0,1.9516,2.0447,0.0,2.1968,2.2443,2.3439,2.2914,2.2773,2.3266,0.0,0.0,0.0,0.0,0.0,0.0,0.0,0.0,0.0,0.0,0.0,0.0,0.0,0.0,0.0,0.0,0.0,0.0,0.0,0.0,0.0,0.0,0.0,0.0,0.0,0.0,0.0,0.0,0.0,0.0,0.0,0.0,0.0,0.0,0.0,0.0,0.0,0.0,0.0,0.0,0.0,0.0,0.0,0.0,0.0,0.0,0.0,0.0,0.0,0.0,0.0,0.0,0.0,0.0,0.0,0.0,0.0,0.0,0.0,0.0,0.0,0.0,0.0,0.0,0.0,0.0,0.0,0.0,0.0,0.0,0.0,0.0,0.0,0.0,0.0,0.0,0.0,0.0,0.0,0.0,0.0,0.0,0.0,0.0,0.0,0.0,0.0,0.0,0.0,0.0,0.0,0.0,0.0,0.0,0.0,0.0,0.0,0.0,0.0,0.0,0.0,0.0,1.9169,2.0221,2.1049,0.0,2.1875,2.2344,2.2625,2.2468,2.2486,2.283,0.0,0.0,0.0,0.0,0.0,0.0,0.0,0.0,0.0,0.0,0.0,0.0,0.0,0.0,0.0,0.0,0.0,0.0,0.0,0.0,0.0,0.0,0.0,0.0,0.0,0.0,0.0,0.0,0.0,0.0,0.0,0.0,0.0,0.0,0.0,0.0,0.0,0.0,0.0,0.0,0.0,0.0,0.0,0.0,0.0,0.0,0.0,0.0,0.0,0.0,0.0,0.0,0.0,0.0,0.0,0.0,0.0,0.0,0.0,0.0,0.0,0.0,0.0,0.0,0.0,0.0,0.0,0.0,0.0,0.0,0.0,0.0,0.0,0.0,0.0,0.0,0.0,0.0,0.0,0.0,0.0,0.0,0.0,0.0,0.0,0.0,0.0,0.0,0.0,0.0,0.0,0.0,0.0,0.0,0.0,0.0,0.0,0.0,0.0,0.0,0.0,0.0,1.969,2.0768,2.1666,2.2048,2.2475,2.2886,2.3346,2.2297,2.207,0.0,0.0,0.0,0.0,0.0,0.0,0.0,0.0,0.0,0.0,0.0,0.0,0.0,0.0,0.0,0.0,0.0,0.0,0.0,0.0,0.0,0.0,0.0,0.0,0.0,0.0,0.0,0.0,0.0,0.0,0.0,0.0,0.0,0.0,0.0,0.0,0.0,0.0,0.0,0.0,0.0,0.0,0.0,0.0,0.0,0.0,0.0,0.0,0.0,0.0,0.0,0.0,0.0,0.0,0.0,0.0,0.0,0.0,0.0,0.0,0.0,0.0,0.0,0.0,0.0,0.0,0.0,0.0,0.0,0.0,0.0,0.0,0.0,0.0,0.0,0.0,0.0,0.0,0.0,0.0,0.0,0.0,0.0,0.0,0.0,0.0,0.0,0.0,0.0,0.0,0.0,0.0,0.0,0.0,0.0,0.0,0.0,0.0,0.0,0.0,0.0,0.0,0.0,0.0,2.1115,2.1925,2.1374,2.2573,2.3204,2.2688,2.2686,2.2847,2.3171,0.0,0.0,0.0,0.0,0.0,0.0,0.0,0.0,0.0,0.0,0.0,0.0,0.0,0.0,0.0,0.0,0.0,0.0,0.0,0.0,0.0,0.0,0.0,0.0,0.0,0.0,0.0,0.0,0.0,0.0,0.0,0.0,0.0,0.0,0.0,0.0,0.0,0.0,0.0,0.0,0.0,0.0,0.0,0.0,0.0,0.0,0.0,0.0,0.0,0.0,0.0,0.0,0.0,0.0,0.0,0.0,0.0,0.0,0.0,0.0,0.0,0.0,0.0,0.0,0.0,0.0,0.0,0.0,0.0,0.0,0.0,0.0,0.0,0.0,0.0,0.0,0.0,0.0,0.0,0.0,0.0,0.0,0.0,0.0,0.0,0.0,0.0,0.0,0.0,0.0,0.0,0.0,0.0,0.0,0.0,0.0,0.0,0.0,0.0,0.0,0.0,0.0,1.969,2.1219,2.1948,2.1086,2.2555,2.3226,2.2367,2.2857,2.3189,2.3189,0.0,0.0,0.0,0.0,0.0,0.0,0.0,0.0,0.0,0.0,0.0,0.0,0.0,0.0,0.0,0.0,0.0,0.0,0.0,0.0,0.0,0.0,0.0,0.0,0.0,0.0,0.0,0.0,0.0,0.0,0.0,0.0,0.0,0.0,0.0,0.0,0.0,0.0,0.0,0.0,0.0,0.0,0.0,0.0,0.0,0.0,0.0,0.0,0.0,0.0,0.0,0.0,0.0,0.0,0.0,0.0,0.0,0.0,0.0,0.0,0.0,0.0,0.0,0.0,0.0,0.0,0.0,0.0,0.0,0.0,0.0,0.0,0.0,0.0,0.0,0.0,0.0,0.0,0.0,0.0,0.0,0.0,0.0,0.0,0.0,0.0,0.0,0.0,0.0,0.0,0.0,0.0,0.0,0.0,0.0,0.0,0.0,0.0,0.0,0.0,0.0,0.0,1.969,2.1092,2.1825,2.1071,2.2457,2.3105,2.2361,2.2857,2.3189,2.3189,0.0,0.0,0.0,0.0,0.0,0.0,0.0,0.0,0.0,0.0,0.0,0.0,0.0,0.0,0.0,0.0,0.0,0.0,0.0,0.0,0.0,0.0,0.0,0.0,0.0,0.0,0.0,0.0,0.0,0.0,0.0,0.0,0.0,0.0,0.0,0.0,0.0,0.0,0.0,0.0,0.0,0.0,0.0,0.0,0.0,0.0,0.0,0.0,0.0,0.0,0.0,0.0,0.0,0.0,0.0,0.0,0.0,0.0,0.0,0.0,2.0662,0.0,0.0,0.0,0.0,0.0,0.0,0.0,0.0,0.0,0.0,0.0,0.0,0.0,0.0,0.0,0.0,0.0,0.0,0.0,0.0,0.0,0.0,0.0,0.0,0.0,0.0,0.0,0.0,0.0,0.0,0.0,0.0,0.0,0.0,0.0,0.0,0.0,0.0,0.0,0.0,0.0,1.969,2.1092,2.1825,2.1071,2.2457,2.3105,2.2361,2.2857,2.3189,2.3189,0.0,0.0,0.0,0.0,0.0,0.0,0.0,0.0,0.0,0.0,0.0,0.0,0.0,0.0,0.0,0.0,0.0,0.0,0.0,0.0,0.0,0.0,0.0,0.0,0.0,0.0,0.0,0.0,0.0,0.0,0.0,0.0,0.0,0.0,0.0,0.0,0.0,0.0,0.0,0.0,0.0,0.0,0.0,0.0,0.0,0.0,0.0,0.0,0.0,0.0,0.0,0.0,0.0,0.0,0.0,0.0,0.0,0.0,0.0,0.0,0.0,2.1204,0.0,0.0,0.0,0.0,0.0,0.0,0.0,0.0,0.0,0.0,0.0,0.0,0.0,0.0,0.0,0.0,0.0,0.0,0.0,0.0,0.0,0.0,0.0,0.0,0.0,0.0,0.0,0.0,0.0,0.0,0.0,0.0,0.0,0.0,0.0,0.0,0.0,0.0,0.0,0.0,2.0744,2.127,2.1633,2.181,2.2448,2.2733,2.2344,2.2857,2.3189,2.3189,2.3816,0.0,0.0,0.0,0.0,0.0,0.0,0.0,0.0,0.0,0.0,0.0,0.0,0.0,0.0,0.0,0.0,0.0,0.0,0.0,0.0,0.0,0.0,0.0,0.0,0.0,0.0,0.0,0.0,0.0,0.0,0.0,0.0,0.0,0.0,0.0,0.0,0.0,0.0,0.0,0.0,0.0,0.0,0.0,0.0,0.0,0.0,0.0,0.0,0.0,0.0,0.0,0.0,0.0,0.0,2.204,2.1921,2.2192,2.1972,2.1397,2.1515,2.1458,2.1254,0.0,0.0,0.0,0.0,0.0,0.0,0.0,0.0,0.0,0.0,0.0,0.0,0.0,0.0,0.0,0.0,0.0,0.0,0.0,0.0,0.0,0.0,0.0,0.0,0.0,2.3038,2.2682,0.0,0.0,0.0,0.0,0.0,0.0,0.0,0.0,0.0,0.0,0.0,0.0,2.1951,2.1617,2.1697,2.2798,2.2651,2.2496,2.2496,2.2944,2.3189,2.3189,2.3816,2.4209,0.0,0.0,0.0,0.0,0.0,0.0,0.0,0.0,0.0,0.0,0.0,0.0,0.0,0.0,0.0,0.0,0.0,0.0,0.0,0.0,0.0,0.0,0.0,0.0,0.0,0.0,0.0,0.0,0.0,0.0,0.0,0.0,1.8918,1.9084,0.0,0.0,0.0,0.0,0.0,0.0,0.0,0.0,0.0,0.0,0.0,0.0,0.0,0.0,2.1854,2.1414,2.1204,2.1204,2.1305,2.0974,2.0339,2.1701,2.226,2.2192,2.2835,0.0,2.1247,2.155,0.0,0.0,0.0,0.0,0.0,0.0,0.0,0.0,0.0,0.0,0.0,0.0,0.0,0.0,0.0,0.0,0.0,0.0,0.0,0.0,0.0,0.0,2.3274,2.3376,2.3799,2.4218,0.0,2.319,2.2485,2.3182,0.0,0.0,0.0,0.0,0.0,0.0,0.0,0.0,2.2066,2.2329,2.2799,2.3638,2.3438,2.3241,2.3241,2.3215,2.3189,2.3189,2.3816,2.4266,2.4444,2.4588,0.0,0.0,0.0,0.0,0.0,0.0,0.0,0.0,0.0,0.0,0.0,0.0,0.0,0.0,0.0,0.0,0.0,0.0,0.0,0.0,0.0,0.0,0.0,0.0,0.0,0.0,0.0,0.0,0.0,1.9701,1.9667,1.9774,2.0632,2.1373,0.0,0.0,0.0,0.0,0.0,0.0,0.0,0.0,0.0,2.1221,2.1204,2.1373,2.1667,2.1769,2.2023,2.2429,2.288,2.2852,2.2547,2.3224,2.3528,2.3545,2.3866,2.363,2.3033,2.2716,2.2649,2.2695,0.0,0.0,0.0,0.0,0.0,2.2919,2.2919,0.0,0.0,0.0,0.0,0.0,0.0,0.0,0.0,0.0,0.0,0.0,0.0,0.0,0.0,2.5693,2.5795,2.5845,2.6268,2.5524,2.4611,0.0,2.3832,2.4009,2.5079,0.0,0.0,0.0,0.0,0.0,2.3339,2.3422,2.3752,2.4745,2.4349,2.4002,2.4002,2.3911,2.3819,2.3819,2.407,2.4247,2.4339,2.5317,2.5833,0.0,0.0,0.0,0.0,0.0,0.0,0.0,0.0,0.0,0.0,0.0,0.0,0.0,0.0,0.0,0.0,0.0,0.0,0.0,0.0,0.0,0.0,0.0,0.0,0.0,0.0,0.0,0.0,1.9754,1.9853,1.9925,2.0693,2.1414,0.0,0.0,0.0,0.0,0.0,0.0,2.204,2.2023,2.1854,2.1481,2.1465,2.1651,2.205,2.2581,2.3139,2.368,2.4425,2.4763,2.478,2.4966,2.5082,2.505,2.5253,2.522,2.5014,2.4173,2.3607,2.3275,2.3072,2.311,2.3248,2.2977,2.3325,2.3951,2.3951,2.4441,2.5045,2.5062,0.0,2.47,2.4061,0.0,0.0,0.0,0.0,2.4492,2.5609,0.0,2.6454,2.7519,2.7537,2.7435,2.7994,2.7672,2.6776,0.0,2.4763,2.4881,2.5253,0.0,0.0,0.0,0.0,2.344,2.4633,2.466,2.4929,2.5796,2.5467,2.5135,2.4948,2.483,2.4686,2.4466,2.449,2.4502,2.4502,2.5857,2.6507,0.0,0.0,0.0,0.0,0.0,0.0,0.0,0.0,0.0,0.0,0.0,0.0,0.0,0.0,0.0,0.0,0.0,0.0,0.0,0.0,0.0,0.0,0.0,0.0,0.0,0.0,0.0,0.0,0.0,0.0,1.8385,2.0047,0.0,0.0,0.0,0.0,2.231,2.231,2.1989,2.1305,2.1271,2.1549,2.2226,2.2243,2.2919,2.4337,2.4388,2.4421,2.4472,2.5186,2.5541,2.5575,2.6268,2.6573,2.6623,2.7351,2.7249,2.6505,2.5382,2.4908,2.4884,2.4873,2.4856,2.4827,2.4509,2.4847,2.549,2.549,2.5981,2.6741,2.7836,2.8425,2.8511,2.7317,2.7016,0.0,0.0,2.6522,2.6539,2.6623,2.7165,2.7705,2.7772,2.8366,2.8873,2.8943,2.889,2.8213,0.0,2.5541,2.5338,2.4661,0.0,2.5238,2.4594,2.5019,2.5443,2.5541,2.6117,2.659,2.664,2.6965,2.6874,2.6147,2.6037,2.5677,2.4915,2.5184,2.5348,2.5348,2.5597,2.6451,2.796,2.8071,0.0,0.0,0.0,0.0,0.0,0.0,0.0,0.0,0.0,0.0,0.0,0.0,0.0,0.0,0.0,0.0,0.0,0.0,0.0,0.0,0.0,0.0,0.0,0.0,0.0,0.0,0.0,0.0,2.0303,2.0866,0.0,0.0,2.2581,2.3004,2.3004,2.3444,2.3596,2.3354,2.3338,2.3427,2.3697,2.3714,2.4188,2.5203,2.5203,2.5439,2.5913,2.6184,2.6556,2.6995,2.73,2.7689,2.818,2.845,2.8416,2.8164,2.7743,2.6976,2.6073,2.6073,2.6073,2.609,2.5961,2.6387,2.6995,2.6995,2.7537,2.8164,2.8049,2.7791,2.7427,2.7024,2.6906,2.6976,2.73,2.7418,2.7655,2.8636,2.9093,2.9414,2.9888,3.0565,3.097,3.0514,3.0768,3.0581,2.8839,2.7706,2.6945,2.6674,2.6454,2.6387,2.659,2.686,2.6995,2.6995,2.7706,2.8163,2.8163,2.8065,2.7895,2.7636,2.7121,2.6471,2.5654,2.5473,2.5403,2.5403,2.5959,2.6794,2.7904,2.8708,2.9064,0.0,0.0,0.0,0.0,0.0,0.0,0.0,0.0,0.0,0.0,0.0,0.0,0.0,0.0,0.0,0.0,0.0,0.0,0.0,0.0,0.0,0.0,0.0,0.0,0.0,0.0,2.0874,2.1859,2.2166,2.2525,2.2987,2.3477,2.3765,2.3765,2.4205,2.4506,2.4506,2.4506,2.4625,2.4847,2.4864,2.522,2.5964,2.6234,2.659,2.708,2.7334,2.7858,2.8586,2.8332,2.8636,2.9364,2.9364,2.9364,2.9381,2.9634,2.9127,2.8163,2.7655,2.7621,2.7841,2.7841,2.8467,2.9364,2.9617,3.004,3.0395,2.9871,2.9194,2.8586,2.8586,2.823,2.7994,2.8755,2.8958,2.9245,3.0514,3.1176,3.1598,3.2076,3.2694,3.3038,3.2538,3.2831,3.2882,3.1901,3.0011,2.8397,2.7874,2.7621,2.7638,2.8146,2.8213,2.8298,2.8516,2.9042,2.9319,2.921,2.9298,2.9225,2.8825,2.8694,2.8052,2.6685,2.6615,2.6484,2.6229,2.6979,2.7787,2.8594,2.9788,3.0338,3.0195,0.0,0.0,0.0,0.0,0.0,0.0,0.0,0.0,0.0,0.0,0.0,0.0,0.0,0.0,0.0,0.0,0.0,0.0,0.0,0.0,0.0,0.0,0.0,1.9996,2.1547,2.2681,2.2731,2.3804,2.454,2.454,2.4574,2.4591,2.4608,2.4591,2.4608,2.4659,2.4625,2.4932,2.5693,2.571,2.6048,2.6759,2.7486,2.7823,2.784,2.8619,2.9381,3.0091,2.9347,2.9431,3.0142,3.0142,3.0159,3.0226,3.0937,3.1241,3.1162,2.9688,2.9533,3.0176,3.0192,3.1106,3.2425,3.3152,3.3406,3.3406,3.3406,3.2916,3.2364,3.2347,3.1365,3.0362,3.1055,3.1258,3.1467,3.2161,3.3299,3.4241,3.4258,3.4619,3.4942,3.4942,3.4942,3.4942,3.4906,3.2364,2.9773,2.8283,2.8655,2.9146,2.9183,2.9166,0.0,3.0112,3.0197,3.0043,2.978,3.0718,3.0919,2.9828,3.075,3.0375,2.7989,2.8558,2.8613,2.7824,2.8558,2.9347,3.016,3.1221,3.1766,3.1787,0.0,0.0,0.0,0.0,0.0,0.0,0.0,0.0,0.0,0.0,0.0,0.0,0.0,0.0,0.0,0.0,0.0,0.0,0.0,0.0,0.0,0.0,2.2341,2.1981,2.2205,2.2824,2.3866,2.4768,2.5304,2.5304,2.5778,2.6319,2.686,2.6387,2.6573,2.7724,2.7215,2.7249,2.8027,2.8061,2.8146,2.8349,2.8552,2.867,2.867,2.8873,2.9381,3.0108,2.9888,3.0347,3.133,3.1023,3.1406,3.2207,3.2043,3.2514,3.3261,3.193,3.1512,3.1749,3.2307,3.2763,3.3136,3.3339,3.3406,3.3406,3.3406,3.3526,3.3618,3.3209,3.3083,3.3012,3.2853,3.3106,3.3438,3.3645,3.4184,3.4853,3.5417,3.565,3.5723,3.5758,3.5723,3.5545,3.5013,3.4182,3.3441,3.3003,3.2837,3.2899,3.323,0.0,0.0,3.2669,3.2179,3.2038,3.2525,3.2638,3.2541,3.2227,3.1717,3.0613,0.0,2.8338,2.8026,2.7805,2.8007,2.8664,2.9832,3.0734,3.1298,0.0,0.0,0.0,0.0,0.0,0.0,0.0,0.0,0.0,0.0,0.0,0.0,0.0,0.0,0.0,0.0,0.0,0.0,0.0,0.0,0.0,0.0,2.2581,2.327,2.426,2.4219,2.4458,2.5304,2.637,2.7012,2.7012,2.7114,2.7351,2.7755,2.7418,2.7554,2.845,2.8383,2.8518,2.9011,2.9011,2.9011,2.9011,2.9296,2.9448,2.9448,2.9753,3.0445,3.1353,3.0991,3.1645,0.0,3.2485,3.2723,3.3488,3.3196,3.3532,0.0,0.0,0.0,0.0,0.0,3.4336,3.4336,3.4336,3.4491,3.4736,3.5044,3.5278,3.5479,3.5614,3.5319,3.499,3.5108,3.5342,3.5598,3.5913,3.6573,3.7274,3.7739,3.8007,3.8149,3.8184,3.8166,3.8005,3.7571,0.0,0.0,3.748,3.5847,3.4689,3.5279,3.4694,3.4321,0.0,3.3702,3.3397,3.438,3.371,3.3273,3.3437,3.2509,0.0,0.0,0.0,2.8962,2.9292,2.898,0.0,0.0,0.0,3.2051,0.0,0.0,0.0,0.0,3.2084,3.1649,0.0,0.0,0.0,0.0,0.0,0.0,0.0,0.0,0.0,0.0,0.0,0.0,0.0,0.0,0.0,0.0,2.3105,2.3748,2.6437,2.6962,2.7046,2.6962,2.823,2.9076,2.8991,2.8349,2.7958,2.8026,2.7891,2.7891,2.8161,0.0,0.0,0.0,0.0,2.9228,2.9228,2.9905,3.0264,3.0302,3.107,3.2042,3.3154,3.2454,3.3178,3.494,3.4178,3.4076,3.446,3.4422,3.4436,3.4484,3.4024,3.4518,3.5538,3.5831,3.5858,0.0,0.0,0.0,0.0,3.748,3.7632,3.7686,3.8576,3.773,3.6697,3.7598,3.7734,3.7787,3.8498,3.9533,4.0402,4.0492,4.0826,4.113,4.124,4.1167,4.1111,4.1111,4.0737,4.0562,4.1027,3.7943,3.5616,3.6346,3.574,0.0,3.6096,3.4903,3.4482,3.5698,0.0,0.0,3.4055,3.3348,3.2192,3.0577,3.0393,3.065,3.1366,3.0705,3.1372,3.3529,3.3202,3.3343,3.4046,3.4162,3.4176,3.411,3.2453,3.2045,0.0,0.0,0.0,0.0,0.0,0.0,0.0,0.0,0.0,0.0,0.0,0.0,0.0,0.0,0.0,2.415,2.5169,2.6251,2.7435,2.867,2.9228,2.8619,2.933,2.9651,2.9042,2.8839,2.9008,2.9617,2.8482,2.8619,3.0446,3.0125,0.0,3.0751,3.0768,3.0768,3.0768,3.092,3.113,3.1489,0.0,0.0,3.3617,3.4058,3.4743,3.5415,3.4902,3.5259,3.6182,3.5793,3.6035,3.6617,3.6597,3.6667,3.6935,3.7594,3.7568,3.7146,3.7146,3.7629,3.8278,3.8434,3.9058,3.9678,3.9465,3.9447,0.0,3.9252,3.9468,3.977,3.9932,4.0453,4.1107,4.1748,4.1504,4.1295,4.1937,4.157,4.1111,4.1111,4.1027,4.0994,4.1079,3.9543,3.8469,3.9075,3.7904,3.7046,3.7192,3.6389,3.6145,3.704,3.6856,3.6446,3.5862,3.5037,3.3835,3.2247,3.1531,3.1237,3.1384,3.1237,3.1489,3.2168,3.2701,3.3078,3.3222,3.3878,3.4093,3.3876,3.3485,3.3421,0.0,0.0,0.0,0.0,0.0,0.0,0.0,0.0,0.0,0.0,0.0,2.297,0.0,0.0,2.4864,2.5981,2.6776,2.7655,2.8805,2.9617,2.9973,2.9583,3.0192,3.0514,3.0125,2.977,2.9702,3.0074,2.9397,2.9465,3.0598,3.0649,3.0818,3.119,3.1546,3.1732,3.1732,3.2121,3.2394,3.2598,3.3308,3.4086,3.4854,3.513,3.593,3.7148,3.692,3.6988,3.7318,3.7505,3.8025,3.8832,3.9518,3.8995,3.7901,3.872,3.8805,3.8544,3.8544,3.8954,3.9567,3.9979,4.0378,4.076,4.1043,4.0925,4.0778,4.1079,4.1233,4.1411,4.1812,4.2079,4.2396,4.28,4.2598,4.2415,4.28,4.258,4.2304,4.2304,4.2304,4.2304,4.2304,4.1403,4.0659,4.0529,3.946,3.8689,3.8689,3.7643,3.7202,3.801,3.7367,3.689,3.689,3.5367,3.3715,3.21,3.1623,3.1624,3.2181,3.1816,3.2052,3.2966,3.3007,3.312,3.3414,3.3783,3.391,3.3807,3.3807,3.3807,0.0,0.0,0.0,0.0,0.0,0.0,0.0,0.0,2.3302,2.2918,2.3367,2.4002,2.4594,2.5423,2.6488,2.7824,2.8163,2.8718,3.0125,3.0311,3.0311,3.0311,3.0835,3.114,3.1004,3.0446,3.0108,3.0108,3.0108,3.0176,3.0311,3.1004,3.141,3.141,3.2121,3.2493,3.2493,3.3102,3.3473,3.3686,3.4246,3.5146,3.6291,3.6378,3.7348,3.8946,3.9111,3.8921,3.8572,3.9404,4.002,4.0599,4.1986,4.116,3.9238,3.9902,4.0039,3.9961,3.9961,4.03,4.0871,4.1504,4.1667,4.1742,4.2595,4.2249,4.1727,4.2613,4.2722,4.2671,4.3314,4.3497,4.3497,4.3497,4.3497,4.3497,4.3497,4.3497,4.3497,4.3497,4.3497,4.3497,4.3497,4.2947,4.2268,4.146,4.0653,4.012,4.012,3.8854,3.8193,3.8854,3.7624,3.6964,3.7441,3.5514,3.3742,3.252,3.2428,3.2778,3.3527,3.2932,3.3119,3.4274,3.3657,3.3543,3.3979,3.3902,3.3876,3.3876,3.3981,3.4027,1.9589,1.9895,0.0,2.1565,2.2391,2.3288,0.0,0.0,2.4294,2.4635,2.506,2.5389,2.5456,2.6623,2.7858,2.8704,2.9414,3.0142,3.0954,3.1072,3.1072,3.1072,3.114,3.0937,3.0294,3.0159,3.0108,3.0108,3.0108,3.0395,3.1038,3.1765,3.2195,3.2195,3.2882,3.3288,3.3288,3.3372,3.3831,3.4658,3.5436,3.6342,3.7375,3.8792,3.9557,3.9808,4.0524,4.0804,4.0808,4.1614,4.1577,4.1174,4.2763,4.2732,4.1876,4.1967,4.1651,4.1211,4.1211,4.1753,4.2441,4.2531,4.2869,4.3259,4.3355,4.3334,4.3259,4.3373,4.3389,4.3387,4.3461,4.3497,4.3497,4.3497,4.3497,4.3497,4.3497,4.3497,4.3497,4.3497,4.3497,4.3497,4.3497,4.3424,4.3075,4.2286,4.1479,4.0983,4.0983,4.0175,3.9662,3.9753,3.8964,3.8175,3.7562,3.6578,3.604,3.6105,3.6112,3.596,3.5598,3.5484,3.5183,3.4653,3.4559,3.4538,3.4591,3.4288,3.4171,3.4165,3.4639,3.4862,2.1011,0.0,0.0,0.0,2.3823,2.5113,2.5201,2.5833,2.6202,2.5489,2.6163,2.7029,2.7486,2.8433,2.9397,0.0,3.0531,3.0852,3.1157,3.119,3.1038,3.0615,3.0565,3.0615,3.0734,3.0734,3.0734,3.0734,3.0734,3.1055,3.1782,3.2121,3.2493,3.2933,3.366,3.4032,3.4032,3.4472,3.5027,3.5745,3.6406,3.7327,3.8449,3.9456,4.0396,4.1295,4.1167,4.1644,4.2488,4.2359,4.2378,4.2561,4.3222,4.3277,4.3002,4.3002,4.2844,4.2631,4.2631,4.2868,4.3178,4.3178,4.3339,4.3497,4.3497,4.3497,4.3497,4.3497,4.3497,4.3497,4.3497,4.3497,4.3497,4.3497,4.3497,4.3497,4.3497,4.3497,4.3497,4.3497,4.3497,4.3497,4.3497,4.3497,4.3387,4.3039,4.2304,4.1809,4.1809,4.1111,4.0598,4.0598,4.0304,3.9588,3.8303,3.7881,3.7413,3.6733,3.6702,3.6775,3.6882,3.6882,3.6483,3.5647,3.5628,3.5533,3.5413,3.5109,3.5205,3.5653,3.5717,3.6009,2.1602,0.0,0.0,2.3345,2.4979,2.6315,2.6445,2.7289,2.7688,2.6465,2.7318,2.8389,2.8621,2.9448,0.0,3.0818,3.1072,3.119,3.119,3.1021,3.07,3.0176,2.9922,3.0006,3.0531,3.0768,3.097,3.1173,3.119,3.1512,3.2239,3.2476,3.2933,3.3677,3.4421,3.4912,3.5115,3.5673,3.6368,3.7271,3.7404,3.8256,3.969,4.0284,4.1313,4.2598,4.2011,4.2415,4.3442,4.2873,4.2965,4.3497,4.3497,4.3497,4.3497,4.3497,4.3497,4.3497,4.3497,4.3497,4.3497,4.3497,4.3497,4.3497,4.3497,4.3497,4.3497,4.3497,4.3497,4.3497,4.3497,4.3497,4.3497,4.3497,4.3497,4.3497,4.3497,4.3497,4.3497,4.3497,4.3497,4.3497,4.3497,4.3497,4.3497,4.3497,4.3002,4.2635,4.2635,4.1937,4.1368,4.113,4.1111,4.0634,3.946,3.9455,3.9016,3.7904,3.7914,3.8005,3.8072,3.807,3.7668,3.6791,3.6523,3.6419,3.6483,3.5972,3.6091,3.6807,3.6747,3.7006,0.0,0.0,2.2372,2.4742,2.5384,2.6038,2.8375,2.8629,2.8253,2.7811,2.8699,2.9179,2.8047,2.9093,3.0125,3.0142,3.0734,3.119,3.119,3.0581,3.0142,3.0108,2.9465,2.9025,0.0,2.9702,3.0429,3.114,3.119,3.1512,3.2239,3.2983,3.3694,3.4438,3.5199,3.5943,3.6705,3.6721,3.7661,3.9421,3.8638,3.9227,4.106,4.1864,4.2671,4.3442,4.3424,4.3442,4.3497,4.3461,4.3461,4.3497,4.3497,4.3497,4.3497,4.3497,4.3497,4.3497,4.3497,4.3497,4.3497,4.3497,4.3497,4.3497,4.3497,4.3497,4.3497,4.3497,4.3497,4.3497,4.3497,4.3497,4.3497,4.3497,4.3497,4.3497,4.3497,4.3497,4.3497,4.3497,4.3497,4.3497,4.3497,4.3497,4.3497,4.3497,4.3461,4.3442,4.3442,4.2763,4.1974,4.1185,4.1111,4.1093,4.1038,4.1322,4.1268,4.0715,4.0962,4.0577,3.93,3.9258,3.8854,3.7954,3.7108,3.7108,3.7935,3.6829,3.6578,3.7109,3.7611,3.7738,0.0,0.0,2.3841,2.5731,2.7402,2.8717,2.926,2.9908,3.0183,2.9519,2.9049,2.8627,2.8269,2.8596,2.9023,2.9316,2.9989,3.0649,3.1123,3.0987,3.073,3.0537,3.0043,0.0,0.0,0.0,0.0,3.114,3.1647,3.2459,3.3677,3.3998,3.4709,3.5977,3.6265,3.6933,3.804,3.804,3.8734,4.0036,4.0673,4.1265,4.1919,4.2727,4.3222,4.3497,4.3497,4.3497,4.3497,4.3497,4.3497,4.3497,4.3497,4.3497,4.3497,4.3497,4.3497,4.3497,4.3497,4.3497,4.3497,4.3497,4.3497,4.3497,4.3497,4.3497,4.3497,4.3497,4.3497,4.3497,4.3497,4.3497,4.3497,4.3497,4.3497,4.3497,4.3497,4.3497,4.3497,4.3497,4.392,4.4121,4.3589,4.4122,4.4525,4.4288,4.3823,4.3497,4.3497,4.3259,4.2983,4.2708,4.269,4.2584,4.2242,4.2318,4.2265,4.2009,4.1566,4.1189,4.0973,4.0392,3.97,3.8873,3.8565,3.8565,3.8854,3.8244,3.8347,3.9086,3.882,3.8654,0.0,2.4472,2.5677,2.7453,2.9274,3.0613,3.0469,3.0718,3.0664,2.9573,2.8569,2.7787,2.7422,2.7459,2.7646,2.8064,2.856,2.9265,3.0415,3.0217,3.0102,3.0432,3.0394,0.0,0.0,0.0,0.0,3.1213,3.1867,3.2814,3.4032,3.4607,3.547,3.6738,3.7043,3.7792,3.9093,3.9093,3.9617,4.0727,4.2081,4.258,4.2323,4.313,4.3497,4.3497,4.3497,4.3497,4.3497,4.3497,4.3497,4.3497,4.3497,4.3497,4.3497,4.3497,4.3497,4.3497,4.3497,4.3497,4.3497,4.3497,4.3497,4.3497,4.3497,4.3497,4.3497,4.3497,4.3497,4.3497,4.3497,4.3497,4.3497,4.3497,4.3497,4.3497,4.3497,4.3497,4.3497,4.3497,4.4021,4.4288,4.3771,4.4625,4.5321,4.5063,4.4624,4.417,4.373,4.3679,4.3679,4.3679,4.3679,4.3614,4.3456,4.3446,4.3314,4.3054,4.2355,4.1893,4.18,4.095,4.0258,3.9738,3.945,3.9431,3.9719,3.921,3.9374,4.0081,3.9645,3.9389,2.3782,2.5564,2.7791,2.9771,3.0834,3.151,3.1862,3.1,2.9685,2.818,2.7441,2.6763,0.0,0.0,2.6248,2.6658,2.6802,2.7538,2.9317,2.8714,2.8653,0.0,0.0,0.0,0.0,0.0,0.0,3.146,0.0,3.2771,3.3567,3.4912,3.609,3.6995,3.7678,3.864,3.9936,3.9981,4.051,4.1522,4.2848,4.3094,4.2396,4.3149,4.3497,4.3497,4.3497,4.3497,4.3497,4.3497,4.3497,4.3497,4.3497,4.3497,4.3497,4.3497,4.3497,4.3497,4.3497,4.3497,4.3497,4.3497,4.3497,4.3497,4.3497,4.3497,4.3497,4.3497,4.3497,4.3497,4.3497,4.3497,4.3497,4.3497,4.3497,4.3497,4.3534,4.3552,4.3571,4.3624,4.3934,4.4177,4.4244,4.5125,4.584,4.5866,4.5802,4.5348,4.4199,4.4028,4.4028,4.4028,4.4028,4.4175,4.458,4.465,4.4416,4.3912,4.3405,4.2739,4.1912,4.0989,4.0489,4.0489,3.9738,3.9738,4.0489,3.9719,3.9624,4.012,4.0101,3.9922,2.6473,2.7896,2.9267,3.0741,3.1237,3.1414,3.1539,3.0163,2.8844,2.8712,2.694,2.5517,0.0,0.0,0.0,2.8191,2.9112,0.0,3.1839,3.2029,0.0,0.0,0.0,3.2855,3.3225,3.3395,0.0,0.0,3.4128,3.5111,3.6439,3.6502,3.7466,3.9648,3.9458,4.0193,4.1958,4.235,4.2705,4.2957,4.3334,4.3387,4.3185,4.3406,4.3497,4.3497,4.3497,4.3497,4.3497,4.3497,4.3497,4.3497,4.3497,4.3497,4.3497,4.3497,4.3497,4.3497,4.3497,4.3497,4.3497,4.3497,4.3497,4.3497,4.3497,4.3497,4.3497,4.3497,4.3497,4.3497,4.3497,4.3497,4.3497,4.3497,4.3497,4.3644,4.4268,4.4397,4.4649,4.5556,4.6038,4.6571,4.7416,4.6801,4.6275,4.6565,4.5843,4.5076,4.4519,4.4447,4.4447,4.4447,4.4447,4.4606,4.4943,4.4966,4.5023,4.5131,4.3859,4.3008,4.2777,4.1296,4.0489,4.0489,4.0296,4.0296,4.0489,4.0277,4.0261,4.0389,4.0195,4.0042,2.7941,2.9394,3.0589,3.166,3.1935,3.1733,3.1017,2.9442,2.8002,2.7504,2.6151,0.0,0.0,0.0,0.0,0.0,0.0,0.0,3.1882,3.2251,3.2637,0.0,3.4243,0.0,3.4609,3.5066,3.5553,0.0,3.5906,3.6324,3.7421,3.8121,3.9172,4.0648,4.0664,4.1326,4.2711,4.3214,4.3497,4.3497,4.3497,4.3497,4.3497,4.3497,4.3497,4.3497,0.0,4.3497,4.3497,4.3497,4.3497,4.3497,4.3497,4.3497,4.3497,4.3497,4.3497,4.3497,4.3497,4.3497,4.3497,4.3497,4.3497,4.3497,4.3497,4.3497,4.3497,4.3497,4.3497,4.3497,4.3497,4.3497,4.3497,4.3497,4.3754,4.4209,4.482,4.5223,4.5774,4.6779,4.7167,4.768,4.8857,4.8271,4.7739,4.7971,4.7108,4.6218,4.5684,4.5147,4.4825,4.4825,4.4825,4.4943,4.5302,4.518,4.5243,4.5586,4.4355,4.347,4.3104,4.1797,4.0893,4.0508,4.0489,4.0489,4.0489,4.0489,4.0489,4.0489,4.0356,4.0286,2.8732,3.0393,3.1729,3.2484,3.247,3.1935,3.0522,2.8778,2.709,2.5697,0.0,0.0,2.5531,0.0,2.664,2.8058,0.0,2.8067,3.132,3.1548,3.2029,3.385,3.5331,3.6098,3.5786,3.7179,3.8241,3.8525,3.7677,3.7382,3.7822,3.9665,4.076,4.0966,4.1647,4.2284,4.2788,4.325,4.3497,4.3497,4.3497,4.3497,4.3497,4.3497,4.3497,4.3497,0.0,0.0,4.3497,4.3497,4.3497,4.3497,4.3497,4.3497,4.3497,4.3497,4.3497,4.3497,4.3497,4.3497,4.3497,4.3497,4.3497,4.3497,4.3497,4.3497,4.3497,4.3497,4.3497,4.3516,4.3626,4.3713,4.3766,4.3858,4.4462,4.5149,4.5606,4.6382,4.7183,4.781,4.7968,4.8345,4.9375,4.9471,4.9394,4.9394,4.8567,4.7702,4.699,4.5898,4.518,4.518,4.518,4.5263,4.5568,4.5342,4.5302,4.5586,4.4778,4.3932,4.3124,4.2258,4.1393,4.0508,4.0489,4.0489,4.0489,4.0489,4.0489,4.0489,4.0489,4.0489,2.9902,3.1352,3.2453,3.2967,3.1855,3.054,3.0265,2.7934,0.0,0.0,0.0,2.4814,2.6153,0.0,0.0,3.0301,0.0,0.0,0.0,0.0,0.0,0.0,0.0,0.0,0.0,0.0,0.0,0.0,0.0,0.0,4.078,4.0713,4.1207,4.2304,4.2923,4.325,4.3375,4.3444,4.3497,4.3497,4.3497,4.3497,4.3497,4.3497,4.3497,4.3497,0.0,0.0,4.3497,4.3497,4.3497,4.3497,4.3497,4.3497,4.3497,4.3497,4.3497,4.3497,4.3497,4.3497,4.3497,4.3497,4.3497,4.3497,4.3497,4.3497,4.3497,4.3497,4.3497,4.3644,4.4323,4.4742,4.5164,4.5815,4.6356,4.6873,4.7636,4.867,4.9512,4.963,4.9918,5.024,5.0433,4.9875,4.9394,4.9394,4.8086,4.7067,4.6932,4.6088,4.5513,4.5513,4.5513,4.555,4.5605,4.555,4.555,4.5605,4.4778,4.3932,4.3124,4.2258,4.1393,4.0508,4.0489,4.0489,4.0489,4.0489,4.0489,4.0489,4.0489,4.0489,3.0738,3.1754,3.2404,3.3503,3.1771,2.978,2.963,0.0,0.0,0.0,0.0,0.0,2.6392,0.0,0.0,0.0,0.0,0.0,0.0,0.0,0.0,0.0,0.0,0.0,0.0,0.0,0.0,0.0,0.0,0.0,4.1903,4.2068,4.2429,4.3087,4.3375,4.3497,4.3497,4.3497,4.3497,4.3497,4.3497,4.3497,4.3497,4.3497,4.3497,4.3497,4.3497,0.0,4.3497,4.3497,4.3497,4.3497,4.3497,4.3497,4.3497,4.3497,4.3497,4.3497,4.3497,4.3497,4.3497,4.3497,4.3497,4.3497,4.3497,4.3497,4.3548,4.3693,4.374,4.399,4.501,4.541,4.5772,4.6617,4.7427,4.8258,4.9048,4.9873,5.0421,5.0421,5.0565,5.0702,5.0702,5.0337,5.0067,5.0067,4.8625,4.7528,4.7528,4.6394,4.5586,4.5586,4.5586,4.5586,4.5586,4.5586,4.5586,4.5586,4.5201,4.4605,4.3758,4.3316,4.2489,4.12,4.1181,4.095,4.0489,4.0489,4.0489,4.0489,4.0489,4.0489,3.1093,3.1829,3.2178,3.3758,3.1667,2.9204,2.9033,2.6998,0.0,0.0,0.0,0.0,0.0,0.0,0.0,0.0,0.0,0.0,0.0,0.0,0.0,0.0,0.0,0.0,0.0,0.0,0.0,0.0,0.0,0.0,4.2561,4.3149,4.3497,4.3497,4.3497,4.3497,4.3497,4.3497,4.3497,4.3497,4.3497,4.3497,4.3497,4.3497,4.3497,4.3497,4.3497,0.0,0.0,4.3497,4.3497,4.3497,4.3497,4.3497,4.3497,4.3497,4.3497,4.3497,4.3497,4.3497,4.3513,4.3597,4.3597,4.3597,4.3513,4.3708,4.405,4.4216,4.4449,4.4915,4.6035,4.6396,4.6701,4.7656,4.8596,4.9446,5.0096,5.0483,5.0702,5.0702,5.0702,5.0702,5.0702,5.0702,5.0702,5.0702,4.9375,4.8375,4.8375,4.6913,4.5874,4.5874,4.5701,4.5586,4.5586,4.5586,4.5586,4.5586,4.5586,4.5201,4.4335,4.4297,4.3605,4.2104,4.1912,4.147,4.0777,4.0585,4.0489,4.0489,4.0489,4.0489,3.0533,3.1559,3.2106,3.3353,3.1028,2.8492,2.8905,0.0,0.0,0.0,0.0,0.0,0.0,0.0,0.0,0.0,0.0,0.0,0.0,0.0,0.0,0.0,0.0,0.0,0.0,0.0,0.0,0.0,0.0,0.0,0.0,4.3442,4.3497,4.3497,4.3497,4.3497,4.3497,4.3497,4.3497,4.3497,4.3497,4.3497,4.3497,4.3497,4.3497,4.3497,0.0,0.0,0.0,4.3497,4.3497,4.3497,4.3497,4.3497,4.3497,4.3497,4.3497,4.3497,4.3497,4.3497,4.3548,4.3849,4.3955,4.3912,4.3597,4.4495,4.5538,4.5238,4.5988,4.6994,4.7852,4.8339,4.8923,5.0082,5.0451,5.0567,5.0644,5.0663,5.0702,5.0702,5.0702,5.0702,5.0702,5.0702,5.0702,5.0702,4.9894,4.9279,4.9279,4.7817,4.6778,4.6778,4.6067,4.5586,4.5586,4.5586,4.5586,4.5586,4.5586,4.5201,4.4335,4.4297,4.3874,4.3008,4.22,4.1758,4.1681,4.0893,4.0489,4.0489,4.0489,4.0489,2.9845,3.1365,3.2179,3.249,3.0412,2.8217,2.7983,0.0,0.0,0.0,2.419,2.4685,2.63,0.0,0.0,0.0,0.0,0.0,0.0,0.0,0.0,0.0,0.0,0.0,0.0,0.0,0.0,0.0,0.0,0.0,0.0,4.3497,4.3497,4.3497,4.3497,4.3497,4.3497,4.3497,4.3497,4.3497,4.3497,4.3497,4.3497,4.3497,4.3497,4.3497,0.0,0.0,0.0,4.3497,4.3497,4.3497,4.3497,4.3497,4.3497,4.3497,4.3809,4.4158,4.3663,4.3809,4.4265,4.4655,4.4587,4.4412,4.4774,4.5303,4.5908,4.6524,4.703,4.7629,4.8694,4.9477,5.0101,5.0586,5.0702,5.0702,5.0702,5.0702,5.0702,5.0702,5.0702,5.0702,5.0702,5.0702,5.0702,5.0702,4.9952,4.9202,4.8682,4.7605,4.6701,4.6163,4.5797,4.5586,4.5586,4.5586,4.5586,4.5586,4.5586,4.5432,4.5086,4.5066,4.4451,4.3124,4.2758,4.2066,4.1008,4.0662,4.0489,4.0489,4.0489,4.0489,2.831,3.0012,3.1036,3.1457,2.9574,2.7539,0.0,0.0,0.0,0.0,2.4113,2.4685,2.63,2.6612,2.7145,2.8737,0.0,0.0,0.0,0.0,0.0,0.0,0.0,0.0,0.0,0.0,0.0,0.0,0.0,0.0,0.0,4.3497,4.3497,4.3497,4.3497,4.3497,4.3497,4.3497,4.3497,4.3497,4.3497,4.3497,4.3497,4.3497,4.3497,4.3497,0.0,0.0,0.0,4.3497,4.3497,4.3497,4.3497,4.3497,4.3516,4.3754,4.4213,4.4635,4.4048,4.4465,4.5278,4.5413,4.5471,4.5672,4.6586,4.6687,4.6692,4.7709,4.8239,4.8711,4.9567,5.024,5.0702,5.0702,5.0702,5.0702,5.0702,5.0702,5.0702,5.0702,5.0702,5.0702,5.0702,5.0702,5.0702,5.0702,5.0183,4.9548,4.8952,4.8144,4.7317,4.6432,4.6124,4.5874,4.5605,4.5586,4.5586,4.5586,4.5586,4.5586,4.5586,4.5586,4.5028,4.3855,4.3355,4.2489,4.1258,4.0739,4.0489,4.0489,4.0489,4.0489,2.5686,2.7039,2.8302,3.0249,2.8397,2.6224,0.0,0.0,0.0,0.0,2.3976,2.4685,2.63,2.6612,2.7145,2.8737,2.9677,0.0,0.0,0.0,0.0,0.0,0.0,0.0,0.0,0.0,0.0,0.0,0.0,0.0,0.0,4.3497,4.3497,4.3497,4.3497,4.3497,4.3497,4.3497,4.3497,4.3497,4.3497,4.3497,4.3497,4.3497,4.3497,0.0,0.0,0.0,0.0,4.3497,4.3497,4.3497,4.3497,4.3497,4.3589,4.4397,4.4709,4.4709,4.4709,4.5463,4.6402,4.5942,4.6594,4.7799,4.899,4.8759,4.8183,4.8739,4.9769,5.0664,5.0683,5.0683,5.0702,5.0702,5.0702,5.0702,5.0702,5.0702,5.0702,5.0702,5.0702,5.0702,5.0702,5.0702,5.0702,5.0702,5.0683,5.0664,5.0664,4.9913,4.9048,4.8163,4.7355,4.6547,4.5663,4.5586,4.5586,4.5586,4.5586,4.5586,4.5586,4.5586,4.5586,4.5566,4.3951,4.3085,4.3066,4.1335,4.0489,4.0489,4.0489,4.0489,2.3901,2.5679,2.6788,2.7114,2.6465,2.5603,2.4962,0.0,0.0,0.0,2.3437,2.3911,2.5194,2.5891,2.6668,2.7985,2.9769,0.0,0.0,0.0,0.0,0.0,0.0,0.0,0.0,0.0,0.0,0.0,0.0,0.0,0.0,0.0,4.3497,4.3497,4.3497,4.3497,4.3497,4.3497,4.3497,4.3497,4.3497,4.3497,4.3497,4.3497,0.0,0.0,0.0,0.0,0.0,4.3497,4.3497,4.3497,4.3497,4.3497,4.3589,4.4415,4.5057,4.5516,4.5516,4.6295,4.7335,4.7476,4.7543,4.7933,4.974,4.9683,4.9144,4.9891,5.0412,5.0702,5.0702,5.0702,5.0702,5.0702,5.0702,5.0702,5.0702,5.0702,5.0702,5.0702,5.0702,5.0702,5.0702,5.0702,5.0702,5.0702,5.0702,5.0471,4.9894,4.9567,4.9067,4.8202,4.7394,4.6547,4.5663,4.5586,4.5586,4.5586,4.5586,4.5586,4.5586,4.5586,4.5316,4.472,4.4182,4.3643,4.3104,4.195,4.1085,4.0489,4.0489,4.0489,0.0,2.3473,2.458,2.4719,2.478,0.0,0.0,0.0,0.0,0.0,0.0,2.3508,2.4538,2.5469,2.6421,2.7465,2.9758,0.0,0.0,0.0,0.0,0.0,0.0,0.0,0.0,0.0,0.0,0.0,0.0,0.0,0.0,0.0,4.3497,4.3497,4.3497,4.3497,4.3497,4.3497,4.3497,4.3497,4.3497,4.3497,4.3497,4.3497,0.0,0.0,0.0,0.0,0.0,4.3497,4.3497,4.3497,4.3497,4.3681,4.4048,4.4856,4.5663,4.6361,4.6361,4.7231,4.8365,4.8315,4.8517,4.9001,5.0317,5.0317,4.999,5.0548,5.0702,5.0702,5.0702,5.0702,5.0702,5.0702,5.0702,5.0702,5.0702,5.0702,5.0702,5.0702,5.0702,5.0702,5.0702,5.0702,5.0702,5.0702,5.0702,5.0491,4.9952,4.9894,4.9548,4.8682,4.7855,4.7009,4.6163,4.5778,4.5586,4.5586,4.5586,4.5586,4.5586,4.5586,4.5336,4.4797,4.447,4.4047,4.3547,4.2701,4.2008,4.147,4.147,4.147,0.0,0.0,0.0,0.0,0.0,0.0,0.0,0.0,0.0,0.0,0.0,0.0,2.4208,2.5302,2.6333,2.7152,2.96,0.0,0.0,0.0,0.0,0.0,0.0,0.0,0.0,0.0,0.0,0.0,0.0,0.0,0.0,0.0,4.3497,4.3497,4.3497,4.3497,4.3497,4.3497,4.3497,4.3497,4.3497,4.3497,4.3497,4.3497,0.0,0.0,0.0,0.0,0.0,4.3497,4.3497,4.3497,4.3497,4.3956,4.4727,4.5571,4.6379,4.7058,4.7187,4.8234,4.939,4.8701,4.9487,5.0702,5.0702,5.0702,5.0702,5.0702,5.0702,5.0702,5.0702,5.0702,5.0702,5.0702,5.0702,5.0702,5.0702,5.0702,5.0702,5.0702,5.0702,5.0702,5.0702,5.0702,5.0702,5.0702,5.0702,5.0702,5.0702,5.0702,5.0356,4.949,4.8625,4.7778,4.6971,4.6105,4.5586,4.5586,4.5586,4.5586,4.5586,4.5586,4.5586,4.5586,4.4797,4.4355,4.4297,4.3547,4.3162,4.3104,4.3104,4.3104,0.0,0.0,0.0,0.0,0.0,0.0,0.0,0.0,0.0,0.0,0.0,0.0,2.385,2.4935,2.6054,2.706,0.0,0.0,0.0,0.0,0.0,0.0,0.0,0.0,0.0,0.0,0.0,0.0,0.0,0.0,0.0,0.0,4.3497,4.3497,4.3497,4.3497,4.3497,4.3497,4.3497,4.3497,4.3497,4.3497,4.3497,4.3497,0.0,0.0,0.0,0.0,4.3497,4.3497,4.3497,4.3497,4.3497,4.3608,4.3938,4.5369,4.6012,4.6379,4.7935,4.8926,4.957,4.9996,5.0371,5.0702,5.0702,5.0702,5.0702,5.0702,5.0702,5.0702,5.0702,5.0702,5.0702,5.0702,5.0702,5.0702,5.0702,5.0702,5.0702,5.0702,5.0702,5.0702,5.0702,5.0702,5.0702,5.0702,5.0702,5.0702,5.0702,5.0702,5.0356,4.949,4.8625,4.7778,4.6971,4.6105,4.5586,4.5586,4.5586,4.5586,4.5586,4.5586,4.5586,4.5586,4.5393,4.497,4.4297,4.4105,4.3701,4.3104,4.3104,4.3104,0.0,0.0,0.0,0.0,0.0,0.0,0.0,0.0,0.0,0.0,0.0,0.0,0.0,0.0,0.0,0.0,0.0,0.0,0.0,0.0,0.0,0.0,0.0,0.0,0.0,0.0,0.0,0.0,0.0,0.0,0.0,0.0,4.3497,4.3497,4.3497,4.3497,4.3497,4.3497,4.3497,4.3497,4.3497,4.3497,4.3497,4.3497,0.0,0.0,0.0,0.0,4.3497,4.3497,4.3497,4.3497,4.3497,4.3718,4.4158,4.5039,4.5935,4.69,4.7973,4.8976,4.9872,5.0504,5.0702,5.0702,5.0702,5.0702,5.0702,5.0702,5.0702,5.0702,5.0702,5.0702,5.0702,5.0702,5.0702,5.0702,5.0702,5.0702,5.0702,5.0702,5.0702,5.0702,5.0702,5.0702,5.0702,5.0702,5.0702,5.0702,5.0702,5.0702,5.051,5.0048,4.8856,4.7932,4.749,4.6317,4.5586,4.5586,4.5586,4.5586,4.5586,4.5586,4.5586,4.5586,4.5586,4.5355,4.4893,4.4893,4.4662,4.4239,4.4239,4.4239,0.0,0.0,0.0,0.0,0.0,0.0,0.0,0.0,0.0,0.0,0.0,0.0,0.0,0.0,0.0,0.0,0.0,0.0,0.0,0.0,0.0,0.0,0.0,0.0,0.0,0.0,0.0,0.0,0.0,0.0,0.0,0.0,0.0,4.3497,4.3497,4.3497,4.3497,4.3497,4.3497,4.3497,4.3497,4.3497,4.3497,4.3497,0.0,0.0,0.0,0.0,4.3497,4.3497,4.3497,4.3497,4.3497,4.3936,4.4612,4.4741,4.5897,4.7447,4.7766,4.889,5.0249,5.0604,5.0702,5.0702,5.0702,5.0702,5.0702,5.0702,5.0702,5.0702,5.0702,5.0702,5.0702,5.0702,5.0702,5.0702,5.0702,5.0702,5.0702,5.0702,5.0702,5.0702,5.0702,5.0702,5.0702,5.0702,5.0702,5.0702,5.0702,5.0702,5.0644,5.051,4.9183,4.8202,4.7952,4.6605,4.574,4.5605,4.5586,4.5586,4.5586,4.5586,4.5586,4.5586,4.5586,4.5586,4.5586,4.5586,4.5586,4.5586,4.5586,4.5586,0.0,0.0,0.0,0.0,0.0,0.0,0.0,0.0,0.0,0.0,0.0,0.0,0.0,0.0,0.0,0.0,0.0,0.0,0.0,0.0,0.0,0.0,0.0,0.0,0.0,0.0,0.0,0.0,0.0,0.0,0.0,0.0,0.0,4.3497,4.3497,4.3497,4.3497,4.3497,4.3497,4.3497,4.3497,4.3497,4.3497,4.3497,4.3497,0.0,0.0,4.3497,4.3497,4.3497,4.3497,4.3497,4.3497,4.3753,4.4203,4.4891,4.5529,4.6355,4.8029,4.95,5.0624,5.0683,5.0702,5.0702,5.0702,5.0702,5.0702,5.0702,5.0702,5.0702,5.0702,5.0702,5.0702,5.0702,5.0702,5.0702,5.0702,5.0702,5.0702,5.0702,5.0702,5.0702,5.0702,5.0702,5.0702,5.0702,5.0702,5.0702,5.0702,5.0702,5.0414,4.9683,4.9356,4.8625,4.7201,4.6855,4.6394,4.5643,4.5586,4.5586,4.5586,4.5586,4.5586,4.5586,4.5586,4.5586,4.5586,4.5586,4.5586,4.5586,4.5586,4.5586,0.0,0.0,0.0,0.0,0.0,0.0,0.0,0.0,0.0,0.0,0.0,0.0,0.0,0.0,0.0,0.0,0.0,0.0,0.0,0.0,0.0,0.0,0.0,0.0,0.0,0.0,0.0,0.0,0.0,0.0,0.0,0.0,0.0,0.0,4.2837,4.2837,4.2837,4.3277,4.3497,4.3497,4.3497,4.3497,4.3497,4.3497,4.3497,4.3497,0.0,4.3497,4.3497,4.3497,4.3497,4.3513,4.3693,4.3849,4.417,4.5339,4.6209,4.6991,4.857,4.9815,5.0702,5.0702,5.0702,5.0702,5.0702,5.0702,5.0702,5.0702,5.0702,5.0702,5.0702,5.0702,5.0702,5.0702,5.0702,5.0702,5.0702,5.0702,5.0702,5.0702,5.0702,5.0702,5.0702,5.0702,5.0702,5.0702,5.0702,5.0702,5.0702,5.0702,5.0548,5.0144,4.9683,4.8894,4.7663,4.7163,4.6528,4.5663,4.5586,4.5586,4.5586,4.5586,4.5586,4.5586,4.5586,4.5586,4.5586,4.5586,4.5586,4.5586,4.5586,4.5586,1.9418,0.0,0.0,0.0,0.0,0.0,0.0,0.0,0.0,0.0,0.0,0.0,0.0,0.0,0.0,0.0,0.0,0.0,0.0,0.0,0.0,0.0,0.0,0.0,0.0,0.0,0.0,0.0,0.0,0.0,0.0,0.0,0.0,0.0,4.2194,4.2304,4.2304,4.291,4.3296,4.3497,4.3497,4.3497,4.3497,4.3497,4.3497,4.3497,4.3497,4.3497,4.3497,4.3497,4.3497,4.3513,4.3772,4.3986,4.4308,4.5631,4.6674,4.7578,4.8491,4.9375,5.0125,5.0317,5.0394,5.0433,5.0625,5.0702,5.0702,5.0702,5.0702,5.0702,5.0702,5.0702,5.0702,5.0702,5.0702,5.0702,5.0702,5.0702,5.0702,5.0702,5.0702,5.0702,5.0702,5.0702,5.0702,5.0702,5.0702,5.0702,5.0702,5.0702,5.0702,5.0702,5.0087,4.9356,4.849,4.749,4.6701,4.622,4.5817,4.5586,4.5586,4.5586,4.5586,4.5586,4.5586,4.5586,4.5586,4.5586,4.5586,4.5586,4.5586,4.5586,1.8881,2.0047,0.0,0.0,0.0,0.0,0.0,0.0,0.0,0.0,0.0,0.0,0.0,0.0,0.0,0.0,0.0,0.0,0.0,0.0,0.0,0.0,0.0,0.0,0.0,0.0,0.0,0.0,0.0,0.0,0.0,0.0,0.0,0.0,0.0,4.2304,4.2304,4.2359,4.2763,4.3497,4.3497,4.3497,4.3497,4.3497,4.3497,4.3497,4.3497,4.3497,4.3497,4.3497,4.3497,4.3479,4.3513,4.3943,4.465,4.538,4.6203,4.6953,4.7049,4.7605,4.8413,4.9221,4.949,4.9644,5.0452,5.0702,5.0702,5.0702,5.0702,5.0702,5.0702,5.0702,5.0702,5.0702,5.0702,5.0702,5.0702,5.0702,5.0702,5.0702,5.0702,5.0702,5.0702,5.0702,5.0702,5.0702,5.0702,5.0702,5.0702,5.0702,5.0702,5.0702,5.0625,5.024,4.9375,4.7836,4.7201,4.7875,4.6451,4.5586,4.5586,4.5586,4.5586,4.5586,4.5586,4.5586,4.5586,4.5586,4.5586,4.5586,4.5586,4.5586,1.899,1.9668,0.0,0.0,0.0,0.0,0.0,0.0,0.0,0.0,0.0,0.0,0.0,0.0,0.0,0.0,0.0,0.0,0.0,0.0,0.0,0.0,0.0,0.0,0.0,0.0,0.0,0.0,0.0,0.0,0.0,0.0,0.0,0.0,0.0,4.0799,4.0799,4.1313,4.1974,4.2745,4.2745,4.302,4.3497,4.3497,4.3497,4.3497,4.3497,4.3497,4.3513,4.3726,4.3804,4.3868,4.4318,4.4787,4.5263,4.5513,4.6144,4.6913,4.6913,4.7778,4.8875,4.8663,4.9317,5.0164,4.9952,5.026,5.0702,5.0702,5.0702,5.0702,5.0702,5.0702,5.0702,5.0702,5.0702,5.0702,5.0702,5.0702,5.0702,5.0702,5.0702,5.0702,5.0702,5.0702,5.0856,5.1375,5.101,5.0875,5.1375,5.101,5.0702,5.0702,5.0221,4.976,4.9433,4.8317,4.7778,4.8086,4.6528,4.5836,4.6394,4.5893,4.5586,4.5586,4.5586,4.5586,4.5586,4.5586,4.5586,4.5586,4.5586,4.5586,1.9026,0.0,0.0,0.0,0.0,0.0,0.0,0.0,0.0,0.0,0.0,0.0,0.0,0.0,0.0,0.0,0.0,0.0,0.0,0.0,0.0,0.0,0.0,0.0,0.0,0.0,0.0,0.0,0.0,0.0,0.0,0.0,0.0,0.0,0.0,0.0,3.99,4.0451,4.113,4.1919,4.1919,4.2488,4.3497,4.3497,4.3497,4.3532,4.3612,4.3646,4.3679,4.4046,4.4175,4.4261,4.4853,4.5243,4.5438,4.5568,4.597,4.649,4.649,4.724,4.8182,4.8125,4.8913,4.9875,4.9817,5.0221,5.0702,5.0702,5.0702,5.0702,5.0702,5.0702,5.0702,5.0702,5.0702,5.0702,5.0702,5.0702,5.0702,5.0702,5.0702,5.0779,5.1029,5.1087,5.1356,5.2202,5.1837,5.1587,5.1875,5.1414,5.0971,5.0721,5.0164,4.9798,4.9798,4.9009,4.8625,4.8894,4.7336,4.6547,4.6894,4.6336,4.5874,4.5605,4.5586,4.5586,4.5586,4.5586,4.5586,4.5586,4.5586,4.5586,0.0,0.0,0.0,0.0,0.0,0.0,0.0,0.0,0.0,0.0,0.0,0.0,0.0,0.0,0.0,0.0,0.0,0.0,0.0,0.0,0.0,0.0,0.0,0.0,0.0,0.0,0.0,0.0,0.0,0.0,0.0,0.0,0.0,0.0,0.0,0.0,3.9882,3.9882,4.0286,4.1111,4.1111,4.1937,4.3479,4.3497,4.3479,4.3513,4.3849,4.3998,4.4046,4.4447,4.4624,4.4631,4.4985,4.5096,4.5159,4.5476,4.5586,4.5586,4.5586,4.5605,4.5874,4.7548,4.8086,4.8432,5.0144,5.0683,5.0702,5.0702,5.0702,5.0702,5.0702,5.0702,5.0702,5.0702,5.0702,5.0702,5.0702,5.0702,5.0702,5.0702,5.0702,5.0952,5.176,5.1895,5.2202,5.3087,5.3203,5.2856,5.201,5.1895,5.1587,5.0779,5.0702,5.0702,5.0702,4.9913,4.9779,5.0644,4.9086,4.7759,4.6951,4.6913,4.649,4.5605,4.5586,4.5586,4.5586,4.5586,4.5586,4.5586,4.5586,4.5586,0.0,0.0,0.0,0.0,0.0,0.0,0.0,0.0,0.0,0.0,0.0,0.0,0.0,0.0,0.0,0.0,0.0,0.0,0.0,0.0,0.0,0.0,0.0,0.0,0.0,0.0,0.0,0.0,0.0,0.0,0.0,0.0,0.0,0.0,0.0,0.0,3.9056,3.9056,3.946,4.0267,4.1058,4.1859,4.2671,4.3222,4.3612,4.3849,4.3955,4.4146,4.4447,4.4825,4.5096,4.5303,4.5419,4.5438,4.5457,4.5568,4.5586,4.5586,4.5586,4.599,4.6509,4.6374,4.7548,4.899,4.8894,4.9721,5.0702,5.0702,5.0702,5.0702,5.0702,5.0702,5.0702,5.0702,5.0702,5.0702,5.0702,5.0702,5.0702,5.0702,5.0702,5.0952,5.176,5.1433,5.1741,5.3818,5.2587,5.1337,5.1087,5.1048,5.0952,5.0721,5.0702,5.0702,5.0702,5.0452,5.0414,5.0664,5.0202,4.926,4.7798,4.7201,4.649,4.5605,4.5586,4.5586,4.5586,4.5586,4.5586,4.5586,4.5586,4.5586,0.0,0.0,0.0,0.0,0.0,0.0,0.0,0.0,0.0,0.0,0.0,0.0,0.0,0.0,0.0,0.0,0.0,0.0,0.0,0.0,0.0,0.0,0.0,0.0,0.0,0.0,0.0,0.0,0.0,0.0,0.0,0.0,0.0,0.0,0.0,0.0,3.8707,3.8707,3.9019,3.9593,4.0587,4.1491,4.2277,4.341,4.4065,4.4252,4.4373,4.4663,4.5011,4.5222,4.5419,4.5586,4.5586,4.5586,4.5586,4.5586,4.5586,4.5586,4.5586,4.5932,4.6355,4.6163,4.7375,4.8856,4.8663,4.9586,5.0702,5.0702,5.0702,5.0702,5.0702,5.0702,5.0702,5.0702,5.0702,5.0702,5.0702,5.0702,5.0702,5.0702,5.0702,5.1068,5.2222,5.201,5.2337,5.4222,5.2606,5.1183,5.1183,5.0894,5.0702,5.0702,5.0702,5.0702,5.0702,5.0702,5.0702,5.0702,5.0702,5.0067,4.8663,4.7817,4.6817,4.5605,4.5586,4.5586,4.5586,4.5586,4.5586,4.5586,4.5586,4.5586,0.0,0.0,0.0,0.0,0.0,0.0,0.0,0.0,0.0,0.0,0.0,0.0,0.0,0.0,0.0,0.0,0.0,0.0,0.0,0.0,0.0,0.0,0.0,0.0,0.0,0.0,0.0,0.0,0.0,0.0,0.0,0.0,0.0,0.0,0.0,0.0,3.8707,3.8719,3.8855,0.0,3.9973,4.099,4.2082,4.3737,4.4549,4.4657,4.4988,4.5322,4.5586,4.5586,4.5586,4.5586,4.5586,4.5586,4.5586,4.5586,4.5586,4.5586,4.5586,4.5586,4.572,4.6528,4.7336,4.8144,4.8933,4.9779,5.0452,5.0452,5.051,5.0567,5.0567,5.0625,5.0702,5.0702,5.0702,5.0702,5.0702,5.0702,5.0702,5.0702,5.0702,5.1221,5.2914,5.3068,5.3241,5.403,5.2876,5.1875,5.1798,5.1144,5.0702,5.0702,5.0702,5.0702,5.0702,5.0702,5.0702,5.0702,5.0702,5.0298,4.9433,4.8644,4.7432,4.574,4.572,4.5682,4.5586,4.5586,4.5586,4.5586,4.5605,4.5605,0.0,0.0,0.0,0.0,0.0,0.0,0.0,0.0,0.0,0.0,0.0,0.0,0.0,0.0,0.0,0.0,0.0,0.0,0.0,0.0,0.0,0.0,0.0,0.0,0.0,0.0,0.0,0.0,0.0,0.0,0.0,0.0,0.0,0.0,0.0,3.8707,3.8707,3.8923,3.9036,0.0,4.0457,4.1214,4.1525,4.2943,4.4107,4.5011,4.5342,4.5531,4.5586,4.5586,4.5586,4.5586,4.5586,4.5586,4.5586,4.5586,4.5586,4.5586,4.5586,4.5586,4.5624,4.5817,4.6451,4.7201,4.7375,4.8009,4.8663,4.8663,4.9144,4.9683,4.9683,5.0183,5.0702,5.0702,5.0702,5.0702,5.0702,5.0702,5.0702,5.0702,5.0702,5.1221,5.2914,5.2106,5.1298,5.1491,5.1741,5.1683,5.1029,5.0798,5.0702,5.0702,5.0702,5.0702,5.0702,5.0702,5.0702,5.0702,5.0702,5.0298,4.9433,4.9221,4.8336,4.6644,4.6624,4.6278,4.5586,4.5586,4.5586,4.5586,4.5719,4.5699,0.0,0.0,0.0,0.0,0.0,0.0,0.0,0.0,0.0,0.0,0.0,0.0,0.0,0.0,0.0,0.0,0.0,0.0,0.0,0.0,0.0,0.0,0.0,0.0,0.0,0.0,0.0,0.0,0.0,0.0,0.0,0.0,0.0,0.0,3.7863,3.8524,3.812,3.8785,3.916,3.9358,4.0279,4.1227,4.22,4.3269,4.413,4.4748,4.534,4.5586,4.5586,4.5586,4.5586,4.5586,4.5586,4.5586,4.5586,4.5586,4.5586,4.5586,4.5586,4.5586,4.5586,4.5586,4.6182,4.6913,4.6913,4.7471,4.8105,4.8105,4.8432,4.8875,4.9298,4.9433,4.9663,5.0491,5.0702,5.0702,5.0702,5.0702,5.0702,5.0702,5.0702,5.1087,5.2356,5.1856,5.1279,5.1279,5.1298,5.1164,5.0741,5.0702,5.0702,5.0702,5.0702,5.0702,5.0702,5.0702,5.0702,5.0702,5.0702,5.0491,5.0029,5.001,4.9048,4.6951,4.6913,4.6471,4.5586,4.5586,4.5586,4.5586,4.568,4.568,0.0,0.0,0.0,0.0,0.0,0.0,0.0,0.0,0.0,0.0,0.0,0.0,0.0,0.0,0.0,0.0,0.0,0.0,0.0,0.0,0.0,0.0,0.0,0.0,0.0,0.0,0.0,0.0,0.0,0.0,0.0,0.0,3.5752,3.5009,3.7147,3.8058,3.7577,3.8497,3.9208,3.969,4.0003,4.1033,4.2681,4.3508,4.4028,4.4335,4.5047,4.5374,4.5374,4.5528,4.5586,4.5586,4.5586,4.5586,4.5586,4.5586,4.5586,4.5586,4.5586,4.5586,4.5586,4.5586,4.6086,4.6682,4.6682,4.7144,4.7663,4.7663,4.7778,4.8067,4.8779,4.8644,4.8682,5.0125,5.0587,5.0702,5.0702,5.0702,5.0702,5.0702,5.0798,5.1125,5.1798,5.1914,5.1914,5.1914,5.1221,5.0702,5.0702,5.0702,5.0702,5.0702,5.0702,5.0702,5.0702,5.0702,5.0702,5.0702,5.0702,5.0702,5.0702,5.0548,4.9413,4.7163,4.7105,4.6605,4.5586,4.5586,4.5586,4.5586,4.5624,4.5643,0.0,0.0,0.0,0.0,0.0,0.0,0.0,0.0,0.0,0.0,0.0,0.0,0.0,0.0,0.0,0.0,0.0,0.0,0.0,0.0,0.0,0.0,0.0,0.0,0.0,0.0,0.0,0.0,0.0,0.0,0.0,3.4688,3.5119,3.499,3.6064,3.7026,3.7854,3.8276,3.9012,4.0022,4.0302,4.0588,4.0873,4.1739,4.2931,4.4316,4.4412,4.447,4.4528,4.5278,4.5586,4.5586,4.5586,4.5586,4.5586,4.5586,4.5586,4.5586,4.5586,4.5586,4.5586,4.5586,4.5682,4.5759,4.5759,4.5836,4.5932,4.5932,4.6471,4.7086,4.7201,4.824,4.9279,4.951,5.0144,5.0702,5.0702,5.0702,5.0702,5.0702,5.126,5.1779,5.1895,5.1914,5.1914,5.1914,5.1221,5.0702,5.0702,5.0702,5.0702,5.0702,5.0702,5.0702,5.0702,5.0702,5.0702,5.0702,5.0702,5.0702,5.0702,4.9971,4.9067,4.7971,4.7952,4.7163,4.5586,4.5586,4.5586,4.5586,4.5776,4.5834,0.0,0.0,0.0,0.0,0.0,0.0,0.0,0.0,0.0,0.0,0.0,0.0,0.0,0.0,0.0,0.0,0.0,0.0,0.0,0.0,0.0,0.0,0.0,0.0,0.0,0.0,0.0,0.0,0.0,0.0,3.3807,3.4578,3.4862,3.4548,3.6258,3.7277,3.7432,3.871,3.968,4.0339,4.0438,4.0758,4.1219,4.1123,4.1739,4.2931,4.3412,4.3874,4.4335,4.4701,4.5163,4.5586,4.5586,4.5586,4.5586,4.5586,4.5586,4.5586,4.5586,4.5586,4.5586,4.5586,4.5586,4.5586,4.5586,4.5586,4.5586,4.5586,4.5874,4.6394,4.7336,4.7778,4.8355,4.9779,5.0048,5.0106,5.0587,5.0702,5.0702,5.0702,5.1356,5.1914,5.1914,5.2318,5.2645,5.2645,5.2337,5.1914,5.1433,5.1375,5.1202,5.0741,5.0702,5.0702,5.0702,5.0702,5.0702,5.0702,5.0702,5.0702,5.0702,4.9856,4.899,4.8125,4.7663,4.6817,4.5586,4.5586,4.5624,4.5719,4.5796,4.5851,0.0,0.0,0.0,0.0,0.0,0.0,0.0,0.0,0.0,0.0,0.0,0.0,0.0,0.0,0.0,0.0,0.0,0.0,0.0,0.0,0.0,0.0,0.0,0.0,0.0,0.0,0.0,0.0,0.0,0.0,3.3807,3.4376,3.4555,3.4195,3.5988,3.7066,3.7236,3.9204,4.0304,4.0489,4.0489,4.0835,4.145,4.0796,4.0854,4.1527,4.2624,4.3431,4.4028,4.4451,4.5009,4.5586,4.5586,4.5586,4.5586,4.5586,4.5586,4.5586,4.5586,4.5586,4.5586,4.5586,4.5586,4.5586,4.5586,4.5586,4.5586,4.5586,4.5586,4.5893,4.7144,4.7336,4.7682,4.9586,4.9875,4.9913,5.0548,5.0702,5.076,5.0971,5.1318,5.1741,5.2164,5.2587,5.2953,5.3164,5.301,5.2645,5.1991,5.1722,5.1375,5.076,5.0702,5.0702,5.0702,5.0702,5.0702,5.0702,5.0702,5.0702,5.0702,4.9644,4.8759,4.8105,4.7124,4.6278,4.5586,4.5643,4.5719,4.5796,4.5853,4.5901,0.0,0.0,0.0,0.0,0.0,0.0,0.0,0.0,0.0,0.0,0.0,0.0,0.0,0.0,0.0,0.0,0.0,0.0,0.0,0.0,0.0,0.0,0.0,0.0,0.0,0.0,0.0,0.0,0.0,0.0,3.3807,3.3844,3.3965,3.4176,3.433,3.5434,3.7545,3.9512,4.0489,4.0489,4.0489,4.0508,4.0566,4.0508,4.0508,4.0662,4.2354,4.3124,4.3297,4.4874,4.5547,4.5586,4.5586,4.5586,4.5586,4.5586,4.5586,4.5586,4.5586,4.5586,4.5586,4.5586,4.5586,4.5586,4.5586,4.5586,4.5586,4.5586,4.5586,4.5605,4.5701,4.6874,4.8067,4.8202,4.9452,5.0625,5.0683,5.0702,5.0933,5.1702,5.126,5.126,5.2856,5.2491,5.226,5.3087,5.251,5.1952,5.1914,5.1221,5.0741,5.0702,5.0702,5.0702,5.0702,5.0702,5.0702,5.0702,5.0702,5.0702,5.0702,4.9067,4.8144,4.8105,4.6605,4.5776,4.5586,4.5796,4.5853,4.5796,4.6007,4.6082,0.0,0.0,0.0,0.0,0.0,0.0,0.0,0.0,0.0,0.0,0.0,0.0,0.0,0.0,0.0,0.0,0.0,0.0,0.0,0.0,0.0,0.0,0.0,0.0,0.0,0.0,0.0,0.0,0.0,0.0,3.3807,3.3961,3.4213,3.4508,3.5206,3.6292,3.7843,3.8554,3.8892,3.8892,3.945,3.9719,3.9738,4.0258,4.0489,4.0566,4.1758,4.2277,4.2316,4.2912,4.3797,4.4759,4.4759,4.5105,4.5586,4.5586,4.5586,4.5586,4.5586,4.5586,4.5586,4.5586,4.5586,4.5586,4.5586,4.5586,4.5586,4.5586,4.5586,4.572,4.6297,4.6874,4.7605,4.8682,4.9413,5.001,5.0567,5.0702,5.0779,5.1068,5.1318,5.1664,5.226,5.2568,5.2837,5.3145,5.2933,5.2529,5.1972,5.1664,5.1279,5.076,5.0702,5.0702,5.0702,5.0702,5.0702,5.0702,5.0702,5.0702,5.0702,4.9029,4.8105,4.8105,4.6624,4.5815,4.5738,4.5834,4.593,4.5988,4.6065,4.6151,0.0,0.0,0.0,0.0,0.0,0.0,0.0,0.0,0.0,0.0,0.0,0.0,0.0,0.0,0.0,0.0,0.0,0.0,0.0,0.0,0.0,0.0,0.0,0.0,0.0,0.0,0.0,0.0,0.0,0.0,3.3807,3.4068,3.4383,3.4813,3.5867,3.6795,3.7565,3.7853,3.8007,3.8007,3.8873,3.9296,3.9315,4.0123,4.0489,4.0527,4.1104,4.1527,4.1816,4.2124,4.3047,4.4297,4.4297,4.4836,4.5586,4.5586,4.5586,4.5586,4.5586,4.5586,4.5586,4.5586,4.5586,4.5586,4.5586,4.5586,4.5586,4.5586,4.5586,4.572,4.6317,4.6874,4.7663,4.9067,4.9625,4.999,5.0567,5.0702,5.0779,5.1048,5.1318,5.1587,5.1856,5.2395,5.276,5.276,5.276,5.2549,5.1972,5.1664,5.1298,5.076,5.0702,5.0702,5.0702,5.0702,5.0702,5.0702,5.0702,5.0567,5.0279,4.8913,4.8029,4.7702,4.6565,4.5921,4.5829,4.6265,4.6487,4.6525,4.6881,4.7085,0.0,0.0,0.0,0.0,0.0,0.0,0.0,0.0,0.0,0.0,0.0,0.0,0.0,0.0,0.0,0.0,0.0,0.0,0.0,0.0,0.0,0.0,0.0,0.0,0.0,0.0,0.0,0.0,0.0,3.377,3.3797,3.4074,3.4492,3.5105,3.6117,3.6661,3.6661,3.7507,3.793,3.793,3.8834,3.9258,3.9277,4.0123,4.0489,4.0489,4.0489,4.0969,4.1835,4.2662,4.3508,4.422,4.422,4.4759,4.5547,4.5547,4.5566,4.5586,4.5586,4.5586,4.5586,4.5586,4.5586,4.5586,4.5586,4.5586,4.5586,4.5586,4.5586,4.5586,4.5586,4.6817,4.8259,4.9125,4.999,5.0625,5.0644,5.0664,5.0933,5.1722,5.1221,5.0952,5.1741,5.1875,5.1875,5.1875,5.1875,5.1875,5.1875,5.1183,5.0702,5.0702,5.0702,5.0702,5.0702,5.0702,5.0702,5.0702,5.0702,5.0317,4.9471,4.8702,4.7856,4.6951,4.6392,4.6023,4.5899,4.7052,4.7538,4.7439,4.8435,4.8906,2.3927,0.0,0.0,0.0,0.0,0.0,0.0,0.0,0.0,0.0,0.0,0.0,0.0,0.0,0.0,0.0,0.0,0.0,0.0,0.0,0.0,0.0,0.0,0.0,0.0,0.0,0.0,0.0,3.2596,3.3011,3.3221,3.4254,3.5034,3.5383,3.5691,3.5834,3.5834,3.6084,3.6199,3.6219,3.7661,3.8354,3.8411,3.9854,4.0489,4.0489,4.0489,4.0642,4.0873,4.1123,4.172,4.2489,4.2489,4.3374,4.4662,4.4662,4.5047,4.5586,4.5586,4.5586,4.5586,4.5586,4.5586,4.5586,4.5586,4.5586,4.5586,4.5586,4.5586,4.5586,4.5586,4.5932,4.6509,4.7375,4.8221,4.899,4.9625,5.024,5.076,5.0991,5.0837,5.076,5.0991,5.1029,5.1029,5.1029,5.1029,5.1029,5.1029,5.0837,5.0702,5.0702,5.0702,5.0702,5.0702,5.0702,5.0702,5.0702,5.0702,5.0587,5.0337,4.8933,4.8029,4.7778,4.6584,4.5945,4.5899,4.7047,4.7587,4.7567,4.8471,4.8906,0.0,0.0,0.0,0.0,0.0,0.0,0.0,0.0,0.0,0.0,0.0,0.0,0.0,0.0,0.0,0.0,0.0,0.0,0.0,0.0,0.0,0.0,0.0,0.0,0.0,0.0,0.0,0.0,3.2244,3.3106,3.384,3.466,3.5223,3.5493,3.5493,3.5493,3.5493,3.5493,3.5493,3.5526,3.6834,3.7642,3.8046,3.9392,4.0181,4.0489,4.0489,4.0489,4.0489,4.0489,4.1219,4.2335,4.2335,4.3143,4.4335,4.4701,4.4932,4.5105,4.547,4.5586,4.5586,4.5586,4.5586,4.5586,4.5586,4.5586,4.5586,4.5586,4.5586,4.5586,4.5586,4.5874,4.6278,4.6778,4.7509,4.824,4.8759,4.926,4.9817,5.0548,5.0702,5.0702,5.0702,5.0702,5.0702,5.0702,5.0702,5.0702,5.0702,5.0702,5.0702,5.0702,5.0702,5.0702,5.0702,5.0702,5.0702,5.0702,5.0702,5.0529,5.0164,4.924,4.8529,4.8105,4.743,4.7262,4.7699,4.7631,4.7793,4.8164,4.9375,4.9766,0.0,0.0,0.0,0.0,0.0,0.0,2.4227,2.419,2.419,0.0,0.0,0.0,0.0,0.0,0.0,0.0,0.0,0.0,0.0,0.0,0.0,0.0,0.0,0.0,0.0,0.0,3.0708,3.1175,3.2195,3.3443,3.4878,3.4969,3.5143,3.5493,3.5493,3.5493,3.5493,3.5493,3.5493,3.5512,3.6334,3.7161,3.8027,3.8892,3.9738,4.0489,4.0489,4.0489,4.0489,4.0489,4.147,4.297,4.297,4.3451,4.4259,4.5143,4.497,4.4412,4.5297,4.5586,4.5586,4.5586,4.5586,4.5586,4.5586,4.5586,4.5586,4.5586,4.5586,4.5586,4.5586,4.6163,4.6759,4.6759,4.7375,4.7971,4.7971,4.8048,4.8567,5.0106,5.0491,5.0587,5.0664,5.0702,5.0702,5.0702,5.0702,5.0702,5.0702,5.0702,5.0702,5.0702,5.0702,5.0702,5.0702,5.0702,5.0702,5.0702,5.0702,5.0337,4.9586,4.9567,4.9164,4.8279,4.8563,4.9101,4.9902,4.8555,4.832,4.9219,5.0703,5.1016,0.0,0.0,0.0,0.0,0.0,0.0,2.4247,2.419,2.419,0.0,0.0,0.0,0.0,0.0,0.0,0.0,0.0,0.0,0.0,0.0,0.0,0.0,0.0,0.0,0.0,0.0,2.9907,3.002,3.103,3.2355,3.398,3.4251,3.4716,3.5474,3.5493,3.5493,3.5493,3.5493,3.5493,3.5512,3.6334,3.7161,3.8027,3.8892,3.9738,4.0489,4.0489,4.0489,4.0489,4.0489,4.1104,4.2047,4.2047,4.2585,4.3431,4.4239,4.4451,4.4412,4.5297,4.5586,4.5586,4.5586,4.5586,4.5586,4.5586,4.5586,4.5586,4.5586,4.5586,4.5586,4.5586,4.572,4.5855,4.5855,4.6509,4.7144,4.7144,4.7644,4.8202,4.8548,4.9163,4.9875,5.0567,5.0702,5.0702,5.0702,5.0702,5.0702,5.0702,5.0702,5.0702,5.0702,5.0702,5.0702,5.0702,5.0702,5.0702,5.0702,5.0702,5.0606,5.0452,4.9798,4.9394,4.9317,4.891,4.8499,4.8105,4.918,5.0117,5.0918,5.125,5.1328,0.0,0.0,0.0,2.4559,0.0,0.0,0.0,2.4339,2.4486,0.0,0.0,0.0,0.0,0.0,0.0,0.0,0.0,0.0,0.0,0.0,0.0,0.0,0.0,0.0,0.0,0.0,2.9394,3.0279,3.0934,3.1889,3.3278,3.389,3.4391,3.4834,3.5276,3.5493,3.5493,3.5493,3.5493,3.5493,3.5911,3.6546,3.7373,3.7796,3.87,3.9892,3.9892,4.0123,4.0489,4.0489,4.1008,4.1797,4.1797,4.2066,4.2547,4.3393,4.3431,4.3239,4.4509,4.4951,4.5009,4.5451,4.5586,4.5586,4.5586,4.5586,4.5586,4.5586,4.5586,4.5586,4.5586,4.5586,4.5586,4.5586,4.5932,4.624,4.624,4.6567,4.6971,4.7432,4.7855,4.8567,4.9817,5.0048,5.0202,5.0625,5.0702,5.0702,5.0702,5.0702,5.0702,5.0702,5.0702,5.0702,5.0702,5.0702,5.0702,5.0702,5.076,5.0818,5.0818,5.0452,5.0298,5.0394,5.0105,4.9795,4.9492,5.0371,5.0137,4.8906,5.0605,5.0957,0.0,0.0,0.0,0.0,0.0,2.4561,0.0,0.0,0.0,2.5731,0.0,0.0,0.0,0.0,0.0,0.0,0.0,0.0,0.0,0.0,0.0,0.0,0.0,0.0,0.0,0.0,2.9172,3.0688,3.1016,3.1574,3.2609,3.3333,3.3795,3.393,3.4641,3.5007,3.5007,3.518,3.5257,3.5257,3.543,3.593,3.6699,3.6699,3.7642,3.9296,3.9296,3.9662,4.0277,4.0431,4.0816,4.1354,4.1681,4.1797,4.1912,4.2777,4.2547,4.2027,4.3547,4.4066,4.4201,4.5066,4.5451,4.5586,4.5586,4.5586,4.5586,4.5586,4.5586,4.5586,4.5586,4.5586,4.5586,4.5586,4.5586,4.5586,4.5586,4.5586,4.5797,4.6509,4.6644,4.724,4.9086,4.926,4.9452,5.0317,5.0452,5.0452,5.0452,5.0587,5.0702,5.0702,5.0702,5.0702,5.0702,5.0702,5.0702,5.0741,5.0856,5.0914,5.0947,5.1067,5.1145,5.1203,5.123,5.1122,5.0918,5.123,4.998,4.7344,5.0117,5.0664,0.0,0.0,0.0,0.0,2.485,0.0,0.0,0.0,2.4717,2.5568,0.0,0.0,0.0,0.0,0.0,0.0,0.0,0.0,0.0,0.0,0.0,0.0,0.0,0.0,0.0,0.0,0.0,3.006,3.0362,3.0886,3.1795,3.1929,3.2314,3.3026,3.3141,3.3199,3.3199,3.3949,3.4353,3.4353,3.5141,3.593,3.6699,3.6699,3.7642,3.9296,3.9296,3.9354,3.9488,4.02,4.0142,3.9719,4.1219,4.1797,4.1912,4.2777,4.2547,4.195,4.2893,4.3239,4.3374,4.4182,4.497,4.5586,4.5586,4.5586,4.5586,4.5586,4.5586,4.5586,4.5586,4.5586,4.5586,4.5586,4.5586,4.5586,4.5586,4.5586,4.5624,4.572,4.574,4.6528,4.8971,4.8759,4.8548,4.9413,4.9548,4.9548,4.9548,5.0221,5.0702,5.0702,5.0702,5.0702,5.0702,5.0702,5.0741,5.0875,5.0895,5.0941,5.107,5.1148,5.1183,5.1203,5.1312,5.066,4.9199,5.0683,5.1191,5.082,5.1211,5.1308,0.0,0.0,0.0,0.0,0.0,0.0,0.0,0.0,2.6569,0.0,0.0,0.0,0.0,0.0,0.0,0.0,0.0,0.0,0.0,0.0,0.0,0.0,0.0,0.0,0.0,0.0,0.0,0.0,0.0,3.0352,3.0198,3.1141,3.1852,3.2199,3.266,3.3141,3.3641,3.4007,3.4449,3.4968,3.5334,3.568,3.6007,3.6007,3.693,3.8527,3.8007,3.8623,3.9988,3.9854,3.9873,4.0065,4.0758,4.1046,4.1085,4.145,4.1354,4.1162,4.2047,4.2354,4.2566,4.3874,4.4547,4.4932,4.5451,4.5586,4.5586,4.5586,4.5586,4.5586,4.5586,4.5586,4.5586,4.5586,4.5586,4.5586,4.5586,4.5586,4.5586,4.5586,4.5586,4.6086,4.7682,4.7644,4.7855,4.9202,4.8971,4.8836,4.9336,4.9721,5.0144,5.0644,5.0702,5.0702,5.0702,5.0702,5.076,5.0895,5.101,5.1126,5.1264,5.1297,5.1331,5.1331,5.0903,5.0351,4.9668,5.0351,5.0703,5.0703,5.0703,5.043,2.637,0.0,0.0,0.0,0.0,0.0,0.0,0.0,0.0,0.0,0.0,0.0,0.0,0.0,0.0,0.0,0.0,0.0,0.0,0.0,0.0,0.0,0.0,0.0,0.0,0.0,0.0,0.0,2.9953,0.0,2.914,3.0525,3.1352,3.1352,3.191,3.2622,3.3506,3.3718,3.4276,3.5161,3.5391,3.5493,3.5493,3.5493,3.6276,3.7603,3.6969,3.7873,3.9777,3.9431,3.9642,4.0181,4.0412,4.0489,4.0489,4.0489,4.0489,4.0585,4.1219,4.1604,4.2047,4.3508,4.4124,4.4451,4.5336,4.5586,4.5586,4.5586,4.5586,4.5586,4.5586,4.5586,4.5586,4.5586,4.5586,4.5586,4.5586,4.5586,4.5586,4.5586,4.5586,4.5874,4.6759,4.6701,4.7048,4.8509,4.8182,4.8009,4.8625,4.8913,4.9375,5.024,5.0125,5.0067,5.0317,5.0106,5.0163,5.0557,5.1014,5.1308,5.1406,5.1191,5.1172,5.1406,5.0371,4.9844,4.9844,5.0078,4.9941,4.9492,5.0195,5.0195,0.0,0.0,0.0,0.0,0.0,0.0,0.0,0.0,2.7828,0.0,0.0,0.0,0.0,0.0,0.0,0.0,0.0,0.0,0.0,0.0,0.0,0.0,0.0,0.0,0.0,0.0,0.0,3.0283,3.0379,0.0,2.914,2.9948,3.0436,3.0436,3.0456,3.091,3.1775,3.2545,3.3372,3.4237,3.5103,3.5493,3.5493,3.5493,3.5949,3.6738,3.6719,3.7238,3.8142,3.895,3.9315,3.9411,4.02,4.0489,4.0489,4.0489,4.0489,4.0489,4.0527,4.1085,4.195,4.2854,4.3662,4.4451,4.5336,4.5586,4.5586,4.5586,4.5586,4.5586,4.5586,4.5586,4.5586,4.5586,4.5586,4.5586,4.5586,4.5586,4.5586,4.5586,4.5586,4.5874,4.6759,4.6201,4.5951,4.6855,4.6971,4.6951,4.699,4.7663,4.849,4.9356,4.8682,4.8529,4.9375,4.8663,4.8662,4.977,5.0824,5.1406,5.1406,5.0644,5.0605,5.1387,4.9785,4.8945,4.8945,4.9785,4.9336,4.7734,5.0215,5.1348,0.0,0.0,2.6524,2.6236,0.0,0.0,0.0,0.0,0.0,0.0,0.0,0.0,0.0,0.0,0.0,0.0,0.0,0.0,0.0,0.0,0.0,0.0,0.0,0.0,0.0,0.0,0.0,2.8517,2.8556,2.8332,0.0,2.8796,2.9857,3.0953,3.1175,3.1929,3.3333,3.3622,3.4199,3.5064,3.5372,3.5493,3.5493,3.5493,3.5949,3.6699,3.6699,3.7526,3.8873,3.9181,3.9604,4.0123,4.0392,4.0489,4.0489,4.0489,4.0489,4.0489,4.0489,4.0681,4.1181,4.2624,4.3278,4.3778,4.5163,4.5586,4.5586,4.5586,4.5586,4.5586,4.5586,4.5586,4.5586,4.5586,4.5586,4.5586,4.5586,4.5586,4.5586,4.5586,4.5586,4.5682,4.599,4.5797,4.5893,4.6778,4.6413,4.624,4.6836,4.7144,4.7625,4.8452,4.8279,4.8452,4.9336,4.9817,5.024,5.0646,5.1125,5.1406,5.1406,5.1133,5.0879,5.0605,4.9473,4.8906,4.8906,4.9199,4.9336,4.9355,5.0742,5.1113,2.639,2.6794,0.0,2.6755,2.7852,0.0,2.9102,0.0,0.0,0.0,0.0,0.0,0.0,0.0,0.0,0.0,0.0,0.0,0.0,0.0,0.0,0.0,0.0,0.0,0.0,0.0,2.827,2.7942,2.8264,2.8208,0.0,0.0,2.9856,3.1268,3.1552,3.2506,3.418,3.4199,3.4641,3.5493,3.5493,3.5661,3.593,3.593,3.6392,3.7161,3.7161,3.7988,3.9296,3.9296,3.9758,4.0489,4.0489,4.0489,4.0489,4.0489,4.0489,4.0527,4.0854,4.0758,4.0777,4.2527,4.3104,4.3412,4.5086,4.5586,4.5586,4.5586,4.5586,4.5586,4.5586,4.5586,4.5586,4.5586,4.5586,4.5586,4.5586,4.5586,4.5586,4.5586,4.5586,4.5586,4.5586,4.5586,4.5778,4.6355,4.5951,4.5797,4.6374,4.6432,4.6759,4.7586,4.7394,4.7567,4.8432,4.9817,5.0642,5.0636,5.1128,5.1406,5.1406,5.1133,5.1016,5.1094,4.9648,4.9199,4.9785,4.9492,4.9648,5.0215,5.1035,5.1113]},{"header":{"parameterUnit":"m.s-1","parameterCategory":1,"la1":30.6,"la2":29.2853,"lo1":-89.7004,"lo2":-87.6739,"dx":0.0162,"dy":0.0183,"nx":112,"ny":82,"refTime":"2023-02-12T06:00:00:Z","depth":0,"parameterNumber":3,"parameterNumberName":"V-component_of_WINDS"},"data":[0.0,0.0,0.0,0.0,0.0,0.0,0.0,0.0,0.0,0.0,0.0,0.0,0.0,0.0,0.0,0.0,0.0,0.0,0.0,0.0,0.0,0.0,0.0,0.0,0.0,0.0,0.0,0.0,0.0,0.0,0.0,0.0,0.0,0.0,0.0,0.0,0.0,0.0,0.0,0.0,0.0,0.0,0.0,0.0,0.0,0.0,0.0,0.0,0.0,0.0,0.0,0.0,0.0,0.0,0.0,0.0,0.0,0.0,0.0,0.0,0.0,0.0,0.0,0.0,0.0,0.0,0.0,0.0,0.0,0.0,0.0,0.0,0.0,0.0,0.0,0.0,0.0,0.0,0.0,0.0,0.0,0.0,0.0,0.0,0.0,0.0,0.0,0.0,0.0,0.0,0.0,-1.4955,-1.5591,-1.5517,-1.4424,-1.3298,-1.2634,-1.2422,0.0,0.0,0.0,0.0,0.0,0.0,0.0,0.0,0.0,0.0,0.0,0.0,0.0,0.0,0.0,0.0,0.0,0.0,0.0,0.0,0.0,0.0,0.0,0.0,0.0,0.0,0.0,0.0,0.0,0.0,0.0,0.0,0.0,0.0,0.0,0.0,0.0,0.0,0.0,0.0,0.0,0.0,0.0,0.0,0.0,0.0,0.0,0.0,0.0,0.0,0.0,0.0,0.0,0.0,0.0,0.0,0.0,0.0,0.0,0.0,0.0,0.0,0.0,0.0,0.0,0.0,0.0,0.0,0.0,0.0,0.0,0.0,0.0,0.0,0.0,0.0,0.0,0.0,0.0,0.0,0.0,0.0,0.0,0.0,0.0,0.0,0.0,0.0,0.0,0.0,0.0,0.0,0.0,0.0,0.0,0.0,0.0,0.0,0.0,0.0,0.0,0.0,0.0,0.0,-1.596,-1.5222,-1.5641,-1.5774,-1.5271,-1.3877,-1.2793,-1.2185,0.0,0.0,0.0,0.0,0.0,0.0,0.0,0.0,0.0,0.0,0.0,0.0,0.0,0.0,0.0,0.0,0.0,0.0,0.0,0.0,0.0,0.0,0.0,0.0,0.0,0.0,0.0,0.0,0.0,0.0,0.0,0.0,0.0,0.0,0.0,0.0,0.0,0.0,0.0,0.0,0.0,0.0,0.0,0.0,0.0,0.0,0.0,0.0,0.0,0.0,0.0,0.0,0.0,0.0,0.0,0.0,0.0,0.0,0.0,0.0,0.0,0.0,0.0,0.0,0.0,0.0,0.0,0.0,0.0,0.0,0.0,0.0,0.0,0.0,0.0,0.0,0.0,0.0,0.0,0.0,0.0,0.0,0.0,0.0,0.0,0.0,0.0,0.0,0.0,0.0,0.0,0.0,0.0,0.0,0.0,0.0,0.0,0.0,0.0,0.0,0.0,0.0,0.0,-1.6517,-1.5455,-1.4968,-1.5326,-1.53,-1.4444,-1.3364,-1.2823,-1.2876,-1.206,0.0,0.0,0.0,0.0,0.0,0.0,0.0,0.0,0.0,0.0,0.0,0.0,0.0,0.0,0.0,0.0,0.0,0.0,0.0,0.0,0.0,0.0,0.0,0.0,0.0,0.0,0.0,0.0,0.0,0.0,0.0,0.0,0.0,0.0,0.0,0.0,0.0,0.0,0.0,0.0,0.0,0.0,0.0,0.0,0.0,0.0,0.0,0.0,0.0,0.0,0.0,0.0,0.0,0.0,0.0,0.0,0.0,0.0,0.0,0.0,0.0,0.0,0.0,0.0,0.0,0.0,0.0,0.0,0.0,0.0,0.0,0.0,0.0,0.0,0.0,0.0,0.0,0.0,0.0,0.0,0.0,0.0,0.0,0.0,0.0,0.0,0.0,0.0,0.0,0.0,0.0,0.0,0.0,0.0,0.0,0.0,0.0,0.0,0.0,0.0,0.0,0.0,-1.6271,-1.5069,-1.5015,-1.5174,-1.4881,-1.3893,-1.3063,-1.2716,-1.3016,-1.2009,0.0,0.0,0.0,0.0,0.0,0.0,0.0,0.0,0.0,0.0,0.0,0.0,0.0,0.0,0.0,0.0,0.0,0.0,0.0,0.0,0.0,0.0,0.0,0.0,0.0,0.0,0.0,0.0,0.0,0.0,0.0,0.0,0.0,0.0,0.0,0.0,0.0,0.0,0.0,0.0,0.0,0.0,0.0,0.0,0.0,0.0,0.0,0.0,0.0,0.0,0.0,0.0,0.0,0.0,0.0,0.0,0.0,0.0,0.0,0.0,0.0,0.0,0.0,0.0,0.0,0.0,0.0,0.0,0.0,0.0,0.0,0.0,0.0,0.0,0.0,0.0,0.0,0.0,0.0,0.0,0.0,0.0,0.0,0.0,0.0,0.0,0.0,0.0,0.0,0.0,0.0,0.0,0.0,0.0,0.0,0.0,0.0,0.0,0.0,0.0,0.0,0.0,-1.6353,-1.5709,-1.5908,-1.5526,-1.515,-1.4729,-1.3603,-1.252,-1.1711,-1.0806,0.0,0.0,0.0,0.0,0.0,0.0,0.0,0.0,0.0,0.0,0.0,0.0,0.0,0.0,0.0,0.0,0.0,0.0,0.0,0.0,0.0,0.0,0.0,0.0,0.0,0.0,0.0,0.0,0.0,0.0,0.0,0.0,0.0,0.0,0.0,0.0,0.0,0.0,0.0,0.0,0.0,0.0,0.0,0.0,0.0,0.0,0.0,0.0,0.0,0.0,0.0,0.0,0.0,0.0,0.0,0.0,0.0,0.0,0.0,0.0,0.0,0.0,0.0,0.0,0.0,0.0,0.0,0.0,0.0,0.0,0.0,0.0,0.0,0.0,0.0,0.0,0.0,0.0,0.0,0.0,0.0,0.0,0.0,0.0,0.0,0.0,0.0,0.0,0.0,0.0,0.0,0.0,0.0,0.0,0.0,0.0,0.0,0.0,0.0,0.0,0.0,0.0,-1.6965,-1.6337,0.0,-1.5311,-1.4925,-1.3738,-1.2767,-1.2045,-1.1727,0.0,0.0,0.0,0.0,0.0,0.0,0.0,0.0,0.0,0.0,0.0,0.0,0.0,0.0,0.0,0.0,0.0,0.0,0.0,0.0,0.0,0.0,0.0,0.0,0.0,0.0,0.0,0.0,0.0,0.0,0.0,0.0,0.0,0.0,0.0,0.0,0.0,0.0,0.0,0.0,0.0,0.0,0.0,0.0,0.0,0.0,0.0,0.0,0.0,0.0,0.0,0.0,0.0,0.0,0.0,0.0,0.0,0.0,0.0,0.0,0.0,0.0,0.0,0.0,0.0,0.0,0.0,0.0,0.0,0.0,0.0,0.0,0.0,0.0,0.0,0.0,0.0,0.0,0.0,0.0,0.0,0.0,0.0,0.0,0.0,0.0,0.0,0.0,0.0,0.0,0.0,0.0,0.0,0.0,0.0,0.0,0.0,0.0,0.0,0.0,0.0,0.0,-1.7034,-1.7043,-1.652,0.0,-1.5034,-1.458,-1.3195,-1.2199,-1.1581,-1.1507,0.0,0.0,0.0,0.0,0.0,0.0,0.0,0.0,0.0,0.0,0.0,0.0,0.0,0.0,0.0,0.0,0.0,0.0,0.0,0.0,0.0,0.0,0.0,0.0,0.0,0.0,0.0,0.0,0.0,0.0,0.0,0.0,0.0,0.0,0.0,0.0,0.0,0.0,0.0,0.0,0.0,0.0,0.0,0.0,0.0,0.0,0.0,0.0,0.0,0.0,0.0,0.0,0.0,0.0,0.0,0.0,0.0,0.0,0.0,0.0,0.0,0.0,0.0,0.0,0.0,0.0,0.0,0.0,0.0,0.0,0.0,0.0,0.0,0.0,0.0,0.0,0.0,0.0,0.0,0.0,0.0,0.0,0.0,0.0,0.0,0.0,0.0,0.0,0.0,0.0,0.0,0.0,0.0,0.0,0.0,0.0,0.0,0.0,0.0,0.0,0.0,0.0,-1.6522,-1.6372,-1.6032,-1.5367,-1.4735,-1.4163,-1.3547,-1.2106,-1.1064,0.0,0.0,0.0,0.0,0.0,0.0,0.0,0.0,0.0,0.0,0.0,0.0,0.0,0.0,0.0,0.0,0.0,0.0,0.0,0.0,0.0,0.0,0.0,0.0,0.0,0.0,0.0,0.0,0.0,0.0,0.0,0.0,0.0,0.0,0.0,0.0,0.0,0.0,0.0,0.0,0.0,0.0,0.0,0.0,0.0,0.0,0.0,0.0,0.0,0.0,0.0,0.0,0.0,0.0,0.0,0.0,0.0,0.0,0.0,0.0,0.0,0.0,0.0,0.0,0.0,0.0,0.0,0.0,0.0,0.0,0.0,0.0,0.0,0.0,0.0,0.0,0.0,0.0,0.0,0.0,0.0,0.0,0.0,0.0,0.0,0.0,0.0,0.0,0.0,0.0,0.0,0.0,0.0,0.0,0.0,0.0,0.0,0.0,0.0,0.0,0.0,0.0,0.0,0.0,-1.672,-1.6372,-1.5036,-1.4941,-1.4429,-1.3165,-1.1747,-1.0897,-1.0805,0.0,0.0,0.0,0.0,0.0,0.0,0.0,0.0,0.0,0.0,0.0,0.0,0.0,0.0,0.0,0.0,0.0,0.0,0.0,0.0,0.0,0.0,0.0,0.0,0.0,0.0,0.0,0.0,0.0,0.0,0.0,0.0,0.0,0.0,0.0,0.0,0.0,0.0,0.0,0.0,0.0,0.0,0.0,0.0,0.0,0.0,0.0,0.0,0.0,0.0,0.0,0.0,0.0,0.0,0.0,0.0,0.0,0.0,0.0,0.0,0.0,0.0,0.0,0.0,0.0,0.0,0.0,0.0,0.0,0.0,0.0,0.0,0.0,0.0,0.0,0.0,0.0,0.0,0.0,0.0,0.0,0.0,0.0,0.0,0.0,0.0,0.0,0.0,0.0,0.0,0.0,0.0,0.0,0.0,0.0,0.0,0.0,0.0,0.0,0.0,0.0,0.0,-1.6522,-1.6429,-1.5946,-1.4834,-1.4577,-1.4094,-1.2978,-1.1584,-1.0813,-1.0813,0.0,0.0,0.0,0.0,0.0,0.0,0.0,0.0,0.0,0.0,0.0,0.0,0.0,0.0,0.0,0.0,0.0,0.0,0.0,0.0,0.0,0.0,0.0,0.0,0.0,0.0,0.0,0.0,0.0,0.0,0.0,0.0,0.0,0.0,0.0,0.0,0.0,0.0,0.0,0.0,0.0,0.0,0.0,0.0,0.0,0.0,0.0,0.0,0.0,0.0,0.0,0.0,0.0,0.0,0.0,0.0,0.0,0.0,0.0,0.0,0.0,0.0,0.0,0.0,0.0,0.0,0.0,0.0,0.0,0.0,0.0,0.0,0.0,0.0,0.0,0.0,0.0,0.0,0.0,0.0,0.0,0.0,0.0,0.0,0.0,0.0,0.0,0.0,0.0,0.0,0.0,0.0,0.0,0.0,0.0,0.0,0.0,0.0,0.0,0.0,0.0,0.0,-1.6522,-1.5822,-1.5141,-1.4754,-1.3965,-1.334,-1.291,-1.1584,-1.0813,-1.0813,0.0,0.0,0.0,0.0,0.0,0.0,0.0,0.0,0.0,0.0,0.0,0.0,0.0,0.0,0.0,0.0,0.0,0.0,0.0,0.0,0.0,0.0,0.0,0.0,0.0,0.0,0.0,0.0,0.0,0.0,0.0,0.0,0.0,0.0,0.0,0.0,0.0,0.0,0.0,0.0,0.0,0.0,0.0,0.0,0.0,0.0,0.0,0.0,0.0,0.0,0.0,0.0,0.0,0.0,0.0,0.0,0.0,0.0,0.0,0.0,-1.1869,0.0,0.0,0.0,0.0,0.0,0.0,0.0,0.0,0.0,0.0,0.0,0.0,0.0,0.0,0.0,0.0,0.0,0.0,0.0,0.0,0.0,0.0,0.0,0.0,0.0,0.0,0.0,0.0,0.0,0.0,0.0,0.0,0.0,0.0,0.0,0.0,0.0,0.0,0.0,0.0,0.0,-1.6522,-1.5822,-1.5141,-1.4754,-1.3965,-1.334,-1.291,-1.1584,-1.0813,-1.0813,0.0,0.0,0.0,0.0,0.0,0.0,0.0,0.0,0.0,0.0,0.0,0.0,0.0,0.0,0.0,0.0,0.0,0.0,0.0,0.0,0.0,0.0,0.0,0.0,0.0,0.0,0.0,0.0,0.0,0.0,0.0,0.0,0.0,0.0,0.0,0.0,0.0,0.0,0.0,0.0,0.0,0.0,0.0,0.0,0.0,0.0,0.0,0.0,0.0,0.0,0.0,0.0,0.0,0.0,0.0,0.0,0.0,0.0,0.0,0.0,0.0,-1.218,0.0,0.0,0.0,0.0,0.0,0.0,0.0,0.0,0.0,0.0,0.0,0.0,0.0,0.0,0.0,0.0,0.0,0.0,0.0,0.0,0.0,0.0,0.0,0.0,0.0,0.0,0.0,0.0,0.0,0.0,0.0,0.0,0.0,0.0,0.0,0.0,0.0,0.0,0.0,0.0,-1.599,-1.5383,-1.4868,-1.4573,-1.3756,-1.3125,-1.29,-1.1584,-1.0813,-1.0813,-0.9562,0.0,0.0,0.0,0.0,0.0,0.0,0.0,0.0,0.0,0.0,0.0,0.0,0.0,0.0,0.0,0.0,0.0,0.0,0.0,0.0,0.0,0.0,0.0,0.0,0.0,0.0,0.0,0.0,0.0,0.0,0.0,0.0,0.0,0.0,0.0,0.0,0.0,0.0,0.0,0.0,0.0,0.0,0.0,0.0,0.0,0.0,0.0,0.0,0.0,0.0,0.0,0.0,0.0,0.0,-1.2725,-1.2656,-1.2812,-1.2686,-1.2353,-1.2422,-1.2326,-1.2209,0.0,0.0,0.0,0.0,0.0,0.0,0.0,0.0,0.0,0.0,0.0,0.0,0.0,0.0,0.0,0.0,0.0,0.0,0.0,0.0,0.0,0.0,0.0,0.0,0.0,-1.3301,-1.3096,0.0,0.0,0.0,0.0,0.0,0.0,0.0,0.0,0.0,0.0,0.0,0.0,-1.537,-1.4926,-1.4635,-1.4524,-1.361,-1.2988,-1.2988,-1.1628,-1.0813,-1.0813,-0.9562,-0.8752,0.0,0.0,0.0,0.0,0.0,0.0,0.0,0.0,0.0,0.0,0.0,0.0,0.0,0.0,0.0,0.0,0.0,0.0,0.0,0.0,0.0,0.0,0.0,0.0,0.0,0.0,0.0,0.0,0.0,0.0,0.0,0.0,-1.148,-1.1241,0.0,0.0,0.0,0.0,0.0,0.0,0.0,0.0,0.0,0.0,0.0,0.0,0.0,0.0,-1.2617,-1.2363,-1.218,-1.218,-1.2239,-1.2109,-1.1802,-1.2529,-1.2852,-1.2812,-1.3184,0.0,-1.2144,-1.164,0.0,0.0,0.0,0.0,0.0,0.0,0.0,0.0,0.0,0.0,0.0,0.0,0.0,0.0,0.0,0.0,0.0,0.0,0.0,0.0,0.0,0.0,-1.3437,-1.3496,-1.374,-1.3912,0.0,-1.3389,-1.3047,-1.3519,0.0,0.0,0.0,0.0,0.0,0.0,0.0,0.0,-1.5307,-1.4779,-1.4595,-1.4987,-1.4083,-1.3418,-1.3418,-1.1829,-1.0813,-1.0813,-0.9562,-0.8533,-0.7883,-0.7753,0.0,0.0,0.0,0.0,0.0,0.0,0.0,0.0,0.0,0.0,0.0,0.0,0.0,0.0,0.0,0.0,0.0,0.0,0.0,0.0,0.0,0.0,0.0,0.0,0.0,0.0,0.0,0.0,0.0,-1.2733,-1.2349,-1.2177,-1.2153,-1.2278,0.0,0.0,0.0,0.0,0.0,0.0,0.0,0.0,0.0,-1.219,-1.218,-1.2278,-1.251,-1.2568,-1.2715,-1.2949,-1.3143,-1.3193,-1.3018,-1.3408,-1.3584,-1.3594,-1.3779,-1.3643,-1.3231,-1.2721,-1.2234,-1.1814,0.0,0.0,0.0,0.0,0.0,-1.3232,-1.3232,0.0,0.0,0.0,0.0,0.0,0.0,0.0,0.0,0.0,0.0,0.0,0.0,0.0,0.0,-1.4834,-1.4893,-1.4922,-1.5166,-1.4736,-1.4209,0.0,-1.4108,-1.4498,-1.5144,0.0,0.0,0.0,0.0,0.0,-1.4655,-1.4707,-1.4842,-1.4942,-1.4271,-1.3857,-1.3857,-1.2183,-1.117,-1.117,-0.9664,-0.8646,-0.8321,-0.8165,-0.796,0.0,0.0,0.0,0.0,0.0,0.0,0.0,0.0,0.0,0.0,0.0,0.0,0.0,0.0,0.0,0.0,0.0,0.0,0.0,0.0,0.0,0.0,0.0,0.0,0.0,0.0,0.0,0.0,-1.3324,-1.2893,-1.2816,-1.2433,-1.2363,0.0,0.0,0.0,0.0,0.0,0.0,-1.2725,-1.2715,-1.2617,-1.2402,-1.2393,-1.25,-1.2667,-1.3037,-1.3359,-1.3672,-1.4102,-1.4297,-1.4307,-1.4414,-1.4408,-1.4463,-1.458,-1.4561,-1.4369,-1.3676,-1.2884,-1.2181,-1.2723,-1.2613,-1.2231,-1.2934,-1.3467,-1.3828,-1.3828,-1.4111,-1.4315,-1.3396,0.0,-1.3411,-1.2659,0.0,0.0,0.0,0.0,-1.4141,-1.4785,0.0,-1.5273,-1.5968,-1.5898,-1.584,-1.6162,-1.5977,-1.5459,0.0,-1.4297,-1.4365,-1.458,0.0,0.0,0.0,0.0,-1.4933,-1.4365,-1.4817,-1.5127,-1.4968,-1.4482,-1.4076,-1.3971,-1.2312,-1.125,-1.1214,-0.9771,-0.8918,-0.8918,-0.8526,-0.8357,0.0,0.0,0.0,0.0,0.0,0.0,0.0,0.0,0.0,0.0,0.0,0.0,0.0,0.0,0.0,0.0,0.0,0.0,0.0,0.0,0.0,0.0,0.0,0.0,0.0,0.0,0.0,0.0,0.0,0.0,-1.1997,-1.2105,0.0,0.0,0.0,0.0,-1.2881,-1.2881,-1.2695,-1.2239,-1.2219,-1.2441,-1.2832,-1.2842,-1.3232,-1.398,-1.4009,-1.4029,-1.4058,-1.4541,-1.4746,-1.4766,-1.5166,-1.5342,-1.5371,-1.5791,-1.5732,-1.5225,-1.371,-1.3104,-1.3023,-1.3086,-1.3077,-1.3131,-1.3796,-1.4346,-1.4717,-1.4717,-1.5,-1.5284,-1.4878,-1.425,-1.3675,-1.4145,-1.4214,0.0,0.0,-1.5312,-1.5322,-1.5371,-1.5684,-1.6076,-1.6115,-1.6377,-1.667,-1.6626,-1.668,-1.6289,0.0,-1.4746,-1.4629,-1.4238,0.0,-1.4645,-1.4199,-1.4517,-1.4838,-1.4746,-1.5155,-1.5352,-1.5381,-1.4641,-1.4064,-1.3684,-1.1866,-1.0636,-1.0384,-0.9604,-0.9163,-0.9163,-0.8565,-0.8403,-0.8749,-0.8851,0.0,0.0,0.0,0.0,0.0,0.0,0.0,0.0,0.0,0.0,0.0,0.0,0.0,0.0,0.0,0.0,0.0,0.0,0.0,0.0,0.0,0.0,0.0,0.0,0.0,0.0,0.0,0.0,-1.3059,-1.26,0.0,0.0,-1.3037,-1.3281,-1.3281,-1.3535,-1.3623,-1.3416,-1.3406,-1.3525,-1.3682,-1.3691,-1.3965,-1.4551,-1.4551,-1.4687,-1.4961,-1.5117,-1.5332,-1.5664,-1.5762,-1.5986,-1.6269,-1.6426,-1.6406,-1.6179,-1.5616,-1.5107,-1.4601,-1.4601,-1.4601,-1.4611,-1.4838,-1.5234,-1.5664,-1.5664,-1.5898,-1.6179,-1.5789,-1.5247,-1.4814,-1.498,-1.4991,-1.5107,-1.5683,-1.583,-1.5967,-1.6533,-1.6797,-1.6982,-1.7256,-1.7646,-1.7881,-1.7617,-1.7764,-1.7656,-1.665,-1.5996,-1.5557,-1.54,-1.5273,-1.5234,-1.5352,-1.5508,-1.5664,-1.5664,-1.5996,-1.626,-1.626,-1.5317,-1.4599,-1.4463,-1.236,-1.0965,-1.0692,-0.9778,-0.9183,-0.9183,-0.9193,-0.9291,-0.9608,-0.8777,-0.8609,0.0,0.0,0.0,0.0,0.0,0.0,0.0,0.0,0.0,0.0,0.0,0.0,0.0,0.0,0.0,0.0,0.0,0.0,0.0,0.0,0.0,0.0,0.0,0.0,0.0,0.0,-1.3363,-1.3926,-1.3319,-1.2939,-1.3271,-1.3555,-1.3721,-1.3721,-1.3975,-1.4077,-1.4077,-1.4077,-1.4145,-1.4346,-1.4355,-1.4561,-1.499,-1.5146,-1.5352,-1.5635,-1.5781,-1.6084,-1.6504,-1.6357,-1.6533,-1.6953,-1.6953,-1.6953,-1.6963,-1.7109,-1.6816,-1.626,-1.5967,-1.5947,-1.6074,-1.6074,-1.6436,-1.6953,-1.71,-1.7344,-1.7549,-1.7246,-1.6855,-1.6504,-1.6504,-1.6299,-1.6162,-1.6602,-1.6719,-1.6885,-1.7617,-1.7639,-1.7605,-1.7872,-1.7844,-1.7659,-1.7392,-1.7548,-1.7576,-1.7051,-1.6721,-1.6478,-1.6174,-1.5947,-1.5957,-1.625,-1.6289,-1.6338,-1.6547,-1.6768,-1.6757,-1.6275,-1.5414,-1.4571,-1.4059,-1.2328,-1.1121,-1.0646,-1.0017,-0.9639,-0.9482,-0.982,-1.0114,-1.0408,-0.925,-0.8915,-0.952,0.0,0.0,0.0,0.0,0.0,0.0,0.0,0.0,0.0,0.0,0.0,0.0,0.0,0.0,0.0,0.0,0.0,0.0,0.0,0.0,0.0,0.0,0.0,-1.3871,-1.4262,-1.438,-1.4411,-1.4232,-1.4097,-1.4097,-1.4116,-1.4126,-1.4136,-1.4126,-1.4136,-1.4165,-1.4145,-1.4394,-1.4834,-1.4844,-1.5039,-1.5449,-1.5869,-1.6145,-1.6154,-1.6523,-1.6963,-1.7373,-1.6943,-1.6992,-1.7402,-1.7402,-1.7412,-1.7451,-1.7861,-1.8037,-1.7901,-1.7054,-1.7051,-1.7422,-1.7432,-1.7959,-1.8721,-1.9141,-1.9287,-1.9287,-1.9287,-1.9004,-1.8592,-1.8582,-1.8018,-1.7529,-1.793,-1.8047,-1.8076,-1.8475,-1.808,-1.7635,-1.7644,-1.6791,-1.6016,-1.6016,-1.6016,-1.6016,-1.6,-1.6758,-1.7103,-1.6247,-1.6461,-1.6743,-1.6679,-1.667,0.0,-1.7298,-1.7346,-1.6825,-1.542,-1.4899,-1.4009,-1.2355,-1.1727,-1.1056,-1.0187,-1.0394,-1.0414,-1.0127,-1.0394,-1.0681,-1.0903,-1.022,-0.9863,-0.9794,0.0,0.0,0.0,0.0,0.0,0.0,0.0,0.0,0.0,0.0,0.0,0.0,0.0,0.0,0.0,0.0,0.0,0.0,0.0,0.0,0.0,0.0,-1.3292,-1.4206,-1.3741,-1.3511,-1.4128,-1.4444,-1.4609,-1.4609,-1.4883,-1.5195,-1.5508,-1.5234,-1.5342,-1.5926,-1.5713,-1.5732,-1.6182,-1.6201,-1.625,-1.6367,-1.6484,-1.6553,-1.6553,-1.667,-1.6963,-1.7383,-1.7256,-1.7082,-1.6834,-1.7552,-1.7588,-1.7306,-1.8129,-1.8209,-1.7779,-1.7973,-1.8193,-1.833,-1.8652,-1.8916,-1.9131,-1.9248,-1.9287,-1.9287,-1.9287,-1.868,-1.8064,-1.8885,-1.8432,-1.7831,-1.8682,-1.8351,-1.7779,-1.7889,-1.723,-1.6531,-1.6798,-1.6624,-1.6468,-1.639,-1.6468,-1.6387,-1.6049,-1.6213,-1.631,-1.6096,-1.6821,-1.7126,-1.6297,0.0,0.0,-1.6111,-1.5956,-1.5713,-1.5513,-1.4617,-1.3813,-1.3349,-1.2096,-1.1142,0.0,-1.0314,-1.02,-1.012,-1.0194,-0.98,-0.8837,-0.874,-0.8386,0.0,0.0,0.0,0.0,0.0,0.0,0.0,0.0,0.0,0.0,0.0,0.0,0.0,0.0,0.0,0.0,0.0,0.0,0.0,0.0,0.0,0.0,-1.3037,-1.3639,-1.4649,-1.4337,-1.4121,-1.4609,-1.5225,-1.5596,-1.5596,-1.5654,-1.5791,-1.6105,-1.583,-1.5908,-1.6426,-1.6387,-1.6465,-1.6665,-1.6665,-1.6665,-1.6665,-1.6914,-1.7002,-1.7002,-1.7178,-1.7225,-1.7201,-1.709,-1.6826,0.0,-1.6821,-1.7125,-1.7433,-1.8024,-1.8018,0.0,0.0,0.0,0.0,0.0,-1.9824,-1.9824,-1.9824,-1.9514,-1.9156,-1.9325,-1.8561,-1.7786,-1.9136,-1.8484,-1.7541,-1.8963,-1.8398,-1.7458,-1.7613,-1.6957,-1.6304,-1.6507,-1.6231,-1.5997,-1.5914,-1.5906,-1.5937,-1.5658,0.0,0.0,-1.5621,-1.6337,-1.6826,-1.6357,-1.5994,-1.5822,0.0,-1.5626,-1.5308,-1.5217,-1.4309,-1.3528,-1.3171,-1.2155,0.0,0.0,0.0,-1.0541,-1.0661,-1.0548,0.0,0.0,0.0,-0.8964,0.0,0.0,0.0,0.0,-1.1204,-1.1833,0.0,0.0,0.0,0.0,0.0,0.0,0.0,0.0,0.0,0.0,0.0,0.0,0.0,0.0,0.0,0.0,-1.334,-1.3711,-1.5264,-1.5566,-1.5615,-1.5566,-1.6299,-1.6787,-1.6738,-1.6367,-1.6223,-1.6262,-1.6184,-1.6184,-1.6341,0.0,0.0,0.0,0.0,-1.6875,-1.6875,-1.7266,-1.7385,-1.7319,-1.7668,-1.7488,-1.6802,-1.6625,-1.6272,-1.5831,-1.5666,-1.6345,-1.7464,-1.7539,-1.7641,-1.776,-1.8666,-1.8741,-1.8401,-1.9759,-2.0391,0.0,0.0,0.0,0.0,-1.9407,-1.8456,-1.7573,-1.9234,-1.83,-1.7015,-1.8745,-1.8201,-1.7121,-1.7443,-1.6985,-1.6426,-1.6463,-1.5672,-1.497,-1.501,-1.4983,-1.4963,-1.4963,-1.5739,-1.608,-1.5136,-1.5523,-1.6137,-1.6373,-1.6006,0.0,-1.626,-1.5723,-1.5083,-1.4513,0.0,0.0,-1.2479,-1.2138,-1.1717,-1.1129,-1.1062,-1.1156,-1.1416,-1.1176,-1.1341,-1.2038,-1.0948,-1.0513,-1.0816,-1.0771,-1.0858,-1.1001,-1.1333,-1.1663,0.0,0.0,0.0,0.0,0.0,0.0,0.0,0.0,0.0,0.0,0.0,0.0,0.0,0.0,0.0,-1.3873,-1.4531,-1.5156,-1.584,-1.6553,-1.6875,-1.6523,-1.6934,-1.7119,-1.6768,-1.665,-1.6748,-1.71,-1.6527,-1.6523,-1.7578,-1.7393,0.0,-1.7754,-1.7764,-1.7764,-1.7764,-1.7852,-1.7523,-1.6743,0.0,0.0,-1.5855,-1.6063,-1.5651,-1.4941,-1.5631,-1.5883,-1.5826,-1.6596,-1.7091,-1.7368,-1.7456,-1.7489,-1.7518,-1.8133,-1.8936,-1.9751,-1.9751,-1.9798,-1.982,-1.9901,-1.8421,-1.6944,-1.8194,-1.7666,0.0,-1.8096,-1.7572,-1.6677,-1.6745,-1.6037,-1.5369,-1.5609,-1.5312,-1.503,-1.5264,-1.513,-1.4963,-1.4963,-1.5136,-1.5225,-1.5053,-1.5576,-1.5836,-1.5,-1.4455,-1.4128,-1.4184,-1.3877,-1.3694,-1.3756,-1.3688,-1.3446,-1.3053,-1.2752,-1.2399,-1.1737,-1.1476,-1.1369,-1.1423,-1.1369,-1.1073,-1.053,-1.0468,-1.0509,-1.0634,-1.0763,-1.1242,-1.1996,-1.2105,-1.2164,0.0,0.0,0.0,0.0,0.0,0.0,0.0,0.0,0.0,0.0,0.0,-1.3262,0.0,0.0,-1.4355,-1.5,-1.5459,-1.5967,-1.6631,-1.71,-1.7305,-1.708,-1.7432,-1.7617,-1.7393,-1.7187,-1.7148,-1.7363,-1.6973,-1.7012,-1.7666,-1.7695,-1.7793,-1.8008,-1.8213,-1.832,-1.832,-1.8545,-1.8421,-1.7977,-1.7524,-1.6902,-1.616,-1.5549,-1.4975,-1.4353,-1.4823,-1.5227,-1.5553,-1.6114,-1.6633,-1.6884,-1.647,-1.6753,-1.7573,-1.785,-1.8405,-1.8903,-1.8903,-1.8684,-1.8345,-1.8431,-1.7244,-1.6056,-1.7527,-1.6952,-1.6063,-1.7543,-1.6974,-1.6,-1.6155,-1.5837,-1.5431,-1.5578,-1.5504,-1.5438,-1.5578,-1.5498,-1.5398,-1.5398,-1.5398,-1.5398,-1.5398,-1.5583,-1.5506,-1.4851,-1.4362,-1.4082,-1.4082,-1.3701,-1.354,-1.3834,-1.3601,-1.3427,-1.3427,-1.2872,-1.2271,-1.1683,-1.151,-1.1276,-1.0924,-1.0723,-1.0569,-1.0473,-1.0407,-1.0761,-1.1424,-1.155,-1.1842,-1.2305,-1.2305,-1.2305,0.0,0.0,0.0,0.0,0.0,0.0,0.0,0.0,-1.1302,-1.2638,-1.3355,-1.3857,-1.4199,-1.4678,-1.5293,-1.6064,-1.626,-1.6664,-1.7393,-1.75,-1.75,-1.75,-1.7803,-1.7978,-1.79,-1.7578,-1.7383,-1.7383,-1.7383,-1.7422,-1.75,-1.79,-1.8135,-1.8135,-1.8545,-1.876,-1.876,-1.9111,-1.9131,-1.8673,-1.7922,-1.7047,-1.6063,-1.5068,-1.443,-1.4175,-1.4235,-1.4746,-1.5584,-1.582,-1.6068,-1.6197,-1.5698,-1.6213,-1.7368,-1.7557,-1.7826,-1.8001,-1.8001,-1.7523,-1.6825,-1.7085,-1.6203,-1.5399,-1.6886,-1.6324,-1.5497,-1.6893,-1.6399,-1.5531,-1.5765,-1.5832,-1.5832,-1.5832,-1.5832,-1.5832,-1.5832,-1.5832,-1.5832,-1.5832,-1.5832,-1.5832,-1.5832,-1.5631,-1.5384,-1.509,-1.4796,-1.4603,-1.4603,-1.4142,-1.3901,-1.4142,-1.3694,-1.3454,-1.3627,-1.2926,-1.2198,-1.1436,-1.1404,-1.1047,-1.025,-0.999,-1.0047,-1.0479,-1.029,-1.0657,-1.17,-1.1922,-1.1996,-1.1996,-1.2284,-1.2385,-0.6937,-0.7241,0.0,-0.7849,-0.815,-0.8765,0.0,0.0,-1.1718,-1.2824,-1.3891,-1.4658,-1.4697,-1.5371,-1.6084,-1.6572,-1.6982,-1.7402,-1.7871,-1.7939,-1.7939,-1.7939,-1.7978,-1.7861,-1.749,-1.7412,-1.7383,-1.7383,-1.7383,-1.7549,-1.792,-1.834,-1.8494,-1.8494,-1.8984,-1.9219,-1.9219,-1.9268,-1.8369,-1.6531,-1.6713,-1.5802,-1.3974,-1.4311,-1.4495,-1.4489,-1.475,-1.4952,-1.5055,-1.5352,-1.5339,-1.519,-1.5565,-1.5765,-1.5657,-1.5691,-1.6407,-1.7281,-1.7281,-1.7402,-1.7579,-1.7617,-1.6778,-1.5745,-1.5994,-1.588,-1.5745,-1.6001,-1.59,-1.5792,-1.5818,-1.5832,-1.5832,-1.5832,-1.5832,-1.5832,-1.5832,-1.5832,-1.5832,-1.5832,-1.5832,-1.5832,-1.5832,-1.5805,-1.5678,-1.5391,-1.5097,-1.4917,-1.4917,-1.4623,-1.4436,-1.4469,-1.4182,-1.3895,-1.3579,-1.3313,-1.2674,-1.1557,-1.1473,-1.0908,-0.9622,-0.9591,-0.9509,-0.9448,-0.9422,-0.9497,-0.9674,-1.0565,-1.0938,-1.1019,-1.2181,-1.2775,-0.7544,0.0,0.0,0.0,-0.8671,-0.9515,-1.0958,-1.1841,-1.2709,-1.3839,-1.4878,-1.5605,-1.5869,-1.6416,-1.6973,0.0,-1.7627,-1.7812,-1.7988,-1.8008,-1.792,-1.7676,-1.7646,-1.7676,-1.7744,-1.7744,-1.7744,-1.7744,-1.7744,-1.793,-1.835,-1.8545,-1.876,-1.9014,-1.9434,-1.9648,-1.9648,-1.9902,-1.9316,-1.7822,-1.7267,-1.6327,-1.5049,-1.4654,-1.4703,-1.503,-1.4983,-1.5157,-1.5464,-1.5418,-1.5424,-1.5491,-1.5732,-1.5752,-1.5651,-1.5651,-1.5912,-1.6364,-1.6364,-1.6455,-1.6574,-1.6574,-1.6204,-1.5832,-1.5832,-1.5832,-1.5832,-1.5832,-1.5832,-1.5832,-1.5832,-1.5832,-1.5832,-1.5832,-1.5832,-1.5832,-1.5832,-1.5832,-1.5832,-1.5832,-1.5832,-1.5832,-1.5832,-1.5832,-1.5792,-1.5665,-1.5398,-1.5217,-1.5217,-1.4963,-1.4776,-1.4776,-1.4669,-1.4409,-1.3941,-1.3788,-1.3065,-1.1582,-1.1484,-1.0632,-0.8854,-0.8769,-0.8675,-0.8558,-0.8554,-0.8859,-0.9406,-1.0483,-1.11,-1.1241,-1.2473,-1.3106,-0.7862,0.0,0.0,-0.8497,-0.9092,-1.0036,-1.1912,-1.2508,-1.3132,-1.4821,-1.5534,-1.598,-1.6441,-1.7002,0.0,-1.7793,-1.7939,-1.8008,-1.8008,-1.791,-1.7725,-1.7422,-1.7275,-1.7324,-1.7627,-1.7764,-1.7881,-1.7998,-1.8008,-1.8193,-1.8613,-1.875,-1.9014,-1.9443,-1.9873,-2.0156,-2.0273,-2.0596,-2.0159,-1.8786,-1.7941,-1.6933,-1.5734,-1.5062,-1.5037,-1.5504,-1.5291,-1.5438,-1.5812,-1.5605,-1.5638,-1.5832,-1.5832,-1.5832,-1.5832,-1.5832,-1.5832,-1.5832,-1.5832,-1.5832,-1.5832,-1.5832,-1.5832,-1.5832,-1.5832,-1.5832,-1.5832,-1.5832,-1.5832,-1.5832,-1.5832,-1.5832,-1.5832,-1.5832,-1.5832,-1.5832,-1.5832,-1.5832,-1.5832,-1.5832,-1.5832,-1.5832,-1.5832,-1.5832,-1.5832,-1.5832,-1.5651,-1.5518,-1.5518,-1.5264,-1.5057,-1.497,-1.4963,-1.479,-1.4362,-1.3972,-1.3149,-1.1498,-1.1051,-0.9917,-0.7919,-0.7832,-0.7749,-0.7652,-0.7597,-0.7991,-0.8759,-0.9807,-1.0605,-1.1078,-1.2296,-1.3104,0.0,0.0,-0.8088,-0.8944,-0.9176,-0.9995,-1.2857,-1.2672,-1.2653,-1.5495,-1.5663,-1.5515,-1.603,-1.6797,-1.7393,-1.7402,-1.7744,-1.8008,-1.8008,-1.7656,-1.7402,-1.7383,-1.7012,-1.6758,0.0,-1.7148,-1.7568,-1.7978,-1.8008,-1.8193,-1.8613,-1.9043,-1.9453,-1.9883,-2.0322,-2.0752,-2.1191,-2.1201,-2.0236,-1.8382,-1.812,-1.6955,-1.5046,-1.5237,-1.5531,-1.5812,-1.5805,-1.5812,-1.5832,-1.5818,-1.5818,-1.5832,-1.5832,-1.5832,-1.5832,-1.5832,-1.5832,-1.5832,-1.5832,-1.5832,-1.5832,-1.5832,-1.5832,-1.5832,-1.5832,-1.5832,-1.5832,-1.5832,-1.5832,-1.5832,-1.5832,-1.5832,-1.5832,-1.5832,-1.5832,-1.5832,-1.5832,-1.5832,-1.5832,-1.5832,-1.5832,-1.5832,-1.5832,-1.5832,-1.5832,-1.5832,-1.5818,-1.5812,-1.5812,-1.5565,-1.5277,-1.499,-1.4963,-1.4957,-1.4937,-1.3826,-1.2518,-1.1196,-0.9929,-0.8533,-0.7018,-0.6922,-0.6851,-0.6778,-0.6627,-0.6627,-0.6774,-0.766,-0.8697,-0.9943,-1.132,-1.2535,0.0,0.0,-0.8677,-0.9365,-0.9973,-1.0808,-1.2345,-1.316,-1.3835,-1.4637,-1.4961,-1.5221,-1.5269,-1.5607,-1.6088,-1.684,-1.7314,-1.7695,-1.7969,-1.7891,-1.7475,-1.6494,-1.6825,0.0,0.0,0.0,0.0,-1.7978,-1.8271,-1.874,-1.9443,-1.9629,-2.0039,-2.0771,-2.0937,-2.079,-2.044,-2.044,-1.9312,-1.7201,-1.6536,-1.5944,-1.5257,-1.5551,-1.5732,-1.5832,-1.5832,-1.5832,-1.5832,-1.5832,-1.5832,-1.5832,-1.5832,-1.5832,-1.5832,-1.5832,-1.5832,-1.5832,-1.5832,-1.5832,-1.5832,-1.5832,-1.5832,-1.5832,-1.5832,-1.5832,-1.5832,-1.5832,-1.5832,-1.5832,-1.5832,-1.5832,-1.5832,-1.5832,-1.5832,-1.5832,-1.5832,-1.5832,-1.5832,-1.5832,-1.5985,-1.6059,-1.5865,-1.53,-1.4467,-1.3329,-1.4663,-1.5832,-1.5832,-1.5745,-1.5645,-1.5545,-1.5538,-1.508,-1.4032,-1.3546,-1.2319,-1.0086,-0.9405,-0.8567,-0.7317,-0.7122,-0.7,-0.6854,-0.68,-0.68,-0.6851,-0.7955,-0.8765,-0.9294,-1.1223,-1.2373,0.0,-0.9763,-0.9792,-1.006,-1.0655,-1.137,-1.2388,-1.296,-1.3333,-1.3712,-1.378,-1.3778,-1.3897,-1.4294,-1.4777,-1.5237,-1.6076,-1.6811,-1.712,-1.7271,-1.7118,-1.6523,-1.6675,0.0,0.0,0.0,0.0,-1.793,-1.8398,-1.8945,-1.9648,-1.998,-2.0478,-2.1211,-2.1387,-2.1056,-2.0242,-2.0242,-1.9109,-1.6766,-1.5943,-1.5498,-1.5404,-1.5698,-1.5832,-1.5832,-1.5832,-1.5832,-1.5832,-1.5832,-1.5832,-1.5832,-1.5832,-1.5832,-1.5832,-1.5832,-1.5832,-1.5832,-1.5832,-1.5832,-1.5832,-1.5832,-1.5832,-1.5832,-1.5832,-1.5832,-1.5832,-1.5832,-1.5832,-1.5832,-1.5832,-1.5832,-1.5832,-1.5832,-1.5832,-1.5832,-1.5832,-1.5832,-1.5832,-1.5832,-1.5588,-1.5358,-1.5178,-1.4285,-1.321,-1.218,-1.343,-1.4672,-1.5057,-1.5146,-1.5146,-1.5146,-1.5146,-1.4487,-1.2975,-1.2869,-1.191,-0.9643,-0.8906,-0.8238,-0.7464,-0.7221,-0.7099,-0.7007,-0.6956,-0.6953,-0.7004,-0.771,-0.8369,-0.8978,-1.0438,-1.1295,-1.0156,-1.0654,-1.1299,-1.1057,-1.1223,-1.1703,-1.2954,-1.2055,-1.1395,-1.2768,-1.2075,-1.1429,0.0,0.0,-1.3446,-1.293,-1.4326,-1.5501,-1.5753,-1.6081,-1.6543,0.0,0.0,0.0,0.0,0.0,0.0,-1.789,0.0,-1.8825,-1.9282,-2.0156,-2.0732,-2.1038,-2.1535,-2.1419,-2.0569,-2.0481,-1.9323,-1.7093,-1.6234,-1.5685,-1.5431,-1.5705,-1.5832,-1.5832,-1.5832,-1.5832,-1.5832,-1.5832,-1.5832,-1.5832,-1.5832,-1.5832,-1.5832,-1.5832,-1.5832,-1.5832,-1.5832,-1.5832,-1.5832,-1.5832,-1.5832,-1.5832,-1.5832,-1.5832,-1.5832,-1.5832,-1.5832,-1.5832,-1.5832,-1.5832,-1.5832,-1.5832,-1.5832,-1.5832,-1.5845,-1.5852,-1.5858,-1.577,-1.47,-1.3823,-1.3738,-1.2833,-1.2069,-1.1969,-1.2059,-1.247,-1.3619,-1.3776,-1.3776,-1.3776,-1.3776,-1.3295,-1.1945,-1.1755,-1.1177,-0.9836,-0.8339,-0.7536,-0.739,-0.7227,-0.7139,-0.7139,-0.7007,-0.7007,-0.7139,-0.7004,-0.7523,-0.8803,-0.889,-0.9492,-1.2134,-1.2057,-1.1973,-1.1417,-1.1369,-1.1512,-1.1792,-1.173,-1.1508,-1.131,-1.0953,-1.0766,0.0,0.0,0.0,-1.3071,-1.4753,0.0,-1.6751,-1.7754,0.0,0.0,0.0,-1.8118,-1.7388,-1.7944,0.0,0.0,-1.8146,-1.8669,-1.9375,-2.0442,-2.0555,-1.9445,-2.0431,-2.0149,-1.8462,-1.7542,-1.6714,-1.6168,-1.588,-1.5792,-1.5718,-1.5798,-1.5832,-1.5832,-1.5832,-1.5832,-1.5832,-1.5832,-1.5832,-1.5832,-1.5832,-1.5832,-1.5832,-1.5832,-1.5832,-1.5832,-1.5832,-1.5832,-1.5832,-1.5832,-1.5832,-1.5832,-1.5832,-1.5832,-1.5832,-1.5832,-1.5832,-1.5832,-1.5832,-1.5832,-1.5832,-1.5832,-1.5832,-1.5885,-1.6112,-1.6159,-1.5921,-1.5022,-1.3746,-1.2588,-1.1822,-1.1128,-1.0365,-0.9474,-1.0058,-1.103,-1.2242,-1.2431,-1.2431,-1.2431,-1.2431,-1.1848,-1.0583,-1.0485,-0.9878,-0.8568,-0.7931,-0.7584,-0.7543,-0.7282,-0.7139,-0.7139,-0.7105,-0.7105,-0.7139,-0.7102,-0.719,-0.7577,-0.8452,-0.9061,-1.3327,-1.3164,-1.3063,-1.1916,-1.1623,-1.155,-1.1289,-1.1155,-1.0819,-1.0147,-0.9973,0.0,0.0,0.0,0.0,0.0,0.0,0.0,-1.607,-1.7058,-1.7906,0.0,-1.8303,0.0,-1.8113,-1.7867,-1.7726,0.0,-1.8197,-1.8408,-1.8353,-1.9529,-1.9745,-1.8847,-1.9724,-1.938,-1.7692,-1.648,-1.5832,-1.5832,-1.5832,-1.5832,-1.5832,-1.5832,-1.5832,-1.5832,0.0,-1.5832,-1.5832,-1.5832,-1.5832,-1.5832,-1.5832,-1.5832,-1.5832,-1.5832,-1.5832,-1.5832,-1.5832,-1.5832,-1.5832,-1.5832,-1.5832,-1.5832,-1.5832,-1.5832,-1.5832,-1.5832,-1.5832,-1.5832,-1.5832,-1.5832,-1.5832,-1.5832,-1.5925,-1.5873,-1.5433,-1.5461,-1.4983,-1.3083,-1.2088,-1.1227,-1.0162,-0.9711,-0.928,-0.8567,-0.8944,-0.9613,-1.0233,-1.0735,-1.1072,-1.1072,-1.1072,-1.0583,-0.9217,-0.9706,-0.941,-0.8038,-0.7821,-0.7665,-0.76,-0.737,-0.721,-0.7143,-0.7139,-0.7139,-0.7139,-0.7139,-0.7139,-0.7139,-0.7753,-0.8105,-1.4247,-1.4173,-1.421,-1.2551,-1.1979,-1.1623,-1.1109,-1.0474,-0.986,-0.9289,0.0,0.0,-0.923,0.0,-1.0494,-1.0282,0.0,-1.3917,-1.4772,-1.5558,-1.6851,-1.886,-1.7905,-1.7412,-1.8431,-1.7041,-1.6529,-1.776,-1.8275,-1.8031,-1.7137,-1.8181,-1.8791,-1.8669,-1.887,-1.8495,-1.7505,-1.6386,-1.5832,-1.5832,-1.5832,-1.5832,-1.5832,-1.5832,-1.5832,-1.5832,0.0,0.0,-1.5832,-1.5832,-1.5832,-1.5832,-1.5832,-1.5832,-1.5832,-1.5832,-1.5832,-1.5832,-1.5832,-1.5832,-1.5832,-1.5832,-1.5832,-1.5832,-1.5832,-1.5832,-1.5832,-1.5832,-1.5832,-1.5838,-1.5879,-1.5695,-1.5606,-1.5639,-1.5745,-1.5436,-1.4161,-1.3959,-1.3307,-1.0928,-1.0305,-0.9836,-0.8928,-0.8723,-0.871,-0.871,-0.8564,-0.8411,-0.8286,-0.913,-0.9706,-0.9706,-0.9706,-0.9312,-0.8137,-0.9019,-0.9217,-0.8038,-0.7896,-0.7746,-0.7604,-0.7451,-0.7299,-0.7143,-0.7139,-0.7139,-0.7139,-0.7139,-0.7139,-0.7139,-0.7139,-0.7139,-1.5566,-1.5292,-1.479,-1.3655,-1.2228,-1.1116,-1.1015,-1.0167,0.0,0.0,0.0,-0.9031,-0.9519,0.0,0.0,-1.1029,0.0,0.0,0.0,0.0,0.0,0.0,0.0,0.0,0.0,0.0,0.0,0.0,0.0,0.0,-1.6996,-1.8233,-1.8563,-1.7957,-1.6908,-1.6386,-1.6109,-1.592,-1.5832,-1.5832,-1.5832,-1.5832,-1.5832,-1.5832,-1.5832,-1.5832,0.0,0.0,-1.5832,-1.5832,-1.5832,-1.5832,-1.5832,-1.5832,-1.5832,-1.5832,-1.5832,-1.5832,-1.5832,-1.5832,-1.5832,-1.5832,-1.5832,-1.5832,-1.5832,-1.5832,-1.5832,-1.5832,-1.5832,-1.5885,-1.6132,-1.5297,-1.4457,-1.4666,-1.3841,-1.3109,-1.2987,-1.2361,-1.1544,-1.1116,-1.0043,-0.9085,-0.8893,-0.8794,-0.871,-0.871,-0.8479,-0.8299,-0.8275,-0.8334,-0.8333,-0.8333,-0.8333,-0.8237,-0.8041,-0.8237,-0.8237,-0.8041,-0.7896,-0.7746,-0.7604,-0.7451,-0.7299,-0.7143,-0.7139,-0.7139,-0.7139,-0.7139,-0.7139,-0.7139,-0.7139,-0.7139,-1.7302,-1.6618,-1.563,-1.4394,-1.2917,-1.1581,-1.0931,0.0,0.0,0.0,0.0,0.0,-0.9606,0.0,0.0,0.0,0.0,0.0,0.0,0.0,0.0,0.0,0.0,0.0,0.0,0.0,0.0,0.0,0.0,0.0,-1.619,-1.689,-1.7143,-1.6756,-1.6109,-1.5832,-1.5832,-1.5832,-1.5832,-1.5832,-1.5832,-1.5832,-1.5832,-1.5832,-1.5832,-1.5832,-1.5832,0.0,-1.5832,-1.5832,-1.5832,-1.5832,-1.5832,-1.5832,-1.5832,-1.5832,-1.5832,-1.5832,-1.5832,-1.5832,-1.5832,-1.5832,-1.5832,-1.5832,-1.5832,-1.5832,-1.5635,-1.5045,-1.4848,-1.4719,-1.4299,-1.3667,-1.3125,-1.3367,-1.2486,-1.1586,-1.1889,-1.0828,-0.9915,-0.9915,-0.9372,-0.894,-0.894,-0.8876,-0.8828,-0.8828,-0.8574,-0.8381,-0.8381,-0.818,-0.8038,-0.8038,-0.8038,-0.8038,-0.8038,-0.8038,-0.8038,-0.8038,-0.797,-0.7865,-0.7716,-0.7638,-0.7492,-0.7265,-0.7261,-0.7221,-0.7139,-0.7139,-0.7139,-0.7139,-0.7139,-0.7139,-1.8407,-1.7552,-1.6307,-1.503,-1.3523,-1.2022,-1.0855,-0.9826,0.0,0.0,0.0,0.0,0.0,0.0,0.0,0.0,0.0,0.0,0.0,0.0,0.0,0.0,0.0,0.0,0.0,0.0,0.0,0.0,0.0,0.0,-1.5491,-1.5705,-1.5832,-1.5832,-1.5832,-1.5832,-1.5832,-1.5832,-1.5832,-1.5832,-1.5832,-1.5832,-1.5832,-1.5832,-1.5832,-1.5832,-1.5832,0.0,0.0,-1.5832,-1.5832,-1.5832,-1.5832,-1.5832,-1.5832,-1.5832,-1.5832,-1.5832,-1.5832,-1.5832,-1.573,-1.5439,-1.5439,-1.5439,-1.573,-1.5478,-1.4846,-1.4154,-1.3802,-1.3411,-1.255,-1.2107,-1.1861,-1.1661,-1.0996,-1.0397,-1.0534,-0.9699,-0.894,-0.894,-0.894,-0.894,-0.894,-0.894,-0.894,-0.894,-0.8706,-0.853,-0.853,-0.8272,-0.8089,-0.8089,-0.8058,-0.8038,-0.8038,-0.8038,-0.8038,-0.8038,-0.8038,-0.797,-0.7818,-0.7811,-0.7689,-0.7424,-0.739,-0.7312,-0.719,-0.7156,-0.7139,-0.7139,-0.7139,-0.7139,-1.7895,-1.7314,-1.6447,-1.5819,-1.3815,-1.1802,-1.0807,0.0,0.0,0.0,0.0,0.0,0.0,0.0,0.0,0.0,0.0,0.0,0.0,0.0,0.0,0.0,0.0,0.0,0.0,0.0,0.0,0.0,0.0,0.0,0.0,-1.5812,-1.5832,-1.5832,-1.5832,-1.5832,-1.5832,-1.5832,-1.5832,-1.5832,-1.5832,-1.5832,-1.5832,-1.5832,-1.5832,-1.5832,0.0,0.0,0.0,-1.5832,-1.5832,-1.5832,-1.5832,-1.5832,-1.5832,-1.5832,-1.5832,-1.5832,-1.5832,-1.5832,-1.5635,-1.4459,-1.407,-1.4268,-1.5439,-1.4243,-1.2736,-1.3831,-1.3295,-1.2592,-1.271,-1.1829,-1.051,-0.9508,-0.9123,-0.903,-0.9044,-0.9047,-0.894,-0.894,-0.894,-0.894,-0.894,-0.894,-0.894,-0.894,-0.8798,-0.8689,-0.8689,-0.8431,-0.8248,-0.8248,-0.8123,-0.8038,-0.8038,-0.8038,-0.8038,-0.8038,-0.8038,-0.797,-0.7818,-0.7811,-0.7736,-0.7584,-0.7441,-0.7363,-0.735,-0.721,-0.7139,-0.7139,-0.7139,-0.7139,-1.8469,-1.8291,-1.7563,-1.6555,-1.508,-1.3384,-1.1448,0.0,0.0,0.0,-0.8804,-0.8985,-0.9573,0.0,0.0,0.0,0.0,0.0,0.0,0.0,0.0,0.0,0.0,0.0,0.0,0.0,0.0,0.0,0.0,0.0,0.0,-1.5832,-1.5832,-1.5832,-1.5832,-1.5832,-1.5832,-1.5832,-1.5832,-1.5832,-1.5832,-1.5832,-1.5832,-1.5832,-1.5832,-1.5832,0.0,0.0,0.0,-1.5832,-1.5832,-1.5832,-1.5832,-1.5832,-1.5832,-1.5832,-1.5945,-1.6072,-1.5892,-1.5945,-1.5893,-1.4509,-1.3419,-1.284,-1.3475,-1.299,-1.2194,-1.1924,-1.1508,-1.1105,-1.0461,-0.9954,-0.9512,-0.9034,-0.894,-0.894,-0.894,-0.894,-0.894,-0.894,-0.894,-0.894,-0.894,-0.894,-0.894,-0.894,-0.8808,-0.8676,-0.8584,-0.8394,-0.8235,-0.814,-0.8075,-0.8038,-0.8038,-0.8038,-0.8038,-0.8038,-0.8038,-0.8011,-0.795,-0.7946,-0.7838,-0.7604,-0.7539,-0.7417,-0.7231,-0.717,-0.7139,-0.7139,-0.7139,-0.7139,-1.8122,-1.8122,-1.7649,-1.6638,-1.556,-1.4183,0.0,0.0,0.0,0.0,-0.8956,-0.8985,-0.9573,-0.9686,-0.988,-1.053,0.0,0.0,0.0,0.0,0.0,0.0,0.0,0.0,0.0,0.0,0.0,0.0,0.0,0.0,0.0,-1.5832,-1.5832,-1.5832,-1.5832,-1.5832,-1.5832,-1.5832,-1.5832,-1.5832,-1.5832,-1.5832,-1.5832,-1.5832,-1.5832,-1.5832,0.0,0.0,0.0,-1.5832,-1.5832,-1.5832,-1.5832,-1.5832,-1.5838,-1.5925,-1.6092,-1.6246,-1.6032,-1.5855,-1.548,-1.3992,-1.261,-1.1387,-1.1184,-1.1101,-1.0994,-1.0577,-1.0253,-0.98,-0.8963,-0.8859,-0.894,-0.894,-0.894,-0.894,-0.894,-0.894,-0.894,-0.894,-0.894,-0.894,-0.894,-0.894,-0.894,-0.894,-0.8849,-0.8737,-0.8632,-0.8489,-0.8343,-0.8187,-0.8133,-0.8089,-0.8041,-0.8038,-0.8038,-0.8038,-0.8038,-0.8038,-0.8038,-0.8038,-0.794,-0.7733,-0.7645,-0.7492,-0.7275,-0.7183,-0.7139,-0.7139,-0.7139,-0.7139,-1.6206,-1.6167,-1.6094,-1.5915,-1.4861,-1.3579,0.0,0.0,0.0,0.0,-0.9263,-0.8985,-0.9573,-0.9686,-0.988,-1.053,-1.0802,0.0,0.0,0.0,0.0,0.0,0.0,0.0,0.0,0.0,0.0,0.0,0.0,0.0,0.0,-1.5832,-1.5832,-1.5832,-1.5832,-1.5832,-1.5832,-1.5832,-1.5832,-1.5832,-1.5832,-1.5832,-1.5832,-1.5832,-1.5832,0.0,0.0,0.0,0.0,-1.5832,-1.5832,-1.5832,-1.5832,-1.5832,-1.5865,-1.6159,-1.6273,-1.6273,-1.6273,-1.5543,-1.4297,-1.2741,-1.1401,-1.016,-0.908,-0.8598,-0.8822,-1.0249,-0.9787,-0.8933,-0.8937,-0.8937,-0.894,-0.894,-0.894,-0.894,-0.894,-0.894,-0.894,-0.894,-0.894,-0.894,-0.894,-0.894,-0.894,-0.894,-0.8937,-0.8933,-0.8933,-0.8801,-0.8648,-0.8492,-0.835,-0.8208,-0.8052,-0.8038,-0.8038,-0.8038,-0.8038,-0.8038,-0.8038,-0.8038,-0.8038,-0.8035,-0.775,-0.7597,-0.7594,-0.7288,-0.7139,-0.7139,-0.7139,-0.7139,-1.53,-1.5736,-1.6016,-1.534,-1.4821,-1.4119,-1.2787,0.0,0.0,0.0,-1.0312,-1.015,-1.0115,-1.0264,-1.0371,-1.0255,-1.0835,0.0,0.0,0.0,0.0,0.0,0.0,0.0,0.0,0.0,0.0,0.0,0.0,0.0,0.0,0.0,-1.5832,-1.5832,-1.5832,-1.5832,-1.5832,-1.5832,-1.5832,-1.5832,-1.5832,-1.5832,-1.5832,-1.5832,0.0,0.0,0.0,0.0,0.0,-1.5832,-1.5832,-1.5832,-1.5832,-1.5832,-1.5865,-1.6166,-1.64,-1.6567,-1.6567,-1.5828,-1.4585,-1.3055,-1.1634,-1.0188,-0.9106,-0.876,-0.8776,-0.9359,-0.923,-0.894,-0.894,-0.894,-0.894,-0.894,-0.894,-0.894,-0.894,-0.894,-0.894,-0.894,-0.894,-0.894,-0.894,-0.894,-0.894,-0.894,-0.894,-0.8899,-0.8798,-0.874,-0.8652,-0.8499,-0.8357,-0.8208,-0.8052,-0.8038,-0.8038,-0.8038,-0.8038,-0.8038,-0.8038,-0.8038,-0.7991,-0.7885,-0.779,-0.7695,-0.76,-0.7397,-0.7244,-0.7139,-0.7139,-0.7139,0.0,-1.4882,-1.5063,-1.4488,-1.4307,0.0,0.0,0.0,0.0,0.0,0.0,-1.0775,-1.067,-1.068,-1.0675,-1.0474,-1.0978,0.0,0.0,0.0,0.0,0.0,0.0,0.0,0.0,0.0,0.0,0.0,0.0,0.0,0.0,0.0,-1.5832,-1.5832,-1.5832,-1.5832,-1.5832,-1.5832,-1.5832,-1.5832,-1.5832,-1.5832,-1.5832,-1.5832,0.0,0.0,0.0,0.0,0.0,-1.5832,-1.5832,-1.5832,-1.5832,-1.5899,-1.6032,-1.6326,-1.662,-1.6874,-1.6874,-1.5803,-1.4212,-1.3172,-1.1424,-0.9747,-0.9099,-0.8872,-0.8815,-0.8913,-0.894,-0.894,-0.894,-0.894,-0.894,-0.894,-0.894,-0.894,-0.894,-0.894,-0.894,-0.894,-0.894,-0.894,-0.894,-0.894,-0.894,-0.894,-0.894,-0.8903,-0.8808,-0.8798,-0.8737,-0.8584,-0.8438,-0.8289,-0.814,-0.8072,-0.8038,-0.8038,-0.8038,-0.8038,-0.8038,-0.8038,-0.7994,-0.7899,-0.7841,-0.7767,-0.7678,-0.7529,-0.7407,-0.7312,-0.7312,-0.7312,0.0,0.0,0.0,0.0,0.0,0.0,0.0,0.0,0.0,0.0,0.0,0.0,-1.1353,-1.1068,-1.084,-1.1108,-1.1288,0.0,0.0,0.0,0.0,0.0,0.0,0.0,0.0,0.0,0.0,0.0,0.0,0.0,0.0,0.0,-1.5832,-1.5832,-1.5832,-1.5832,-1.5832,-1.5832,-1.5832,-1.5832,-1.5832,-1.5832,-1.5832,-1.5832,0.0,0.0,0.0,0.0,0.0,-1.5832,-1.5832,-1.5832,-1.5832,-1.5999,-1.6279,-1.6587,-1.6881,-1.7128,-1.7058,-1.544,-1.3234,-1.2708,-1.0858,-0.894,-0.894,-0.894,-0.894,-0.894,-0.894,-0.894,-0.894,-0.894,-0.894,-0.894,-0.894,-0.894,-0.894,-0.894,-0.894,-0.894,-0.894,-0.894,-0.894,-0.894,-0.894,-0.894,-0.894,-0.894,-0.894,-0.894,-0.8879,-0.8726,-0.8574,-0.8425,-0.8282,-0.813,-0.8038,-0.8038,-0.8038,-0.8038,-0.8038,-0.8038,-0.8038,-0.8038,-0.7899,-0.7821,-0.7811,-0.7678,-0.7611,-0.76,-0.76,-0.76,0.0,0.0,0.0,0.0,0.0,0.0,0.0,0.0,0.0,0.0,0.0,0.0,-1.2218,-1.1827,-1.1396,-1.1278,0.0,0.0,0.0,0.0,0.0,0.0,0.0,0.0,0.0,0.0,0.0,0.0,0.0,0.0,0.0,0.0,-1.5832,-1.5832,-1.5832,-1.5832,-1.5832,-1.5832,-1.5832,-1.5832,-1.5832,-1.5832,-1.5832,-1.5832,0.0,0.0,0.0,0.0,-1.5832,-1.5832,-1.5832,-1.5832,-1.5832,-1.5872,-1.5992,-1.6513,-1.6747,-1.6766,-1.6039,-1.4725,-1.2935,-1.0627,-0.9449,-0.894,-0.894,-0.894,-0.894,-0.894,-0.894,-0.894,-0.894,-0.894,-0.894,-0.894,-0.894,-0.894,-0.894,-0.894,-0.894,-0.894,-0.894,-0.894,-0.894,-0.894,-0.894,-0.894,-0.894,-0.894,-0.894,-0.894,-0.8879,-0.8726,-0.8574,-0.8425,-0.8282,-0.813,-0.8038,-0.8038,-0.8038,-0.8038,-0.8038,-0.8038,-0.8038,-0.8038,-0.8004,-0.7929,-0.7811,-0.7777,-0.7706,-0.76,-0.76,-0.76,0.0,0.0,0.0,0.0,0.0,0.0,0.0,0.0,0.0,0.0,0.0,0.0,0.0,0.0,0.0,0.0,0.0,0.0,0.0,0.0,0.0,0.0,0.0,0.0,0.0,0.0,0.0,0.0,0.0,0.0,0.0,0.0,-1.5832,-1.5832,-1.5832,-1.5832,-1.5832,-1.5832,-1.5832,-1.5832,-1.5832,-1.5832,-1.5832,-1.5832,0.0,0.0,0.0,0.0,-1.5832,-1.5832,-1.5832,-1.5832,-1.5832,-1.5912,-1.6072,-1.6393,-1.6267,-1.5806,-1.5356,-1.3928,-1.1973,-0.9588,-0.894,-0.894,-0.894,-0.894,-0.894,-0.894,-0.894,-0.894,-0.894,-0.894,-0.894,-0.894,-0.894,-0.894,-0.894,-0.894,-0.894,-0.894,-0.894,-0.894,-0.894,-0.894,-0.894,-0.894,-0.894,-0.894,-0.894,-0.894,-0.8906,-0.8825,-0.8615,-0.8452,-0.8374,-0.8167,-0.8038,-0.8038,-0.8038,-0.8038,-0.8038,-0.8038,-0.8038,-0.8038,-0.8038,-0.7997,-0.7916,-0.7916,-0.7875,-0.7801,-0.7801,-0.7801,0.0,0.0,0.0,0.0,0.0,0.0,0.0,0.0,0.0,0.0,0.0,0.0,0.0,0.0,0.0,0.0,0.0,0.0,0.0,0.0,0.0,0.0,0.0,0.0,0.0,0.0,0.0,0.0,0.0,0.0,0.0,0.0,0.0,-1.5832,-1.5832,-1.5832,-1.5832,-1.5832,-1.5832,-1.5832,-1.5832,-1.5832,-1.5832,-1.5832,0.0,0.0,0.0,0.0,-1.5832,-1.5832,-1.5832,-1.5832,-1.5832,-1.5883,-1.5908,-1.5953,-1.5357,-1.4619,-1.4376,-1.2758,-1.0566,-0.9265,-0.894,-0.894,-0.894,-0.894,-0.894,-0.894,-0.894,-0.894,-0.894,-0.894,-0.894,-0.894,-0.894,-0.894,-0.894,-0.894,-0.894,-0.894,-0.894,-0.894,-0.894,-0.894,-0.894,-0.894,-0.894,-0.894,-0.894,-0.894,-0.893,-0.8906,-0.8672,-0.8499,-0.8455,-0.8218,-0.8065,-0.8041,-0.8038,-0.8038,-0.8038,-0.8038,-0.8038,-0.8038,-0.8038,-0.8038,-0.8038,-0.8038,-0.8038,-0.8038,-0.8038,-0.8038,0.0,0.0,0.0,0.0,0.0,0.0,0.0,0.0,0.0,0.0,0.0,0.0,0.0,0.0,0.0,0.0,0.0,0.0,0.0,0.0,0.0,0.0,0.0,0.0,0.0,0.0,0.0,0.0,0.0,0.0,0.0,0.0,0.0,-1.5832,-1.5832,-1.5832,-1.5832,-1.5832,-1.5832,-1.5832,-1.5832,-1.5832,-1.5832,-1.5832,-1.5832,0.0,0.0,-1.5832,-1.5832,-1.5832,-1.5832,-1.5832,-1.5832,-1.5172,-1.4256,-1.4478,-1.3811,-1.2638,-1.1864,-1.0521,-0.9154,-0.8937,-0.894,-0.894,-0.894,-0.894,-0.894,-0.894,-0.894,-0.894,-0.894,-0.894,-0.894,-0.894,-0.894,-0.894,-0.894,-0.894,-0.894,-0.894,-0.894,-0.894,-0.894,-0.894,-0.894,-0.894,-0.894,-0.894,-0.894,-0.894,-0.8889,-0.876,-0.8703,-0.8574,-0.8323,-0.8262,-0.818,-0.8048,-0.8038,-0.8038,-0.8038,-0.8038,-0.8038,-0.8038,-0.8038,-0.8038,-0.8038,-0.8038,-0.8038,-0.8038,-0.8038,-0.8038,0.0,0.0,0.0,0.0,0.0,0.0,0.0,0.0,0.0,0.0,0.0,0.0,0.0,0.0,0.0,0.0,0.0,0.0,0.0,0.0,0.0,0.0,0.0,0.0,0.0,0.0,0.0,0.0,0.0,0.0,0.0,0.0,0.0,0.0,-1.5591,-1.5591,-1.5591,-1.5752,-1.5832,-1.5832,-1.5832,-1.5832,-1.5832,-1.5832,-1.5832,-1.5832,0.0,-1.5832,-1.5832,-1.5832,-1.5832,-1.573,-1.5045,-1.4459,-1.3715,-1.2574,-1.1736,-1.1173,-1.0103,-0.9345,-0.894,-0.894,-0.894,-0.894,-0.894,-0.894,-0.894,-0.894,-0.894,-0.894,-0.894,-0.894,-0.894,-0.894,-0.894,-0.894,-0.894,-0.894,-0.894,-0.894,-0.894,-0.894,-0.894,-0.894,-0.894,-0.894,-0.894,-0.894,-0.894,-0.894,-0.8913,-0.8842,-0.876,-0.8621,-0.8404,-0.8316,-0.8204,-0.8052,-0.8038,-0.8038,-0.8038,-0.8038,-0.8038,-0.8038,-0.8038,-0.8038,-0.8038,-0.8038,-0.8038,-0.8038,-0.8038,-0.8038,-1.3471,0.0,0.0,0.0,0.0,0.0,0.0,0.0,0.0,0.0,0.0,0.0,0.0,0.0,0.0,0.0,0.0,0.0,0.0,0.0,0.0,0.0,0.0,0.0,0.0,0.0,0.0,0.0,0.0,0.0,0.0,0.0,0.0,0.0,-1.5357,-1.5398,-1.5398,-1.5618,-1.5758,-1.5832,-1.5832,-1.5832,-1.5832,-1.5832,-1.5832,-1.5832,-1.5832,-1.5832,-1.5832,-1.5832,-1.5832,-1.573,-1.4752,-1.3974,-1.3125,-1.064,-0.9815,-0.9788,-0.8878,-0.8706,-0.8838,-0.8872,-0.8886,-0.8893,-0.8927,-0.894,-0.894,-0.894,-0.894,-0.894,-0.894,-0.894,-0.894,-0.894,-0.894,-0.894,-0.894,-0.894,-0.894,-0.894,-0.894,-0.894,-0.894,-0.894,-0.894,-0.894,-0.894,-0.894,-0.894,-0.894,-0.894,-0.894,-0.8832,-0.8703,-0.855,-0.8374,-0.8235,-0.815,-0.8079,-0.8038,-0.8038,-0.8038,-0.8038,-0.8038,-0.8038,-0.8038,-0.8038,-0.8038,-0.8038,-0.8038,-0.8038,-0.8038,-1.2976,-1.2771,0.0,0.0,0.0,0.0,0.0,0.0,0.0,0.0,0.0,0.0,0.0,0.0,0.0,0.0,0.0,0.0,0.0,0.0,0.0,0.0,0.0,0.0,0.0,0.0,0.0,0.0,0.0,0.0,0.0,0.0,0.0,0.0,0.0,-1.5398,-1.5398,-1.5418,-1.5565,-1.5832,-1.5832,-1.5832,-1.5832,-1.5832,-1.5832,-1.5832,-1.5832,-1.5832,-1.5832,-1.5832,-1.5832,-1.5825,-1.573,-1.4172,-1.1755,-0.913,-0.8251,-0.8491,-0.8402,-0.8394,-0.8537,-0.8679,-0.8726,-0.8754,-0.8896,-0.894,-0.894,-0.894,-0.894,-0.894,-0.894,-0.894,-0.894,-0.894,-0.894,-0.894,-0.894,-0.894,-0.894,-0.894,-0.894,-0.894,-0.894,-0.894,-0.894,-0.894,-0.894,-0.894,-0.894,-0.894,-0.894,-0.894,-0.8927,-0.8859,-0.8706,-0.8435,-0.8323,-0.8442,-0.8191,-0.8038,-0.8038,-0.8038,-0.8038,-0.8038,-0.8038,-0.8038,-0.8038,-0.8038,-0.8038,-0.8038,-0.8038,-0.8038,-1.2392,-1.253,0.0,0.0,0.0,0.0,0.0,0.0,0.0,0.0,0.0,0.0,0.0,0.0,0.0,0.0,0.0,0.0,0.0,0.0,0.0,0.0,0.0,0.0,0.0,0.0,0.0,0.0,0.0,0.0,0.0,0.0,0.0,0.0,0.0,-1.485,-1.485,-1.5037,-1.5277,-1.5558,-1.5558,-1.5658,-1.5832,-1.5832,-1.5832,-1.5832,-1.5832,-1.5832,-1.573,-1.4949,-1.4657,-1.4465,-1.2813,-1.1063,-0.9312,-0.8333,-0.8136,-0.8272,-0.8272,-0.8425,-0.8618,-0.8581,-0.8696,-0.8845,-0.8808,-0.8862,-0.894,-0.894,-0.894,-0.894,-0.894,-0.894,-0.894,-0.894,-0.894,-0.894,-0.894,-0.894,-0.894,-0.894,-0.894,-0.894,-0.894,-0.894,-0.8967,-0.9059,-0.8994,-0.8971,-0.9059,-0.8994,-0.894,-0.894,-0.8855,-0.8774,-0.8716,-0.852,-0.8425,-0.8479,-0.8204,-0.8082,-0.818,-0.8092,-0.8038,-0.8038,-0.8038,-0.8038,-0.8038,-0.8038,-0.8038,-0.8038,-0.8038,-0.8038,-1.1716,0.0,0.0,0.0,0.0,0.0,0.0,0.0,0.0,0.0,0.0,0.0,0.0,0.0,0.0,0.0,0.0,0.0,0.0,0.0,0.0,0.0,0.0,0.0,0.0,0.0,0.0,0.0,0.0,0.0,0.0,0.0,0.0,0.0,0.0,0.0,-1.4522,-1.4723,-1.497,-1.5257,-1.5257,-1.5464,-1.5832,-1.5832,-1.5832,-1.5737,-1.5337,-1.5242,-1.5146,-1.3782,-1.3295,-1.3006,-1.0872,-0.941,-0.8627,-0.8137,-0.8106,-0.8197,-0.8197,-0.833,-0.8496,-0.8486,-0.8625,-0.8794,-0.8784,-0.8855,-0.894,-0.894,-0.894,-0.894,-0.894,-0.894,-0.894,-0.894,-0.894,-0.894,-0.894,-0.894,-0.894,-0.894,-0.894,-0.8954,-0.8998,-0.9008,-0.9055,-0.9205,-0.914,-0.9096,-0.9147,-0.9066,-0.8988,-0.8944,-0.8845,-0.8781,-0.8781,-0.8642,-0.8574,-0.8621,-0.8347,-0.8208,-0.8269,-0.817,-0.8089,-0.8041,-0.8038,-0.8038,-0.8038,-0.8038,-0.8038,-0.8038,-0.8038,-0.8038,0.0,0.0,0.0,0.0,0.0,0.0,0.0,0.0,0.0,0.0,0.0,0.0,0.0,0.0,0.0,0.0,0.0,0.0,0.0,0.0,0.0,0.0,0.0,0.0,0.0,0.0,0.0,0.0,0.0,0.0,0.0,0.0,0.0,0.0,0.0,0.0,-1.4516,-1.4516,-1.4663,-1.4963,-1.4963,-1.5264,-1.5825,-1.5832,-1.5825,-1.573,-1.4459,-1.3872,-1.3782,-1.2431,-1.1853,-1.175,-1.0489,-0.9998,-0.9805,-0.8531,-0.8038,-0.8038,-0.8038,-0.8041,-0.8089,-0.8384,-0.8479,-0.854,-0.8842,-0.8937,-0.894,-0.894,-0.894,-0.894,-0.894,-0.894,-0.894,-0.894,-0.894,-0.894,-0.894,-0.894,-0.894,-0.894,-0.894,-0.8984,-0.9127,-0.915,-0.9205,-0.9361,-0.9381,-0.932,-0.9171,-0.915,-0.9096,-0.8954,-0.894,-0.894,-0.894,-0.8801,-0.8777,-0.893,-0.8655,-0.8421,-0.8279,-0.8272,-0.8197,-0.8041,-0.8038,-0.8038,-0.8038,-0.8038,-0.8038,-0.8038,-0.8038,-0.8038,0.0,0.0,0.0,0.0,0.0,0.0,0.0,0.0,0.0,0.0,0.0,0.0,0.0,0.0,0.0,0.0,0.0,0.0,0.0,0.0,0.0,0.0,0.0,0.0,0.0,0.0,0.0,0.0,0.0,0.0,0.0,0.0,0.0,0.0,0.0,0.0,-1.4215,-1.4215,-1.4362,-1.4656,-1.3937,-1.4311,-1.5531,-1.5732,-1.5337,-1.4459,-1.407,-1.3392,-1.2431,-1.1072,-0.9998,-0.9114,-0.8726,-0.8627,-0.8528,-0.8137,-0.8038,-0.8038,-0.8038,-0.8109,-0.8201,-0.8177,-0.8384,-0.8638,-0.8621,-0.8767,-0.894,-0.894,-0.894,-0.894,-0.894,-0.894,-0.894,-0.894,-0.894,-0.894,-0.894,-0.894,-0.894,-0.894,-0.894,-0.8984,-0.9127,-0.9069,-0.9123,-0.949,-0.9273,-0.9052,-0.9008,-0.9001,-0.8984,-0.8944,-0.894,-0.894,-0.894,-0.8896,-0.8889,-0.8933,-0.8852,-0.8686,-0.8428,-0.8323,-0.8197,-0.8041,-0.8038,-0.8038,-0.8038,-0.8038,-0.8038,-0.8038,-0.8038,-0.8038,0.0,0.0,0.0,0.0,0.0,0.0,0.0,0.0,0.0,0.0,0.0,0.0,0.0,0.0,0.0,0.0,0.0,0.0,0.0,0.0,0.0,0.0,0.0,0.0,0.0,0.0,0.0,0.0,0.0,0.0,0.0,0.0,0.0,0.0,0.0,0.0,-1.4088,-1.4088,-1.3913,-1.3633,-1.3188,-1.3182,-1.3737,-1.4105,-1.3788,-1.3108,-1.2619,-1.1551,-1.0288,-0.9509,-0.8726,-0.8038,-0.8038,-0.8038,-0.8038,-0.8038,-0.8038,-0.8038,-0.8038,-0.8099,-0.8174,-0.814,-0.8353,-0.8615,-0.8581,-0.8743,-0.894,-0.894,-0.894,-0.894,-0.894,-0.894,-0.894,-0.894,-0.894,-0.894,-0.894,-0.894,-0.894,-0.894,-0.894,-0.9005,-0.9208,-0.9171,-0.9228,-0.9561,-0.9276,-0.9025,-0.9025,-0.8974,-0.894,-0.894,-0.894,-0.894,-0.894,-0.894,-0.894,-0.894,-0.894,-0.8828,-0.8581,-0.8431,-0.8255,-0.8041,-0.8038,-0.8038,-0.8038,-0.8038,-0.8038,-0.8038,-0.8038,-0.8038,0.0,0.0,0.0,0.0,0.0,0.0,0.0,0.0,0.0,0.0,0.0,0.0,0.0,0.0,0.0,0.0,0.0,0.0,0.0,0.0,0.0,0.0,0.0,0.0,0.0,0.0,0.0,0.0,0.0,0.0,0.0,0.0,0.0,0.0,0.0,0.0,-1.4088,-1.3997,-1.3379,0.0,-1.2412,-1.1947,-1.1079,-1.1617,-1.1833,-1.1653,-1.0386,-0.9118,-0.8038,-0.8038,-0.8038,-0.8038,-0.8038,-0.8038,-0.8038,-0.8038,-0.8038,-0.8038,-0.8038,-0.8038,-0.8062,-0.8204,-0.8347,-0.8489,-0.8628,-0.8777,-0.8896,-0.8896,-0.8906,-0.8916,-0.8916,-0.8927,-0.894,-0.894,-0.894,-0.894,-0.894,-0.894,-0.894,-0.894,-0.894,-0.9032,-0.933,-0.9357,-0.9388,-0.9527,-0.9323,-0.9147,-0.9133,-0.9018,-0.894,-0.894,-0.894,-0.894,-0.894,-0.894,-0.894,-0.894,-0.894,-0.8869,-0.8716,-0.8577,-0.8364,-0.8065,-0.8062,-0.8055,-0.8038,-0.8038,-0.8038,-0.8038,-0.8041,-0.8041,0.0,0.0,0.0,0.0,0.0,0.0,0.0,0.0,0.0,0.0,0.0,0.0,0.0,0.0,0.0,0.0,0.0,0.0,0.0,0.0,0.0,0.0,0.0,0.0,0.0,0.0,0.0,0.0,0.0,0.0,0.0,0.0,0.0,0.0,0.0,-1.4088,-1.4088,-1.3118,-1.2589,0.0,-1.0651,-0.98,-0.9587,-1.1106,-1.1202,-1.0288,-0.9019,-0.8233,-0.8038,-0.8038,-0.8038,-0.8038,-0.8038,-0.8038,-0.8038,-0.8038,-0.8038,-0.8038,-0.8038,-0.8038,-0.8045,-0.8079,-0.8191,-0.8323,-0.8353,-0.8465,-0.8581,-0.8581,-0.8665,-0.876,-0.876,-0.8849,-0.894,-0.894,-0.894,-0.894,-0.894,-0.894,-0.894,-0.894,-0.894,-0.9032,-0.933,-0.9188,-0.9045,-0.9079,-0.9123,-0.9113,-0.8998,-0.8957,-0.894,-0.894,-0.894,-0.894,-0.894,-0.894,-0.894,-0.894,-0.894,-0.8869,-0.8716,-0.8679,-0.8523,-0.8225,-0.8221,-0.816,-0.8038,-0.8038,-0.8038,-0.8038,-0.7959,-0.7955,0.0,0.0,0.0,0.0,0.0,0.0,0.0,0.0,0.0,0.0,0.0,0.0,0.0,0.0,0.0,0.0,0.0,0.0,0.0,0.0,0.0,0.0,0.0,0.0,0.0,0.0,0.0,0.0,0.0,0.0,0.0,0.0,0.0,0.0,-1.3781,-1.4021,-1.3874,-1.279,-1.2066,-1.1472,-0.9763,-0.8763,-0.8394,-0.9395,-0.9481,-0.8901,-0.8301,-0.8038,-0.8038,-0.8038,-0.8038,-0.8038,-0.8038,-0.8038,-0.8038,-0.8038,-0.8038,-0.8038,-0.8038,-0.8038,-0.8038,-0.8038,-0.8143,-0.8272,-0.8272,-0.837,-0.8482,-0.8482,-0.854,-0.8618,-0.8693,-0.8716,-0.8757,-0.8903,-0.894,-0.894,-0.894,-0.894,-0.894,-0.894,-0.894,-0.9008,-0.9232,-0.9144,-0.9042,-0.9042,-0.9045,-0.9022,-0.8947,-0.894,-0.894,-0.894,-0.894,-0.894,-0.894,-0.894,-0.894,-0.894,-0.894,-0.8903,-0.8821,-0.8818,-0.8648,-0.8279,-0.8272,-0.8194,-0.8038,-0.8038,-0.8038,-0.8038,-0.7952,-0.7952,0.0,0.0,0.0,0.0,0.0,0.0,0.0,0.0,0.0,0.0,0.0,0.0,0.0,0.0,0.0,0.0,0.0,0.0,0.0,0.0,0.0,0.0,0.0,0.0,0.0,0.0,0.0,0.0,0.0,0.0,0.0,0.0,-1.3013,-1.2829,-1.352,-1.3758,-1.3307,-1.2416,-1.1428,-1.0265,-0.9144,-0.8255,-0.7526,-0.7672,-0.7763,-0.7818,-0.7943,-0.8001,-0.8001,-0.8028,-0.8038,-0.8038,-0.8038,-0.8038,-0.8038,-0.8038,-0.8038,-0.8038,-0.8038,-0.8038,-0.8038,-0.8038,-0.8126,-0.8231,-0.8231,-0.8313,-0.8404,-0.8404,-0.8425,-0.8476,-0.8601,-0.8577,-0.8584,-0.8838,-0.892,-0.894,-0.894,-0.894,-0.894,-0.894,-0.8957,-0.9015,-0.9133,-0.9154,-0.9154,-0.9154,-0.9032,-0.894,-0.894,-0.894,-0.894,-0.894,-0.894,-0.894,-0.894,-0.894,-0.894,-0.894,-0.894,-0.894,-0.894,-0.8913,-0.8713,-0.8316,-0.8306,-0.8218,-0.8038,-0.8038,-0.8038,-0.8038,-0.8045,-0.8048,0.0,0.0,0.0,0.0,0.0,0.0,0.0,0.0,0.0,0.0,0.0,0.0,0.0,0.0,0.0,0.0,0.0,0.0,0.0,0.0,0.0,0.0,0.0,0.0,0.0,0.0,0.0,0.0,0.0,0.0,0.0,-1.2625,-1.2869,-1.2822,-1.3126,-1.293,-1.2117,-1.1066,-0.9999,-0.9148,-0.7925,-0.7248,-0.7207,-0.736,-0.757,-0.7814,-0.7831,-0.7841,-0.7851,-0.7984,-0.8038,-0.8038,-0.8038,-0.8038,-0.8038,-0.8038,-0.8038,-0.8038,-0.8038,-0.8038,-0.8038,-0.8038,-0.8055,-0.8069,-0.8069,-0.8082,-0.8099,-0.8099,-0.8194,-0.8303,-0.8323,-0.8506,-0.8689,-0.873,-0.8842,-0.894,-0.894,-0.894,-0.894,-0.894,-0.9039,-0.913,-0.915,-0.9154,-0.9154,-0.9154,-0.9032,-0.894,-0.894,-0.894,-0.894,-0.894,-0.894,-0.894,-0.894,-0.894,-0.894,-0.894,-0.894,-0.894,-0.894,-0.8811,-0.8652,-0.8459,-0.8455,-0.8316,-0.8038,-0.8038,-0.8038,-0.8038,-0.7969,-0.7979,0.0,0.0,0.0,0.0,0.0,0.0,0.0,0.0,0.0,0.0,0.0,0.0,0.0,0.0,0.0,0.0,0.0,0.0,0.0,0.0,0.0,0.0,0.0,0.0,0.0,0.0,0.0,0.0,0.0,0.0,-1.2305,-1.2585,-1.2431,-1.1727,-1.222,-1.1933,-1.0822,-0.9921,-0.8979,-0.7841,-0.7312,-0.7187,-0.7268,-0.7251,-0.736,-0.757,-0.7655,-0.7736,-0.7818,-0.7882,-0.7963,-0.8038,-0.8038,-0.8038,-0.8038,-0.8038,-0.8038,-0.8038,-0.8038,-0.8038,-0.8038,-0.8038,-0.8038,-0.8038,-0.8038,-0.8038,-0.8038,-0.8038,-0.8089,-0.818,-0.8347,-0.8425,-0.8526,-0.8777,-0.8825,-0.8835,-0.892,-0.894,-0.894,-0.894,-0.9055,-0.9154,-0.9154,-0.9225,-0.9283,-0.9283,-0.9228,-0.9154,-0.9069,-0.9059,-0.9028,-0.8947,-0.894,-0.894,-0.894,-0.894,-0.894,-0.894,-0.894,-0.894,-0.894,-0.8791,-0.8638,-0.8486,-0.8404,-0.8255,-0.8038,-0.8038,-0.8045,-0.7959,-0.7972,-0.716,0.0,0.0,0.0,0.0,0.0,0.0,0.0,0.0,0.0,0.0,0.0,0.0,0.0,0.0,0.0,0.0,0.0,0.0,0.0,0.0,0.0,0.0,0.0,0.0,0.0,0.0,0.0,0.0,0.0,0.0,-1.2305,-1.2512,-1.2067,-1.0864,-1.1347,-1.0891,-0.9457,-0.8781,-0.8017,-0.7139,-0.7139,-0.72,-0.7309,-0.7193,-0.7204,-0.7322,-0.7516,-0.7658,-0.7763,-0.7838,-0.7936,-0.8038,-0.8038,-0.8038,-0.8038,-0.8038,-0.8038,-0.8038,-0.8038,-0.8038,-0.8038,-0.8038,-0.8038,-0.8038,-0.8038,-0.8038,-0.8038,-0.8038,-0.8038,-0.8092,-0.8313,-0.8347,-0.8408,-0.8743,-0.8794,-0.8801,-0.8913,-0.894,-0.895,-0.8988,-0.9049,-0.9123,-0.9198,-0.9273,-0.9337,-0.9374,-0.9347,-0.9283,-0.9167,-0.912,-0.9059,-0.895,-0.894,-0.894,-0.894,-0.894,-0.894,-0.894,-0.894,-0.894,-0.894,-0.8754,-0.8598,-0.8482,-0.8309,-0.816,-0.8038,-0.8048,-0.7959,-0.7972,-0.7982,-0.6962,0.0,0.0,0.0,0.0,0.0,0.0,0.0,0.0,0.0,0.0,0.0,0.0,0.0,0.0,0.0,0.0,0.0,0.0,0.0,0.0,0.0,0.0,0.0,0.0,0.0,0.0,0.0,0.0,0.0,0.0,-1.2305,-1.2318,-1.1861,-1.0858,-1.0824,-0.9993,-0.8324,-0.7591,-0.7139,-0.7139,-0.7139,-0.7143,-0.7153,-0.7143,-0.7143,-0.717,-0.7468,-0.7604,-0.7634,-0.7913,-0.8031,-0.8038,-0.8038,-0.8038,-0.8038,-0.8038,-0.8038,-0.8038,-0.8038,-0.8038,-0.8038,-0.8038,-0.8038,-0.8038,-0.8038,-0.8038,-0.8038,-0.8038,-0.8038,-0.8041,-0.8058,-0.8265,-0.8476,-0.8499,-0.872,-0.8927,-0.8937,-0.894,-0.8981,-0.9117,-0.9039,-0.9039,-0.932,-0.9256,-0.9215,-0.9361,-0.9259,-0.9161,-0.9154,-0.9032,-0.8947,-0.894,-0.894,-0.894,-0.894,-0.894,-0.894,-0.894,-0.894,-0.894,-0.894,-0.8652,-0.8489,-0.8482,-0.8218,-0.7969,-0.8038,-0.7972,-0.7982,-0.7972,-0.8009,-0.7918,0.0,0.0,0.0,0.0,0.0,0.0,0.0,0.0,0.0,0.0,0.0,0.0,0.0,0.0,0.0,0.0,0.0,0.0,0.0,0.0,0.0,0.0,0.0,0.0,0.0,0.0,0.0,0.0,0.0,0.0,-1.2305,-1.1694,-1.087,-0.9895,-0.9269,-0.8462,-0.727,-0.6972,-0.6858,-0.6858,-0.6956,-0.7004,-0.7007,-0.7099,-0.7139,-0.7153,-0.7363,-0.7455,-0.7461,-0.7567,-0.7723,-0.7892,-0.7892,-0.7953,-0.8038,-0.8038,-0.8038,-0.8038,-0.8038,-0.8038,-0.8038,-0.8038,-0.8038,-0.8038,-0.8038,-0.8038,-0.8038,-0.8038,-0.8038,-0.8062,-0.8163,-0.8265,-0.8394,-0.8584,-0.8713,-0.8818,-0.8916,-0.894,-0.8954,-0.9005,-0.9049,-0.911,-0.9215,-0.9269,-0.9317,-0.9371,-0.9334,-0.9262,-0.9164,-0.911,-0.9042,-0.895,-0.894,-0.894,-0.894,-0.894,-0.894,-0.894,-0.894,-0.894,-0.894,-0.8645,-0.8482,-0.8482,-0.8221,-0.7975,-0.7962,-0.7979,-0.7995,-0.8006,-0.8019,-0.6178,0.0,0.0,0.0,0.0,0.0,0.0,0.0,0.0,0.0,0.0,0.0,0.0,0.0,0.0,0.0,0.0,0.0,0.0,0.0,0.0,0.0,0.0,0.0,0.0,0.0,0.0,0.0,0.0,0.0,0.0,-1.2305,-1.1316,-1.0185,-0.8841,-0.7952,-0.7236,-0.6624,-0.6675,-0.6702,-0.6702,-0.6854,-0.6929,-0.6932,-0.7075,-0.7139,-0.7146,-0.7248,-0.7322,-0.7373,-0.7428,-0.759,-0.7811,-0.7811,-0.7906,-0.8038,-0.8038,-0.8038,-0.8038,-0.8038,-0.8038,-0.8038,-0.8038,-0.8038,-0.8038,-0.8038,-0.8038,-0.8038,-0.8038,-0.8038,-0.8062,-0.8167,-0.8265,-0.8404,-0.8652,-0.875,-0.8815,-0.8916,-0.894,-0.8954,-0.9001,-0.9049,-0.9096,-0.9144,-0.9239,-0.9303,-0.9303,-0.9303,-0.9266,-0.9164,-0.911,-0.9045,-0.895,-0.894,-0.894,-0.894,-0.894,-0.894,-0.894,-0.894,-0.8916,-0.8866,-0.8625,-0.8469,-0.8411,-0.8106,-0.7582,-0.6645,-0.7535,-0.7988,-0.7994,-0.6172,-0.3396,0.0,0.0,0.0,0.0,0.0,0.0,0.0,0.0,0.0,0.0,0.0,0.0,0.0,0.0,0.0,0.0,0.0,0.0,0.0,0.0,0.0,0.0,0.0,0.0,0.0,0.0,0.0,0.0,0.0,-1.2291,-1.2218,-1.1236,-0.9809,-0.7783,-0.6939,-0.6464,-0.6464,-0.6614,-0.6688,-0.6688,-0.6848,-0.6922,-0.6926,-0.7075,-0.7139,-0.7139,-0.7139,-0.7224,-0.7377,-0.7522,-0.7672,-0.7797,-0.7797,-0.7892,-0.8031,-0.8031,-0.8035,-0.8038,-0.8038,-0.8038,-0.8038,-0.8038,-0.8038,-0.8038,-0.8038,-0.8038,-0.8038,-0.8038,-0.8038,-0.8038,-0.8038,-0.8255,-0.8509,-0.8662,-0.8815,-0.8927,-0.893,-0.8933,-0.8981,-0.912,-0.9032,-0.8984,-0.9123,-0.9147,-0.9147,-0.9147,-0.9147,-0.9147,-0.9147,-0.9025,-0.894,-0.894,-0.894,-0.894,-0.894,-0.894,-0.894,-0.894,-0.894,-0.8872,-0.8723,-0.8587,-0.8546,-0.8279,-0.8076,-0.6673,-0.4016,-0.6508,-0.7742,-0.762,-0.2432,0.0,-0.7832,0.0,0.0,0.0,0.0,0.0,0.0,0.0,0.0,0.0,0.0,0.0,0.0,0.0,0.0,0.0,0.0,0.0,0.0,0.0,0.0,0.0,0.0,0.0,0.0,0.0,0.0,0.0,-1.1864,-1.169,-1.0955,-0.9499,-0.8008,-0.6718,-0.6454,-0.6318,-0.6318,-0.6363,-0.6383,-0.6386,-0.6641,-0.6763,-0.6773,-0.7027,-0.7139,-0.7139,-0.7139,-0.7166,-0.7207,-0.7251,-0.7356,-0.7492,-0.7492,-0.7648,-0.7875,-0.7875,-0.7943,-0.8038,-0.8038,-0.8038,-0.8038,-0.8038,-0.8038,-0.8038,-0.8038,-0.8038,-0.8038,-0.8038,-0.8038,-0.8038,-0.8038,-0.8099,-0.8201,-0.8353,-0.8503,-0.8638,-0.875,-0.8859,-0.895,-0.8991,-0.8964,-0.895,-0.8991,-0.8998,-0.8998,-0.8998,-0.8998,-0.8998,-0.8998,-0.8964,-0.894,-0.894,-0.894,-0.894,-0.894,-0.894,-0.894,-0.894,-0.894,-0.892,-0.8876,-0.8628,-0.8469,-0.8425,-0.8109,-0.6662,-0.4016,-0.2775,-0.2182,-0.2181,-0.074,0.0,0.0,0.0,0.0,0.0,0.0,0.0,0.0,0.0,0.0,0.0,0.0,0.0,0.0,0.0,0.0,0.0,0.0,0.0,0.0,0.0,0.0,0.0,0.0,0.0,0.0,0.0,0.0,0.0,-1.1339,-1.0677,-0.9385,-0.8321,-0.7326,-0.6338,-0.6338,-0.6338,-0.6338,-0.6338,-0.6338,-0.6264,-0.6495,-0.6637,-0.6709,-0.6946,-0.7085,-0.7139,-0.7139,-0.7139,-0.7139,-0.7139,-0.7268,-0.7465,-0.7465,-0.7607,-0.7818,-0.7882,-0.7923,-0.7953,-0.8018,-0.8038,-0.8038,-0.8038,-0.8038,-0.8038,-0.8038,-0.8038,-0.8038,-0.8038,-0.8038,-0.8038,-0.8038,-0.8089,-0.816,-0.8248,-0.8377,-0.8506,-0.8598,-0.8686,-0.8784,-0.8913,-0.894,-0.894,-0.894,-0.894,-0.894,-0.894,-0.894,-0.894,-0.894,-0.894,-0.894,-0.894,-0.894,-0.894,-0.894,-0.894,-0.894,-0.894,-0.894,-0.891,-0.8845,-0.8682,-0.8666,-0.8482,-0.815,-0.6117,-0.2291,-0.0727,0.0,0.0,0.0,0.0,0.0,0.0,0.0,0.0,0.0,0.0,-0.8758,-0.8804,-0.8804,0.0,0.0,0.0,0.0,0.0,0.0,0.0,0.0,0.0,0.0,0.0,0.0,0.0,0.0,0.0,0.0,0.0,-0.9904,-1.0963,-1.0383,-0.9353,-0.7812,-0.7672,-0.723,-0.6338,-0.6338,-0.6338,-0.6338,-0.6338,-0.6338,-0.6342,-0.6407,-0.6552,-0.6705,-0.6858,-0.7007,-0.7139,-0.7139,-0.7139,-0.7139,-0.7139,-0.7312,-0.7577,-0.7577,-0.7662,-0.7804,-0.796,-0.7929,-0.7831,-0.7987,-0.8038,-0.8038,-0.8038,-0.8038,-0.8038,-0.8038,-0.8038,-0.8038,-0.8038,-0.8038,-0.8038,-0.8038,-0.814,-0.8245,-0.8245,-0.8353,-0.8459,-0.8459,-0.8472,-0.8564,-0.8835,-0.8903,-0.892,-0.8933,-0.894,-0.894,-0.894,-0.894,-0.894,-0.894,-0.894,-0.894,-0.894,-0.894,-0.894,-0.894,-0.894,-0.894,-0.894,-0.894,-0.8876,-0.8743,-0.8852,-0.8779,-0.8513,-0.8127,-0.5377,0.0,0.0,0.0,0.0,0.0,0.0,0.0,0.0,0.0,0.0,0.0,0.0,-0.8646,-0.8804,-0.8804,0.0,0.0,0.0,0.0,0.0,0.0,0.0,0.0,0.0,0.0,0.0,0.0,0.0,0.0,0.0,0.0,0.0,-0.8435,-0.8679,-0.8025,-0.7544,-0.7533,-0.6813,-0.6356,-0.6335,-0.6338,-0.6338,-0.6338,-0.6338,-0.6338,-0.6342,-0.6407,-0.6552,-0.6705,-0.6858,-0.7007,-0.7139,-0.7139,-0.7139,-0.7139,-0.7139,-0.7248,-0.7414,-0.7414,-0.7509,-0.7658,-0.7801,-0.7838,-0.7831,-0.7987,-0.8038,-0.8038,-0.8038,-0.8038,-0.8038,-0.8038,-0.8038,-0.8038,-0.8038,-0.8038,-0.8038,-0.8038,-0.8062,-0.8085,-0.8085,-0.8201,-0.8313,-0.8313,-0.8401,-0.8499,-0.856,-0.8669,-0.8794,-0.8916,-0.894,-0.894,-0.894,-0.894,-0.894,-0.894,-0.894,-0.894,-0.894,-0.894,-0.894,-0.894,-0.894,-0.894,-0.894,-0.894,-0.8923,-0.8896,-0.8781,-0.871,-0.8585,-0.8185,-0.5312,0.0,0.0,0.0,0.0,0.0,0.0,0.0,0.0,0.0,-0.745,0.0,0.0,0.0,-0.8262,-0.8193,0.0,0.0,0.0,0.0,0.0,0.0,0.0,0.0,0.0,0.0,0.0,0.0,0.0,0.0,0.0,0.0,0.0,-0.7945,-0.8113,-0.7355,-0.6851,-0.6695,-0.6205,-0.6064,-0.6142,-0.622,-0.6338,-0.6338,-0.6338,-0.6338,-0.6338,-0.6332,-0.6444,-0.659,-0.6664,-0.6824,-0.7034,-0.7034,-0.7075,-0.7139,-0.7139,-0.7231,-0.737,-0.737,-0.7417,-0.7502,-0.7651,-0.7658,-0.7624,-0.7848,-0.7926,-0.7936,-0.8014,-0.8038,-0.8038,-0.8038,-0.8038,-0.8038,-0.8038,-0.8038,-0.8038,-0.8038,-0.8038,-0.8038,-0.8038,-0.8099,-0.8153,-0.8153,-0.8211,-0.8282,-0.8364,-0.8438,-0.8564,-0.8784,-0.8825,-0.8852,-0.8927,-0.894,-0.894,-0.894,-0.894,-0.894,-0.894,-0.894,-0.894,-0.894,-0.894,-0.894,-0.894,-0.895,-0.8846,-0.8846,-0.8783,-0.8756,-0.8773,-0.8497,-0.5673,0.0,0.0,0.0,0.0,0.0,0.0,0.0,0.0,0.0,0.0,0.0,-0.7509,0.0,0.0,0.0,-0.7196,0.0,0.0,0.0,0.0,0.0,0.0,0.0,0.0,0.0,0.0,0.0,0.0,0.0,0.0,0.0,0.0,-0.7409,-0.7865,-0.7089,-0.6352,-0.5823,-0.5878,-0.5959,-0.5983,-0.6108,-0.6173,-0.6173,-0.6203,-0.6217,-0.6217,-0.6247,-0.6335,-0.6471,-0.6471,-0.6637,-0.6929,-0.6929,-0.6993,-0.7102,-0.7129,-0.7197,-0.7292,-0.735,-0.737,-0.739,-0.7543,-0.7502,-0.7411,-0.7678,-0.777,-0.7794,-0.7946,-0.8014,-0.8038,-0.8038,-0.8038,-0.8038,-0.8038,-0.8038,-0.8038,-0.8038,-0.8038,-0.8038,-0.8038,-0.8038,-0.8038,-0.8038,-0.8038,-0.8075,-0.8201,-0.8225,-0.833,-0.8655,-0.8686,-0.872,-0.8872,-0.8896,-0.8896,-0.8896,-0.892,-0.894,-0.894,-0.894,-0.894,-0.894,-0.894,-0.894,-0.8947,-0.8853,-0.8634,-0.8069,-0.8546,-0.8903,-0.8913,-0.7771,-0.481,0.0,0.0,0.0,0.0,0.0,0.0,0.0,0.0,0.0,0.0,-0.6253,0.0,0.0,0.0,-0.7734,-0.7756,0.0,0.0,0.0,0.0,0.0,0.0,0.0,0.0,0.0,0.0,0.0,0.0,0.0,0.0,0.0,0.0,0.0,-0.6802,-0.6039,-0.5585,-0.5606,-0.563,-0.5698,-0.5823,-0.5844,-0.5854,-0.5854,-0.5986,-0.6057,-0.6057,-0.6196,-0.6335,-0.6471,-0.6471,-0.6637,-0.6929,-0.6929,-0.6939,-0.6963,-0.7088,-0.7078,-0.7004,-0.7268,-0.737,-0.739,-0.7543,-0.7502,-0.7397,-0.7563,-0.7624,-0.7648,-0.779,-0.7929,-0.8038,-0.8038,-0.8038,-0.8038,-0.8038,-0.8038,-0.8038,-0.8038,-0.8038,-0.8038,-0.8038,-0.8038,-0.8038,-0.8038,-0.8038,-0.8045,-0.8062,-0.8065,-0.8204,-0.8635,-0.8598,-0.856,-0.8713,-0.8737,-0.8737,-0.8737,-0.8855,-0.894,-0.894,-0.894,-0.894,-0.894,-0.894,-0.8947,-0.8856,-0.886,-0.7727,-0.5142,-0.753,-0.891,-0.8913,-0.3701,-0.0663,0.0,0.0,0.0,0.0,0.0,0.0,0.0,0.0,0.0,0.0,0.0,0.0,0.0,0.0,-0.6624,0.0,0.0,0.0,0.0,0.0,0.0,0.0,0.0,0.0,0.0,0.0,0.0,0.0,0.0,0.0,0.0,0.0,0.0,0.0,0.0,-0.5352,-0.5325,-0.5491,-0.5616,-0.5677,-0.5759,-0.5844,-0.5932,-0.5996,-0.6074,-0.6166,-0.623,-0.6291,-0.6349,-0.6349,-0.6512,-0.6793,-0.6702,-0.681,-0.7051,-0.7027,-0.7031,-0.7065,-0.7187,-0.7238,-0.7244,-0.7309,-0.7292,-0.7258,-0.7414,-0.7468,-0.7506,-0.7736,-0.7855,-0.7923,-0.8014,-0.8038,-0.8038,-0.8038,-0.8038,-0.8038,-0.8038,-0.8038,-0.8038,-0.8038,-0.8038,-0.8038,-0.8038,-0.8038,-0.8038,-0.8038,-0.8038,-0.8126,-0.8408,-0.8401,-0.8438,-0.8676,-0.8635,-0.8611,-0.8699,-0.8767,-0.8842,-0.893,-0.894,-0.894,-0.894,-0.894,-0.895,-0.886,-0.888,-0.6844,-0.2126,-0.3025,-0.3702,-0.3702,-0.1222,0.0,0.0,0.0,0.0,0.0,0.0,0.0,-0.465,0.0,0.0,0.0,0.0,0.0,0.0,0.0,0.0,0.0,0.0,0.0,0.0,0.0,0.0,0.0,0.0,0.0,0.0,0.0,0.0,0.0,0.0,0.0,0.0,0.0,0.0,0.0,-0.5687,0.0,-0.5138,-0.5382,-0.5528,-0.5528,-0.5627,-0.5752,-0.5908,-0.5945,-0.6044,-0.62,-0.624,-0.6338,-0.6338,-0.6338,-0.6396,-0.663,-0.6519,-0.6678,-0.7014,-0.6953,-0.699,-0.7085,-0.7126,-0.7139,-0.7139,-0.7139,-0.7139,-0.7156,-0.7268,-0.7336,-0.7414,-0.7672,-0.778,-0.7838,-0.7994,-0.8038,-0.8038,-0.8038,-0.8038,-0.8038,-0.8038,-0.8038,-0.8038,-0.8038,-0.8038,-0.8038,-0.8038,-0.8038,-0.8038,-0.8038,-0.8038,-0.8089,-0.8245,-0.8235,-0.8296,-0.8554,-0.8496,-0.8465,-0.8574,-0.8625,-0.8706,-0.8859,-0.8838,-0.8828,-0.8872,-0.8835,-0.8507,-0.7781,-0.6943,-0.4489,-0.0224,0.0,0.0,0.0,0.0,0.0,0.0,0.0,0.0,0.0,0.0,0.0,0.0,0.0,0.0,0.0,0.0,0.0,0.0,0.0,-0.6042,0.0,0.0,0.0,0.0,0.0,0.0,0.0,0.0,0.0,0.0,0.0,0.0,0.0,0.0,0.0,0.0,0.0,0.0,-0.5408,-0.5425,0.0,-0.5138,-0.5281,-0.5435,-0.5435,-0.5439,-0.545,-0.5603,-0.5739,-0.5884,-0.6037,-0.619,-0.6338,-0.6338,-0.6338,-0.6339,-0.6478,-0.6474,-0.6566,-0.6725,-0.6868,-0.6932,-0.6949,-0.7088,-0.7139,-0.7139,-0.7139,-0.7139,-0.7139,-0.7146,-0.7244,-0.7397,-0.7556,-0.7699,-0.7838,-0.7994,-0.8038,-0.8038,-0.8038,-0.8038,-0.8038,-0.8038,-0.8038,-0.8038,-0.8038,-0.8038,-0.8038,-0.8038,-0.8038,-0.8038,-0.8038,-0.8038,-0.8089,-0.8245,-0.8147,-0.8102,-0.8262,-0.8282,-0.8279,-0.8286,-0.8404,-0.855,-0.8703,-0.8584,-0.8557,-0.8706,-0.8581,-0.7381,-0.4792,-0.1886,-0.0224,-0.0,0.0,0.0,0.0,0.0,0.0,0.0,0.0,0.0,0.0,0.0,0.0,0.0,0.0,-0.4677,-0.4626,0.0,0.0,0.0,0.0,0.0,0.0,0.0,0.0,0.0,0.0,0.0,0.0,0.0,0.0,0.0,0.0,0.0,0.0,0.0,0.0,0.0,0.0,0.0,-0.5802,-0.581,-0.6022,0.0,-0.6186,-0.6074,-0.6368,-0.5848,-0.563,-0.5878,-0.5928,-0.603,-0.6183,-0.6237,-0.6338,-0.6338,-0.6338,-0.6339,-0.6471,-0.6471,-0.6617,-0.6854,-0.6909,-0.6983,-0.7075,-0.7122,-0.7139,-0.7139,-0.7139,-0.7139,-0.7139,-0.7139,-0.7173,-0.7261,-0.7516,-0.7631,-0.7719,-0.7963,-0.8038,-0.8038,-0.8038,-0.8038,-0.8038,-0.8038,-0.8038,-0.8038,-0.8038,-0.8038,-0.8038,-0.8038,-0.8038,-0.8038,-0.8038,-0.8038,-0.8055,-0.8109,-0.8075,-0.8092,-0.8248,-0.8184,-0.8153,-0.8258,-0.8313,-0.8397,-0.8543,-0.8513,-0.8543,-0.8699,-0.856,-0.7396,-0.4654,-0.1674,0.0,0.0,0.0,0.0,0.0,0.0,0.0,0.0,0.0,0.0,0.0,0.0,0.0,-0.4653,-0.4724,0.0,-0.4718,-0.4911,0.0,-0.5131,0.0,0.0,0.0,0.0,0.0,0.0,0.0,0.0,0.0,0.0,0.0,0.0,0.0,0.0,0.0,0.0,0.0,0.0,0.0,-0.6397,-0.6515,-0.6331,-0.6577,0.0,0.0,-0.6551,-0.686,-0.6062,-0.5732,-0.6027,-0.603,-0.6108,-0.6338,-0.6338,-0.6288,-0.6335,-0.6335,-0.6417,-0.6552,-0.6552,-0.6698,-0.6929,-0.6929,-0.701,-0.7139,-0.7139,-0.7139,-0.7139,-0.7139,-0.7139,-0.7146,-0.7204,-0.7187,-0.719,-0.7499,-0.76,-0.7655,-0.795,-0.8038,-0.8038,-0.8038,-0.8038,-0.8038,-0.8038,-0.8038,-0.8038,-0.8038,-0.8038,-0.8038,-0.8038,-0.8038,-0.8038,-0.8038,-0.8038,-0.8038,-0.8038,-0.8038,-0.8072,-0.8174,-0.8102,-0.8075,-0.8177,-0.8187,-0.8245,-0.8391,-0.8357,-0.8387,-0.854,-0.856,-0.7343,-0.4541,-0.1562,0.0,0.0,0.0,0.0,0.0,0.0,0.0,0.0,0.0,0.0,0.0,0.0,0.0]}]]